GFSCGP_925_thetae_000.txt.gz
Theta_e
310 310 311 312 310 312 309 309 310 309 310 313 312 312 313 313 310 307 308 310 311 310 310 309 310 310 307 305 303 302 300 300 300 299 298 298 297 297 296 296 295 294 293 292
311 311 311 310 309 311 311 311 311 311 310 309 310 311 311 310 312 312 311 311 310 310 310 304 306 307 306 305 303 301 300 299 299 298 297 296 296 296 296 295 294 294 292 292
312 312 311 310 310 311 311 312 312 312 310 308 308 311 309 308 309 310 308 309 311 311 312 306 301 304 303 302 301 300 299 299 298 298 297 296 295 294 294 293 293 292 292 291
310 310 311 311 312 311 313 310 311 310 311 312 309 314 310 309 309 309 309 309 309 309 308 306 301 299 301 301 299 298 298 298 298 297 296 295 295 294 292 292 292 292 291 291
309 311 310 310 312 310 313 310 309 310 310 310 311 312 312 308 309 309 310 308 308 309 304 303 300 302 301 300 298 298 298 298 297 297 296 295 294 294 293 292 292 291 290 290
307 307 308 309 309 307 308 310 309 307 308 312 311 311 312 308 309 309 308 308 308 309 304 302 301 301 299 298 297 297 297 297 296 296 295 295 294 294 292 291 291 290 290 289
307 306 306 308 310 308 310 310 311 310 309 314 309 308 313 310 310 308 309 309 308 307 302 301 299 298 296 296 296 296 296 295 296 296 296 295 295 294 293 292 291 289 289 289
308 310 307 306 308 308 308 310 314 312 312 314 305 310 312 308 308 307 307 306 304 304 302 301 299 298 297 296 295 295 295 295 295 295 295 294 294 293 292 292 291 290 289 289
308 310 308 307 308 308 308 310 310 312 297 307 312 310 310 309 309 307 306 305 304 303 302 301 298 297 297 296 295 296 295 295 295 294 294 293 293 292 292 292 291 291 290 289
308 311 309 306 306 307 308 308 311 310 314 312 310 311 313 311 311 307 306 306 304 302 303 301 298 296 297 297 296 296 296 295 295 294 294 293 293 293 292 291 291 290 290 289
309 311 312 306 307 309 308 309 308 310 314 317 317 315 308 308 308 308 306 307 303 302 303 301 299 298 298 298 297 296 296 295 295 295 294 293 293 292 291 291 291 291 290 290
312 315 319 318 308 305 305 309 310 313 314 311 314 314 313 312 311 310 309 306 305 302 302 301 301 298 297 297 296 296 295 295 296 296 294 293 292 291 291 291 290 290 289 289
317 318 320 319 316 311 305 306 308 309 309 315 318 316 312 312 310 311 309 308 304 302 301 302 300 300 300 298 296 296 296 296 295 294 294 292 292 291 290 290 290 289 288 289
315 318 318 318 315 314 313 309 307 308 311 312 312 311 310 311 311 311 311 309 303 304 303 303 302 302 299 300 298 296 296 296 295 294 294 292 291 291 290 289 288 288 288 288
315 318 317 317 317 317 317 316 315 314 313 315 313 312 311 311 312 312 311 311 308 304 303 305 303 303 302 298 298 298 297 297 296 294 292 291 291 290 289 287 287 287 287 287
309 316 316 318 316 314 316 315 315 314 314 315 315 315 313 312 312 311 311 311 311 308 307 305 302 300 300 300 301 299 297 296 295 292 291 291 289 289 287 286 285 285 285 285
308 310 313 316 312 311 313 315 315 314 314 315 316 314 307 306 307 310 309 302 303 303 302 301 300 301 299 301 302 299 299 298 294 292 291 290 289 287 285 284 283 283 283 282
307 308 309 311 310 313 311 312 313 314 314 313 307 301 299 296 297 301 301 300 298 298 298 299 299 299 299 300 300 300 299 296 292 291 290 288 287 285 283 282 281 281 281 280
301 306 308 309 309 309 311 305 304 306 307 299 298 296 295 294 293 301 295 293 295 296 297 297 298 298 297 295 294 297 296 293 290 289 288 287 285 283 281 280 280 279 278 278
295 295 299 300 302 306 300 295 294 299 309 297 295 295 294 293 292 292 293 294 296 297 297 297 297 297 296 295 291 291 289 288 288 288 287 285 283 282 280 279 278 278 278 277
286 287 293 296 297 300 294 294 294 300 295 294 293 292 291 291 292 292 292 295 294 295 295 295 295 294 295 293 292 290 288 287 287 288 287 284 283 281 280 279 277 276 276 275
288 291 290 292 290 296 292 291 288 289 292 294 291 291 292 290 290 291 292 290 289 290 291 292 292 293 294 294 292 290 288 290 288 287 285 282 280 279 278 277 275 275 274 274
287 289 286 293 293 291 291 290 290 293 289 289 289 289 286 288 288 287 285 285 285 286 287 288 290 291 292 293 292 288 290 289 286 284 281 279 278 277 276 275 273 273 273 273
288 288 287 287 288 288 288 288 289 289 288 287 285 284 284 284 282 282 282 282 282 283 284 284 284 286 287 289 291 291 290 289 285 282 279 277 276 274 274 274 273 273 273 273
287 288 287 288 289 288 288 287 286 286 285 284 283 282 281 280 280 280 279 279 280 279 279 279 279 279 279 281 286 289 291 287 282 279 277 275 274 273 273 273 273 273 273 274
289 288 288 288 288 288 288 288 285 285 283 281 280 279 279 279 278 278 277 278 277 276 276 275 275 275 276 277 279 280 284 286 281 278 276 274 274 272 272 272 272 274 274 274

GFSCGP_925_thetae_003.txt.gz
Theta_e
309 309 310 310 309 310 308 308 308 308 308 311 310 311 311 311 310 311 311 308 310 309 310 310 310 309 308 307 305 304 302 300 299 299 298 298 298 298 298 298 298 296 295 295
309 310 310 309 308 309 309 310 311 311 310 308 309 310 309 308 310 310 311 311 310 310 309 308 306 307 307 308 305 302 301 300 299 299 298 297 296 297 298 298 297 296 295 294
312 311 309 309 309 310 309 310 311 311 309 307 306 311 309 307 306 308 309 309 309 309 309 309 303 303 306 305 305 303 301 300 298 298 297 297 296 296 296 296 297 296 295 293
309 309 310 309 309 309 312 308 310 310 310 312 308 312 310 309 309 308 308 308 307 308 308 306 304 300 304 306 304 302 300 299 298 298 297 296 296 295 295 295 296 295 294 293
308 310 309 310 311 308 311 308 308 308 308 309 310 309 311 309 309 307 307 307 307 307 306 306 302 302 305 304 303 301 299 298 298 298 298 297 296 296 296 295 294 295 294 293
307 305 307 308 308 307 307 309 307 306 307 312 310 310 313 308 309 309 308 307 306 305 305 301 301 303 301 301 301 299 298 297 297 297 297 296 296 295 295 293 293 293 293 292
306 306 306 307 309 307 308 309 310 309 309 313 308 308 313 310 308 307 309 305 305 303 302 305 301 299 297 296 297 297 297 296 296 296 296 296 296 296 295 294 292 291 291 291
308 314 306 305 307 308 307 308 311 311 312 314 304 309 313 309 307 306 305 305 303 303 303 300 301 298 297 296 295 295 295 295 296 296 295 296 296 295 294 294 293 292 292 290
307 308 306 305 306 307 306 308 308 311 305 311 311 309 309 307 308 308 306 303 304 303 302 300 299 297 297 296 295 295 295 296 295 295 295 295 294 294 294 294 293 293 292 292
308 309 307 306 306 306 307 307 310 308 312 313 310 310 312 311 311 308 306 304 305 304 302 301 299 297 297 298 297 296 297 296 297 296 295 295 295 295 294 294 293 292 292 291
308 312 314 310 308 313 306 307 307 309 312 314 315 315 313 313 307 306 308 307 306 303 303 302 301 300 299 299 298 298 298 298 297 297 296 295 295 295 293 293 293 292 291 291
312 316 320 317 309 307 307 309 309 311 313 311 313 315 312 313 309 310 311 311 308 303 305 303 301 300 300 299 299 300 300 297 298 297 295 295 294 293 292 293 293 292 291 290
315 316 320 318 313 311 313 314 312 313 311 312 314 314 311 312 312 311 310 306 305 304 303 302 300 300 301 302 301 300 298 298 298 296 295 294 293 293 293 292 291 290 290 290
313 317 319 321 317 314 316 313 312 313 315 314 313 312 311 311 311 311 310 307 304 300 300 299 298 298 299 300 300 299 299 299 298 297 295 294 293 294 293 291 290 290 289 289
312 315 314 314 314 315 316 315 316 316 313 314 315 315 314 313 306 300 302 298 297 296 296 296 298 297 298 299 300 299 299 298 298 297 294 294 294 293 292 291 290 289 288 288
306 308 309 311 308 309 312 312 311 311 309 310 310 310 295 294 293 294 294 292 292 293 294 295 296 296 297 297 297 296 296 296 297 296 295 295 293 292 291 290 289 288 287 286
303 305 306 306 304 304 304 304 304 305 306 306 307 295 293 292 291 291 292 291 292 293 294 295 295 296 297 296 295 295 293 293 293 293 295 294 293 292 290 289 287 285 284 283
302 301 302 302 299 299 298 301 304 303 298 296 295 294 292 291 290 290 293 290 292 293 296 296 297 295 295 294 294 292 291 292 290 291 292 293 292 290 289 287 285 284 283 283
300 301 299 292 291 297 299 297 295 296 296 294 293 293 291 290 289 290 289 290 291 293 293 293 292 293 293 292 293 292 290 291 290 290 288 289 289 288 286 284 283 282 282 281
293 296 294 286 294 298 297 292 294 292 298 293 293 292 291 290 288 287 289 290 292 290 288 288 289 289 290 290 292 291 291 290 290 287 289 289 288 287 284 283 282 281 281 280
281 280 283 279 284 287 289 289 289 287 288 287 292 290 289 289 289 289 289 289 288 286 285 285 285 286 287 289 288 290 290 290 290 290 286 287 286 285 283 282 281 280 279 278
286 280 279 276 280 287 289 288 288 286 287 289 289 289 289 289 287 287 288 286 283 283 282 282 284 284 283 283 285 286 287 289 289 289 289 284 284 283 281 280 279 278 277 276
285 286 282 285 286 290 289 288 289 288 289 288 288 288 288 286 284 285 283 281 281 281 281 280 281 279 279 280 280 280 280 282 287 287 286 286 282 280 280 279 277 276 275 275
287 287 288 286 289 288 288 288 287 287 288 288 287 285 284 283 283 281 280 280 280 279 279 279 278 277 277 276 276 277 277 279 279 282 284 283 281 279 277 277 276 275 274 275
287 287 287 288 288 288 288 288 288 287 285 285 283 282 281 281 280 279 279 278 278 277 277 277 276 275 274 274 273 274 274 274 275 277 281 281 279 278 276 275 275 275 276 276
288 288 288 288 288 288 288 288 285 284 284 281 279 279 279 278 278 277 276 276 276 275 275 274 273 272 271 271 271 271 270 271 272 274 276 280 278 276 275 275 274 276 276 276

GFSCGP_925_thetae_006.txt.gz
Theta_e
308 308 309 310 307 309 307 306 306 306 307 308 309 309 309 308 307 309 309 309 308 309 308 309 309 309 309 307 305 304 303 301 301 301 301 300 301 302 301 299 298 298 298 297
308 309 309 309 308 308 308 308 309 309 308 307 308 309 309 309 309 309 309 310 309 308 307 307 306 307 307 308 306 303 303 301 300 299 299 299 299 299 301 299 298 298 297 297
310 310 308 308 308 309 307 308 310 309 308 306 305 309 307 307 306 307 307 308 305 305 307 307 304 304 306 305 305 304 303 301 299 299 298 298 298 297 297 297 298 298 297 297
308 308 309 308 308 308 310 307 308 309 308 310 307 312 308 308 307 307 307 304 304 304 303 302 302 301 304 307 306 304 301 299 299 299 298 297 297 296 297 296 297 298 297 296
308 309 309 309 309 307 310 308 307 307 308 307 309 308 311 307 308 307 306 306 304 303 302 302 301 302 305 305 304 303 302 300 298 298 298 297 297 297 297 296 296 296 296 296
307 305 306 307 306 306 307 308 306 305 306 310 309 308 313 308 309 309 307 309 304 303 302 300 301 302 302 301 300 301 300 298 297 297 297 297 296 296 296 295 295 294 294 295
307 306 306 306 308 306 307 307 309 309 309 312 307 307 311 310 309 307 306 305 304 302 300 300 300 298 299 298 297 296 296 296 297 296 296 296 296 297 297 296 294 293 293 293
311 321 306 304 307 308 306 308 310 314 310 314 303 310 315 310 307 305 303 303 303 302 301 300 300 297 297 297 296 296 296 296 296 296 296 296 296 295 295 296 295 294 294 295
309 312 305 304 305 306 306 308 308 311 311 311 312 309 309 310 307 306 306 304 303 303 301 301 300 298 298 297 296 297 296 297 297 296 296 296 296 296 295 295 295 295 295 294
310 312 307 306 305 305 306 306 310 308 314 315 311 311 313 311 312 308 305 304 304 302 301 300 300 299 298 298 297 295 296 296 297 297 296 296 296 296 295 295 295 295 295 294
306 311 313 313 309 311 310 307 306 307 311 317 318 315 310 312 311 307 305 307 305 301 300 299 298 298 298 299 298 298 297 296 296 295 294 294 294 294 294 294 294 294 293 293
307 318 320 315 311 308 307 312 311 314 314 311 313 314 310 309 310 306 302 300 300 298 296 297 296 297 297 297 298 298 297 297 297 297 295 295 295 294 294 293 293 293 293 293
315 317 318 316 311 309 315 314 314 315 314 318 319 317 311 309 303 300 297 294 294 294 294 294 295 295 296 296 296 296 295 295 295 295 296 296 295 294 294 294 293 292 291 292
311 314 316 317 314 313 316 314 314 315 318 316 315 314 312 301 297 294 294 291 291 291 293 293 294 295 295 295 295 294 294 293 292 293 293 293 294 294 294 294 292 291 290 290
310 314 313 312 314 312 311 310 309 310 311 313 311 312 307 294 293 293 293 292 291 291 293 294 295 295 295 294 294 293 293 292 291 291 291 292 292 293 293 292 293 291 290 290
305 307 305 305 303 302 305 305 305 306 305 306 307 305 292 292 291 292 292 292 291 291 293 295 293 295 293 292 292 291 292 291 290 290 290 290 290 291 292 292 291 291 289 288
302 304 303 303 301 301 301 300 302 302 302 300 301 294 291 291 290 289 290 293 290 290 292 294 291 291 290 291 292 290 290 291 289 289 289 289 289 289 290 290 290 289 288 287
300 300 300 302 297 299 297 297 297 298 296 294 294 291 290 291 289 289 292 289 289 290 292 291 288 288 288 287 288 288 289 288 289 289 288 288 287 287 288 289 288 288 286 285
297 298 295 295 288 294 296 293 293 296 295 292 292 292 292 290 289 287 287 288 289 288 291 287 286 286 286 285 286 287 284 285 287 288 288 287 286 286 287 287 287 286 285 284
292 296 297 285 292 288 294 290 291 293 292 288 289 290 290 289 287 286 287 288 288 289 287 284 284 284 284 283 285 282 282 284 284 285 285 285 285 286 285 285 285 284 283 283
280 277 287 284 281 284 287 288 288 286 287 284 287 289 288 288 286 287 287 286 286 286 283 282 282 281 281 283 281 280 281 281 281 280 280 283 285 286 286 283 283 283 282 281
287 281 277 273 277 282 288 288 286 285 286 285 286 289 289 288 287 287 285 284 284 282 281 281 280 280 280 280 278 279 279 279 278 277 278 280 280 283 283 283 281 280 280 279
285 286 281 283 283 288 289 288 289 287 286 286 288 289 287 287 287 285 283 283 282 281 280 280 279 278 278 278 277 276 276 275 275 275 276 276 277 279 281 281 279 278 278 277
287 287 288 288 288 288 288 288 287 287 287 287 287 287 286 286 284 282 282 281 280 280 279 278 277 277 276 276 275 275 274 273 273 272 272 273 274 276 280 279 279 278 277 277
288 286 286 287 288 288 288 288 288 288 287 285 284 283 282 281 280 280 279 278 278 277 277 276 276 275 274 274 273 272 271 270 270 270 270 270 272 274 277 279 278 278 278 278
288 288 288 288 288 288 288 288 285 285 284 280 279 279 279 279 278 277 276 276 275 275 274 274 273 272 271 271 270 269 268 267 267 267 267 268 270 272 274 278 278 278 279 278

GFSCGP_925_thetae_009.txt.gz
Theta_e
307 308 309 309 307 307 307 306 305 307 307 307 309 309 308 308 307 308 309 309 309 308 308 307 307 308 308 308 307 306 305 303 304 306 306 305 306 307 308 309 307 306 302 298
307 309 309 307 306 307 307 308 309 308 307 305 307 309 309 309 309 309 309 309 308 306 307 307 306 307 307 307 307 305 304 302 302 303 304 303 303 302 304 305 305 304 301 298
309 310 307 308 308 308 307 308 309 308 306 305 305 308 307 308 306 306 307 306 305 305 305 304 304 304 304 305 306 306 304 302 301 301 301 301 301 300 299 300 301 301 301 298
307 307 308 308 309 307 309 307 307 307 308 310 307 311 307 309 308 307 306 305 304 304 304 302 300 302 302 302 302 303 302 302 299 299 299 299 299 298 298 298 298 300 299 298
309 307 308 309 309 306 309 307 308 307 307 307 307 307 309 307 308 307 307 307 306 303 302 303 301 301 300 299 300 300 300 299 298 298 298 298 298 298 298 298 297 297 297 297
306 304 306 307 306 306 305 307 304 304 306 310 309 308 311 307 309 308 307 307 304 303 302 304 301 300 298 298 297 297 297 297 297 297 297 297 297 297 296 296 296 296 296 295
307 305 306 306 308 305 308 308 310 310 309 313 306 307 311 309 309 308 308 305 302 302 302 301 300 298 296 295 295 296 295 295 295 296 296 296 296 296 297 296 295 294 293 294
313 320 307 304 308 310 306 308 313 315 314 316 302 313 317 306 308 306 303 301 303 302 299 298 298 297 297 295 294 295 295 295 295 295 295 295 295 295 296 296 296 296 295 295
310 311 306 303 304 306 306 308 308 311 309 313 312 310 312 311 306 304 303 301 299 298 298 297 297 296 297 296 295 294 295 295 295 295 295 295 295 295 295 295 295 295 295 294
310 319 310 307 304 304 305 306 310 308 313 315 313 313 314 311 306 303 302 300 297 295 295 295 296 295 295 296 295 295 294 293 293 294 294 294 294 294 294 294 295 295 295 295
307 311 313 311 307 307 306 306 306 307 311 315 318 316 309 305 303 301 297 295 293 293 293 294 294 295 295 294 294 293 293 293 292 292 293 293 293 294 294 293 294 294 294 294
306 314 316 313 310 308 309 311 311 317 318 313 317 319 310 300 298 295 292 292 292 292 293 293 293 294 295 294 293 292 292 292 291 292 292 292 292 292 292 293 293 293 293 293
315 316 318 316 312 310 314 314 313 314 313 317 318 317 307 300 298 296 293 291 291 291 292 293 293 293 295 292 292 292 291 291 290 290 290 292 292 291 290 290 291 291 291 292
311 313 316 317 312 313 314 313 311 313 316 314 315 314 310 298 295 294 294 292 291 291 291 293 293 292 293 290 290 291 290 290 289 288 289 289 289 290 292 291 291 291 291 289
310 312 312 311 309 308 306 306 305 305 306 308 308 306 306 293 292 292 291 293 291 289 290 291 293 290 289 288 288 288 288 288 288 288 288 288 288 287 288 291 290 290 289 289
304 309 304 303 304 302 303 301 301 301 302 303 304 305 292 291 291 290 289 292 291 288 289 290 293 289 288 287 287 286 286 287 285 286 288 287 287 286 285 287 289 290 289 289
303 304 302 304 301 299 300 299 299 299 299 299 300 293 288 289 290 288 288 292 289 288 288 288 291 287 286 285 285 285 285 284 283 284 285 286 285 284 284 285 287 289 288 288
301 300 299 301 291 299 297 295 297 297 294 291 290 288 289 290 291 289 289 291 287 288 288 288 289 286 284 284 284 283 284 282 282 283 283 283 282 281 283 284 284 286 286 285
297 297 294 298 295 295 295 294 294 295 293 290 289 289 290 291 289 288 287 287 286 287 287 287 288 285 283 283 282 282 283 281 280 281 281 280 279 279 283 283 283 283 284 284
293 295 297 287 291 286 292 290 291 290 289 286 284 284 285 288 287 287 285 285 286 286 286 286 285 283 282 281 281 281 282 279 279 280 279 278 277 278 281 280 281 281 282 283
278 280 294 294 295 287 286 287 288 285 286 284 284 286 286 288 288 287 286 285 285 285 285 285 283 281 281 280 279 279 279 278 278 278 277 276 275 276 277 277 279 280 280 281
288 281 275 273 280 287 286 287 287 286 286 285 286 287 286 287 288 288 287 286 285 283 283 282 281 280 280 279 278 278 278 278 277 276 275 274 273 273 274 274 276 279 280 280
287 286 283 283 283 287 287 288 288 288 287 287 286 287 286 287 288 287 285 283 282 282 281 280 279 279 278 277 277 276 276 275 274 273 272 272 271 271 271 272 274 276 279 278
286 285 286 288 288 287 288 288 287 287 287 287 286 285 285 286 285 283 281 281 281 280 279 278 277 276 276 275 275 274 273 272 271 270 270 269 269 269 269 270 272 274 278 279
288 286 285 287 288 288 287 287 287 287 287 285 284 283 282 281 280 279 279 278 278 276 276 275 274 273 273 272 271 270 269 268 268 267 267 267 267 267 268 268 270 273 276 278
289 288 288 288 288 288 288 288 285 286 285 280 279 279 279 278 277 276 275 274 274 273 272 270 269 269 268 267 266 266 265 265 265 264 264 264 265 265 265 266 268 269 272 276

GFSCGP_925_thetae_012.txt.gz
Theta_e
312 314 315 316 315 315 313 313 314 314 314 313 313 313 313 313 313 313 313 314 314 314 313 311 310 308 308 308 308 307 307 306 309 311 313 314 314 313 312 312 310 309 307 307
312 314 315 312 312 312 313 314 314 314 313 310 313 313 313 313 313 314 314 313 313 313 311 310 308 307 306 306 306 306 305 305 306 309 311 311 311 311 310 310 308 307 305 305
315 315 312 311 313 313 313 314 315 315 313 312 312 316 314 314 312 313 311 312 311 310 310 308 307 304 303 302 302 302 303 303 303 306 308 308 304 306 307 307 306 304 304 302
313 310 310 311 312 313 314 314 312 312 312 318 311 319 318 316 314 312 312 312 311 310 308 305 303 302 300 299 299 300 300 301 301 303 304 305 304 304 303 303 303 303 302 301
313 311 310 312 313 311 314 309 310 310 313 312 315 314 319 312 314 313 313 310 310 307 304 303 302 301 299 298 297 297 298 298 299 300 301 301 302 303 303 301 302 301 300 299
312 306 309 311 309 309 308 310 310 311 312 318 317 315 317 315 313 312 309 308 305 304 303 302 301 300 299 297 297 296 296 296 296 297 299 299 300 301 301 299 300 300 298 297
314 310 308 307 310 308 309 312 322 322 321 321 313 313 315 315 311 308 308 305 303 302 302 301 300 299 298 297 297 296 296 295 295 295 296 297 298 298 299 299 299 299 298 296
320 322 311 308 313 319 312 314 320 323 323 320 310 316 316 312 308 306 305 303 302 301 301 300 299 298 297 296 295 296 295 295 295 295 294 294 295 295 296 297 297 298 297 297
321 320 308 306 307 311 312 313 313 317 318 319 317 316 316 313 308 307 304 302 299 298 298 298 298 297 296 295 294 294 293 293 294 294 294 294 294 294 294 295 294 295 295 295
314 319 316 312 306 307 310 311 314 312 317 320 315 315 316 312 310 305 302 299 298 296 296 296 296 296 295 294 294 292 293 292 291 292 293 293 293 292 292 293 293 293 293 293
312 316 318 312 313 314 311 309 309 310 313 319 320 317 312 311 305 303 299 296 295 295 295 295 294 295 294 292 293 292 291 291 290 290 291 292 292 292 292 292 292 292 292 291
315 315 318 316 314 309 310 312 311 314 316 314 315 316 306 303 300 297 295 294 294 293 293 294 294 293 293 291 291 291 290 290 289 289 289 289 289 289 289 291 291 291 291 291
315 316 318 316 314 312 316 316 315 315 314 320 321 319 306 301 299 298 296 294 293 291 290 292 294 291 290 289 289 289 289 288 288 287 288 288 288 286 286 287 288 290 290 290
310 313 316 315 315 314 317 315 311 312 315 315 316 315 312 309 303 297 294 294 293 290 290 290 292 291 290 289 288 287 287 287 286 286 287 287 287 287 285 284 285 286 288 289
310 313 311 310 311 310 311 310 308 308 308 309 308 308 307 306 301 293 291 291 292 289 289 289 290 292 289 288 287 286 286 286 285 284 286 286 286 285 284 284 284 284 284 287
305 307 306 306 306 307 307 307 306 305 304 304 303 303 302 293 292 291 289 290 292 289 289 289 289 289 290 288 286 286 285 285 285 283 283 284 284 283 282 282 283 284 284 284
303 304 304 305 304 303 304 303 301 301 301 301 301 299 293 291 291 291 290 290 291 289 288 289 289 288 289 288 286 285 284 284 284 282 282 282 282 281 281 280 282 283 283 283
299 301 302 302 301 301 300 298 298 298 299 296 294 292 293 290 290 292 290 290 291 289 289 289 288 288 288 287 285 284 284 283 283 282 281 281 281 280 279 279 281 282 281 282
297 298 299 300 300 299 298 296 296 297 297 295 293 290 289 289 291 290 291 290 290 289 289 288 288 287 286 285 284 283 282 282 282 282 281 281 280 279 278 277 278 279 279 281
293 296 296 296 296 295 294 291 292 291 294 293 290 290 289 289 289 289 290 289 289 288 288 287 286 286 285 284 283 281 281 280 280 280 280 279 279 277 276 276 276 277 278 278
290 292 295 296 296 295 293 290 291 292 293 292 290 290 290 289 290 290 289 289 288 288 287 286 285 284 283 282 281 280 280 279 279 278 278 277 277 276 275 274 274 275 275 275
290 291 291 287 291 292 290 289 290 291 291 291 290 289 289 289 289 289 289 289 289 287 285 284 283 282 281 279 278 278 278 277 276 276 275 275 274 273 273 273 272 272 273 274
290 291 291 289 291 290 290 291 291 291 291 291 290 290 289 289 288 288 288 288 285 284 282 281 279 278 277 276 275 275 275 274 272 272 271 271 271 270 270 270 270 271 271 272
290 290 290 290 290 290 290 290 290 290 290 290 289 289 288 288 287 286 284 283 281 280 278 277 275 274 273 272 271 271 270 269 268 267 267 267 267 267 267 268 268 269 270 271
290 289 289 290 290 290 290 290 290 290 290 289 287 285 284 283 283 281 280 278 277 275 274 273 271 270 270 269 268 267 266 265 264 264 264 264 265 265 265 265 266 267 268 269
291 290 290 290 290 290 290 290 290 289 288 285 282 281 280 278 278 276 276 274 273 272 270 269 268 267 266 265 265 264 264 263 263 263 263 264 264 264 264 264 264 265 266 268

GFSCGP_925_thetae_015.txt.gz
Theta_e
314 315 316 318 318 317 317 317 318 317 317 318 317 316 316 316 317 317 317 317 316 314 312 310 307 306 306 306 306 307 308 310 310 313 316 318 319 320 319 319 318 317 315 312
314 315 316 317 315 315 316 317 317 317 317 314 315 316 316 317 316 317 316 315 314 313 310 307 305 304 303 302 303 303 305 307 308 310 313 314 316 317 317 316 316 315 314 311
317 319 316 315 316 316 316 316 316 317 316 316 317 318 320 318 319 317 314 313 312 309 308 307 305 303 302 301 301 301 302 303 305 307 309 311 312 309 311 312 313 312 311 310
317 316 314 314 315 315 316 316 315 315 316 320 316 320 318 319 318 314 313 312 309 308 307 306 304 302 301 300 300 300 300 300 301 303 306 307 308 307 308 307 309 309 308 308
316 314 313 315 315 315 316 312 313 314 317 318 318 320 319 318 317 316 312 310 308 307 305 304 303 301 300 299 299 299 298 298 299 300 301 303 303 304 305 304 303 305 305 304
314 309 311 314 312 312 311 312 314 315 317 322 319 318 318 316 315 312 310 308 307 306 304 303 302 300 299 299 298 298 298 298 298 297 298 299 300 301 302 303 302 302 303 303
318 316 312 309 313 311 311 314 322 323 325 326 319 317 317 316 315 312 310 307 305 304 304 303 302 300 298 297 297 296 295 296 296 297 297 296 296 297 298 299 300 300 301 301
320 320 316 311 314 316 317 318 322 324 325 325 320 320 318 313 310 309 307 305 303 302 302 301 300 298 298 297 295 296 294 293 294 295 295 295 295 295 296 296 296 297 299 299
319 319 317 311 312 312 315 316 314 319 319 322 320 317 315 314 310 308 305 303 301 300 300 299 299 298 296 296 294 294 293 292 292 293 294 294 293 294 294 294 294 294 294 295
316 318 315 314 310 313 313 316 321 318 322 320 315 315 315 314 314 307 304 301 300 299 298 298 296 297 295 294 294 292 292 291 290 290 290 291 291 291 291 293 293 293 293 293
314 317 317 315 315 315 314 313 312 313 314 318 319 317 312 313 310 306 301 299 298 297 296 297 295 294 293 291 291 291 290 289 288 289 289 289 289 288 287 288 288 290 291 291
314 315 316 314 313 314 315 315 315 319 319 316 316 317 313 307 304 301 298 297 296 295 292 293 294 292 291 290 290 289 289 288 288 287 288 288 288 286 286 285 285 285 286 289
314 315 315 313 309 313 315 314 316 316 316 318 319 317 309 304 303 301 300 298 296 293 292 292 293 292 290 290 289 288 288 287 287 286 286 287 287 287 285 284 284 284 284 284
311 311 313 313 310 311 313 313 315 315 315 315 315 312 310 310 307 304 301 297 296 293 291 291 291 291 291 289 288 288 287 287 287 286 285 286 286 286 285 283 283 283 284 284
308 310 308 308 307 307 308 308 307 308 309 310 309 309 308 306 305 301 297 294 294 292 290 290 290 290 290 290 289 288 287 287 286 286 285 285 285 284 283 283 282 282 283 284
304 306 305 304 303 303 305 305 305 306 307 307 305 305 303 297 295 295 293 292 292 293 290 290 290 289 289 289 289 288 287 287 286 284 284 283 283 283 283 282 281 281 283 284
301 301 302 302 301 301 302 301 301 302 303 303 303 301 295 296 294 293 293 291 290 291 290 289 290 289 289 288 288 288 287 286 285 284 284 283 283 282 282 281 281 280 280 282
299 300 301 300 299 300 298 298 298 298 298 299 299 295 293 291 291 291 292 292 291 290 291 290 289 289 289 288 287 286 285 284 283 283 283 283 283 282 281 281 280 279 279 280
296 297 299 299 299 298 297 296 296 296 296 297 297 291 290 290 290 291 291 291 290 290 290 290 289 289 288 287 286 284 283 282 282 281 281 281 281 281 280 280 279 278 278 278
293 295 298 298 297 296 294 294 293 293 294 296 293 290 290 290 290 290 291 291 290 289 289 290 289 287 286 285 284 281 281 280 280 280 280 279 279 279 279 278 278 277 277 276
293 295 297 297 297 296 297 293 292 294 295 295 292 291 291 290 291 291 291 290 290 290 289 288 287 285 284 282 280 279 279 278 277 277 276 275 275 275 275 275 275 275 275 274
291 293 294 293 292 292 292 291 292 293 292 293 291 291 291 291 291 290 290 290 289 289 287 285 283 282 280 278 277 276 275 275 273 272 271 270 270 270 270 270 271 271 271 271
291 292 292 293 292 292 291 292 293 293 293 292 292 291 291 290 289 289 289 289 288 285 282 280 278 277 276 275 273 273 272 271 269 268 267 266 266 266 266 267 267 268 268 269
292 291 291 292 290 291 292 292 292 292 292 291 291 291 290 289 289 288 287 285 283 280 278 276 275 274 273 271 271 270 268 267 266 265 265 264 264 264 264 265 265 266 266 267
293 291 291 291 291 291 291 291 291 291 291 291 290 289 288 287 286 285 283 280 278 277 275 273 272 271 270 269 268 267 266 265 264 264 264 264 264 264 264 265 265 265 265 265
292 292 292 292 291 291 291 291 291 291 290 290 289 286 282 281 281 279 278 276 275 273 272 270 269 268 268 267 266 265 264 264 263 263 263 263 263 263 264 264 264 265 266 267

GFSCGP_925_thetae_018.txt.gz
Theta_e
314 314 315 315 314 315 316 316 316 316 315 315 315 314 313 314 314 314 313 311 309 307 306 304 303 302 301 301 302 303 305 307 309 312 315 317 320 321 322 322 322 321 320 318
314 315 315 316 316 315 315 315 315 315 315 315 314 314 314 315 315 315 313 309 308 306 305 304 302 301 300 300 300 300 301 304 305 308 312 314 315 317 318 319 319 318 318 317
316 317 317 316 315 316 315 315 315 315 315 314 314 315 316 316 316 312 310 307 306 305 304 302 301 300 300 300 299 299 299 301 303 305 308 310 311 311 311 313 313 314 315 314
316 316 315 316 315 315 316 315 315 314 314 316 315 318 317 316 312 311 308 306 305 304 303 302 301 300 299 299 299 298 298 298 299 302 303 304 305 306 306 307 307 308 310 312
318 314 313 315 315 315 316 312 312 313 313 316 317 317 316 315 312 311 308 307 304 302 302 301 300 298 298 297 296 297 297 297 297 297 298 299 300 301 301 303 303 302 304 306
313 309 311 314 312 313 310 312 312 312 314 318 317 318 316 313 312 310 307 305 304 302 301 300 299 298 297 297 295 294 295 296 296 296 296 296 296 297 298 299 299 300 301 302
315 313 311 310 312 311 311 313 318 320 319 320 317 317 316 314 311 310 307 304 302 301 300 299 297 297 296 295 295 294 292 293 294 294 294 294 295 295 295 295 295 296 297 299
319 319 313 310 313 315 315 317 320 321 316 317 315 318 316 310 308 306 304 302 300 299 298 298 297 296 296 294 293 293 291 291 291 291 292 291 292 293 293 294 294 294 294 294
317 317 313 311 312 312 314 315 315 317 313 317 316 315 315 310 307 304 302 300 299 298 297 296 298 295 294 294 292 291 290 289 289 289 289 288 287 288 288 288 289 291 292 292
316 317 315 311 310 311 314 312 319 317 321 320 316 313 312 312 308 304 302 299 298 297 296 295 294 294 292 292 291 290 289 288 287 288 288 287 286 286 285 285 285 285 285 289
314 316 315 314 314 314 312 312 313 313 314 316 314 311 309 309 307 303 300 299 297 296 293 295 293 291 291 290 289 289 288 288 287 286 287 287 286 286 285 284 284 284 285 285
314 316 313 314 311 311 312 314 314 317 315 314 316 316 305 302 300 300 298 298 296 294 291 293 293 291 290 289 289 288 287 287 287 286 285 287 286 285 285 284 284 284 284 284
313 313 310 306 306 312 315 312 312 313 313 314 316 311 306 303 301 301 301 300 298 295 292 291 290 291 290 289 288 288 288 287 287 286 286 285 285 285 285 284 283 283 283 284
310 310 307 306 304 307 306 306 308 311 311 308 309 309 309 307 306 304 301 299 296 294 291 290 289 289 289 290 289 288 288 287 287 286 285 285 284 284 284 283 283 283 283 282
308 304 308 308 308 306 304 304 304 305 306 307 305 304 303 303 299 296 294 293 294 293 290 289 289 289 289 289 289 289 288 287 287 286 285 284 284 283 283 282 282 282 281 281
304 299 303 299 302 302 302 301 301 301 301 301 301 301 300 295 294 295 294 292 291 290 291 289 289 289 289 289 288 288 288 288 287 286 285 283 282 282 282 282 282 282 281 281
300 297 292 294 298 298 293 297 298 298 299 299 299 297 292 294 294 291 290 290 290 290 289 289 288 289 289 288 288 287 287 286 285 285 283 282 282 282 282 282 282 281 280 280
298 293 292 290 289 291 294 296 295 295 296 295 295 290 291 290 289 290 290 290 290 290 289 289 289 289 289 288 287 286 285 283 283 282 282 281 281 281 281 280 280 279 279 279
295 297 292 289 287 293 295 294 294 294 293 294 294 292 289 289 289 288 289 289 289 289 288 289 289 288 287 286 284 283 282 280 280 280 279 279 279 278 278 277 277 277 277 277
293 294 293 288 289 287 292 293 293 292 291 288 288 286 288 290 287 287 290 289 289 289 289 289 288 287 285 283 281 280 278 278 277 277 276 275 274 273 273 273 273 273 273 273
286 286 292 293 292 290 292 290 292 288 290 288 287 288 289 288 288 288 288 288 289 289 288 287 285 283 282 280 278 276 275 275 274 273 271 270 269 269 268 268 268 268 268 269
290 287 285 285 286 291 290 290 290 289 292 290 290 289 289 288 288 288 287 287 288 286 284 282 281 279 278 277 275 273 273 272 270 269 268 267 266 265 265 265 265 265 265 266
288 290 287 289 288 291 290 290 290 291 289 290 290 289 288 288 288 287 287 287 285 282 280 279 277 276 275 273 272 271 270 269 268 266 265 265 264 264 264 264 264 264 264 265
289 289 289 288 289 290 290 289 289 289 289 289 288 287 288 288 287 287 286 284 282 280 278 276 275 273 272 271 270 269 268 267 266 264 264 264 264 263 263 264 264 264 264 264
290 289 289 290 290 290 290 290 290 289 289 287 287 287 287 286 286 285 282 279 279 277 275 273 272 270 270 269 268 267 266 265 264 264 263 263 263 263 262 263 263 264 264 265
291 291 290 290 290 290 290 289 289 289 288 288 287 286 283 283 282 280 278 277 275 274 272 270 269 268 268 267 266 266 265 264 264 263 263 263 262 262 262 262 263 264 265 266

GFSCGP_925_thetae_021.txt.gz
Theta_e
311 310 311 310 310 311 312 314 314 312 312 313 313 312 311 311 310 310 305 305 304 303 301 300 299 299 298 298 299 300 303 305 309 313 314 316 319 320 322 323 322 323 323 323
311 312 311 311 312 313 313 314 313 312 313 314 312 312 311 311 312 309 306 305 304 302 301 300 298 298 298 297 297 298 299 302 305 307 310 312 314 313 315 319 319 319 319 320
312 313 313 314 314 314 314 314 313 313 312 311 313 312 313 312 307 307 305 304 303 302 300 299 298 297 296 297 297 297 297 299 301 303 306 307 309 308 307 308 310 314 315 315
312 312 313 313 315 313 315 312 313 313 312 313 313 314 313 312 308 307 304 302 301 300 299 298 297 296 295 294 296 296 296 296 297 299 300 300 298 299 300 302 303 305 307 311
316 312 312 313 313 311 313 310 311 312 311 313 313 314 313 310 310 307 304 302 300 299 298 297 296 296 295 294 293 294 295 295 295 296 296 296 296 297 298 298 299 300 301 304
311 308 310 311 311 311 309 310 310 310 311 314 314 315 314 310 310 307 304 302 300 298 297 297 296 295 294 293 292 292 292 293 293 293 293 294 294 294 294 295 295 296 297 298
312 311 310 310 311 310 310 311 316 315 313 316 314 314 314 310 308 307 303 300 298 297 296 295 294 294 293 292 291 290 290 290 290 289 290 290 291 291 290 291 292 293 293 294
317 318 311 309 311 312 311 315 316 318 315 312 313 315 314 305 303 301 300 298 297 296 296 295 294 294 293 292 291 289 288 288 288 288 287 286 286 286 285 286 286 286 287 290
315 316 311 310 311 312 313 314 313 315 306 312 314 313 308 304 302 300 299 298 297 296 294 295 294 293 293 291 290 289 287 287 287 287 287 286 286 285 285 285 285 285 285 285
314 316 313 310 310 311 314 313 316 314 313 314 314 313 312 307 303 300 299 297 296 295 294 292 292 291 291 290 290 289 288 287 286 286 286 286 285 285 285 284 284 284 284 284
313 315 314 312 313 313 311 311 312 314 313 314 310 310 308 307 302 300 298 296 295 293 292 292 290 290 290 289 288 288 287 287 286 286 285 285 285 285 284 284 284 284 284 284
313 314 311 313 310 308 310 311 312 313 312 309 313 313 305 302 301 299 298 297 294 293 290 294 291 290 290 289 288 288 287 287 286 286 285 285 285 284 284 284 284 284 284 284
313 311 305 305 306 311 313 311 310 311 312 313 314 309 303 300 299 298 297 296 295 292 290 290 291 289 289 288 288 288 287 287 287 286 286 285 284 284 283 283 282 282 283 283
310 311 305 306 301 307 306 305 304 308 304 303 305 304 303 303 302 301 300 299 297 293 290 287 287 288 289 289 289 289 289 288 288 287 286 286 285 284 283 282 282 282 281 281
307 304 307 307 307 305 305 304 303 303 303 304 302 301 301 300 297 296 292 297 295 293 289 288 287 287 288 289 288 288 288 288 288 288 287 286 285 284 282 281 281 281 281 280
305 300 302 298 302 302 302 301 301 301 300 299 299 298 298 294 294 293 291 290 290 289 289 287 287 287 288 288 288 288 288 287 287 286 286 285 284 281 281 280 280 280 280 280
299 296 291 294 298 296 293 296 296 297 297 297 297 296 290 294 293 289 289 290 289 289 289 288 286 287 288 288 288 287 286 286 285 284 283 281 280 280 280 279 279 278 278 277
298 293 288 287 286 289 293 293 294 295 294 292 292 288 288 289 288 289 288 288 288 289 288 288 288 287 287 287 286 285 284 283 282 280 278 278 278 278 277 276 275 274 274 274
297 296 289 290 283 289 293 293 293 293 291 290 290 290 289 288 288 287 288 289 288 288 288 287 288 288 286 285 283 282 281 279 277 276 276 276 275 273 272 271 270 270 270 270
293 295 294 279 289 288 290 292 291 290 291 286 285 287 286 288 286 285 287 288 288 288 288 287 287 285 284 281 280 279 277 275 274 274 273 271 270 269 269 268 267 267 267 267
283 282 294 294 288 287 289 288 290 287 289 283 286 286 287 287 286 287 287 286 288 288 287 286 284 282 280 279 278 276 274 273 272 271 269 268 267 266 266 265 265 265 265 265
289 286 284 280 280 289 289 289 290 288 290 288 288 288 288 288 287 287 286 286 286 286 284 282 281 280 278 277 275 272 272 271 269 268 267 266 266 265 264 264 264 263 263 264
288 289 285 288 287 289 288 288 289 289 288 289 288 288 287 288 287 287 286 285 285 284 282 280 279 277 275 273 272 270 270 268 267 266 266 265 265 264 264 263 263 263 263 264
288 288 288 287 288 289 288 288 288 288 288 288 287 287 287 287 286 286 285 284 282 280 279 278 276 275 272 271 269 268 267 267 266 265 265 264 264 263 263 263 262 262 262 263
289 288 287 288 289 288 288 288 288 287 287 287 286 285 286 286 286 285 284 281 280 278 276 275 274 271 270 269 268 268 266 266 265 264 264 263 263 263 262 262 262 263 264 264
291 291 290 290 290 289 290 289 288 288 288 287 286 286 285 285 285 282 279 279 277 275 273 272 270 269 268 267 267 267 266 265 264 263 263 263 262 262 262 262 262 263 265 266

GFSCGP_925_thetae_024.txt.gz
Theta_e
310 309 308 308 309 308 311 311 312 311 311 312 311 311 310 309 309 304 303 302 301 300 298 297 297 297 297 298 299 300 303 305 310 312 312 314 314 315 319 320 321 322 323 324
310 310 309 309 309 310 310 312 312 311 310 312 311 311 310 309 307 305 304 302 301 299 297 296 295 295 295 296 296 297 299 301 303 305 307 308 307 306 306 307 311 314 316 318
311 313 311 311 311 312 312 312 312 313 311 310 312 311 312 306 305 305 303 301 300 298 296 295 294 293 294 295 295 295 296 297 298 301 304 305 304 305 305 304 306 303 306 310
310 310 312 312 314 313 315 311 312 312 311 313 311 312 311 309 306 304 302 299 298 296 295 295 294 293 292 293 294 295 294 296 296 297 297 296 295 294 295 296 298 300 302 303
314 313 312 313 313 311 314 310 311 311 310 311 310 310 309 307 308 305 301 299 297 296 295 294 293 292 291 291 292 292 292 292 293 294 295 295 294 293 294 294 295 296 297 298
310 308 309 310 309 310 309 310 309 308 309 312 311 311 312 309 309 304 301 299 297 296 294 294 293 292 291 290 290 290 289 288 289 289 289 289 288 287 288 287 287 288 291 293
312 310 310 309 310 309 308 311 315 314 312 315 312 312 312 306 306 304 301 298 296 295 294 293 292 291 290 288 288 288 288 287 287 286 286 286 286 285 285 285 285 285 285 285
316 318 310 308 310 311 309 312 314 314 314 313 310 313 311 302 301 300 299 297 296 295 295 293 292 292 290 289 287 287 287 287 287 286 286 285 285 284 284 284 284 284 284 284
314 316 309 309 310 311 312 314 312 313 299 309 312 310 305 302 300 298 297 297 295 295 294 293 292 292 291 290 288 287 287 286 286 286 285 285 285 285 284 284 284 284 284 284
313 316 312 310 310 309 311 311 315 311 311 311 311 312 312 304 301 299 298 297 295 293 292 292 291 290 290 289 288 287 287 286 286 286 285 285 285 285 285 285 285 284 284 284
312 314 313 311 312 312 311 311 312 312 309 309 307 309 306 305 302 300 298 297 294 293 292 290 290 290 289 288 288 287 287 286 286 286 285 285 285 285 285 284 284 283 283 283
312 313 310 313 309 307 309 310 310 310 309 308 310 311 305 304 300 299 297 296 294 293 290 290 289 289 289 288 288 287 287 287 286 286 286 285 285 285 284 283 283 282 282 282
312 311 303 306 307 310 310 310 309 309 306 305 310 309 302 301 300 298 298 295 294 292 289 290 289 289 289 288 287 287 287 287 287 286 286 286 285 285 284 283 282 281 281 281
311 309 308 313 304 307 306 305 304 306 303 303 308 305 303 301 301 300 299 296 293 292 290 288 287 287 288 288 288 288 288 288 288 287 287 287 286 285 284 283 281 280 280 280
309 313 307 306 307 306 306 306 303 305 303 303 301 299 300 299 297 296 294 294 296 294 288 286 286 286 287 288 288 288 288 288 288 287 287 286 285 284 283 281 280 280 279 278
304 302 303 299 301 303 303 303 302 302 302 301 302 302 300 295 294 293 290 291 296 292 290 287 286 287 287 288 288 288 287 287 287 286 285 284 284 283 280 279 278 277 276 275
303 298 296 299 296 295 292 295 298 298 297 297 296 295 291 294 293 291 290 289 288 287 287 286 285 287 288 288 287 287 286 286 285 284 283 281 279 278 277 276 275 274 274 273
298 297 295 291 286 289 293 292 293 294 294 293 293 288 289 292 291 288 287 287 287 287 287 286 287 287 287 287 286 286 285 283 282 280 278 277 276 275 274 273 272 271 270 270
297 296 290 292 286 291 293 293 293 293 292 289 290 288 291 289 287 287 287 286 287 286 287 288 288 287 286 286 285 283 282 281 279 277 275 274 272 271 271 270 269 268 268 267
296 295 295 281 286 289 290 292 290 290 289 284 285 287 288 286 285 286 286 287 287 288 288 288 287 287 285 283 281 280 278 276 275 273 272 271 271 270 268 268 267 266 266 265
287 289 297 293 285 285 288 288 290 288 290 282 284 287 286 286 287 287 286 286 287 288 288 287 286 285 282 280 278 276 274 273 272 271 271 270 269 268 268 267 266 265 264 264
290 289 288 284 288 289 288 288 290 290 288 288 288 288 287 288 287 286 286 285 286 286 286 285 283 281 279 277 276 274 273 271 270 270 269 268 268 267 266 265 265 264 263 262
289 290 286 289 288 290 288 290 290 288 288 289 288 287 287 287 287 286 286 285 285 286 285 283 281 278 276 275 274 272 271 270 269 268 267 267 267 266 265 264 264 263 262 262
288 287 288 287 288 289 289 290 288 288 288 288 287 287 286 287 286 286 285 284 284 285 282 281 278 275 274 272 271 270 270 269 268 267 267 267 265 265 264 264 263 262 262 262
288 287 285 287 288 287 287 287 287 287 287 287 286 286 287 286 286 284 284 283 284 282 279 278 276 274 272 270 270 269 268 268 267 266 266 265 264 264 263 263 263 263 263 264
288 290 289 289 290 289 289 288 288 288 288 286 286 286 284 284 285 284 283 284 282 279 277 274 273 272 270 269 268 268 267 266 265 264 264 264 263 263 262 262 262 264 265 266

GFSCGP_925_thetae_027.txt.gz
Theta_e
309 308 308 308 308 308 309 310 311 310 310 312 310 309 309 308 304 301 300 299 298 297 296 294 294 295 296 297 298 300 303 306 311 311 311 308 307 308 308 309 313 315 317 320
309 308 308 307 307 309 309 311 310 310 309 310 310 311 309 305 304 302 301 299 298 296 294 293 293 293 294 295 295 297 298 301 303 305 303 302 303 301 300 301 302 304 308 311
310 311 309 309 310 310 310 310 311 312 311 309 311 310 311 305 303 302 300 298 296 295 294 293 292 291 292 293 294 296 296 297 299 300 302 301 301 300 300 298 299 299 300 301
309 309 312 310 312 310 313 310 311 312 311 313 309 313 309 306 304 302 299 297 295 294 293 293 291 290 290 290 292 293 294 295 295 297 297 296 292 290 290 292 294 295 296 297
313 312 310 312 311 311 313 309 310 310 309 309 309 310 308 306 306 302 299 297 295 294 292 291 291 289 289 289 289 289 290 290 290 290 290 289 288 287 287 287 288 287 287 288
311 308 309 310 308 309 308 308 309 307 308 312 310 310 310 309 308 302 299 297 295 294 292 292 291 289 288 288 288 288 288 287 287 287 287 286 286 285 285 285 285 285 285 285
312 311 309 308 310 308 308 311 314 314 312 316 310 310 310 306 303 303 300 297 295 293 292 291 290 289 288 288 288 288 287 286 286 286 285 285 285 285 285 285 285 285 285 285
314 317 309 307 309 310 307 311 314 315 313 312 309 314 312 301 299 300 298 297 294 293 292 291 291 289 287 287 287 287 287 286 286 285 285 285 285 285 285 285 284 284 284 284
314 316 308 307 308 309 310 312 310 311 296 308 312 309 304 300 299 298 297 296 295 294 292 291 291 290 289 287 286 286 286 286 286 286 286 285 285 285 285 284 284 284 283 283
313 316 311 309 308 309 310 310 314 310 311 313 311 310 311 303 301 299 297 296 295 294 293 291 290 290 289 288 287 286 286 286 286 286 286 286 285 285 285 284 284 283 283 283
311 314 313 310 310 311 311 312 311 311 309 309 306 309 304 305 302 300 298 297 295 293 291 290 290 290 289 288 287 287 286 286 286 286 286 285 285 285 285 285 283 283 283 283
311 311 309 312 308 306 308 310 310 314 311 307 308 311 303 302 301 300 298 297 294 293 291 289 289 289 288 288 287 287 287 286 286 286 286 286 285 285 285 284 283 282 282 282
312 311 306 311 309 308 309 308 308 306 303 302 310 309 302 300 299 299 298 296 294 293 290 289 288 288 288 288 287 287 287 287 287 287 286 286 285 285 284 283 282 281 281 280
312 311 313 317 310 308 308 308 305 306 309 309 310 309 303 302 301 299 297 296 295 293 289 289 286 288 288 288 288 287 287 287 287 286 286 286 285 284 284 283 282 281 280 279
310 314 308 308 304 306 306 305 303 304 306 309 307 305 303 301 299 298 297 296 295 294 289 288 288 287 287 287 287 287 287 287 287 286 285 285 285 284 283 282 281 280 279 278
303 307 305 306 303 306 308 306 305 306 305 303 302 303 299 296 294 293 292 291 294 295 292 287 286 287 286 288 288 288 287 286 286 285 285 285 284 283 282 280 279 278 277 276
303 302 301 311 297 298 300 297 302 302 301 302 303 301 291 294 293 292 291 289 289 291 291 288 286 287 288 288 288 287 286 286 286 285 285 284 283 281 279 278 277 276 275 274
303 303 302 299 294 303 300 291 293 296 295 294 293 289 290 292 293 291 289 288 287 286 286 286 287 288 289 288 287 286 286 285 284 284 283 281 280 278 277 276 275 273 272 270
298 299 296 301 291 294 296 292 291 292 292 291 293 291 292 291 287 286 286 285 286 285 286 288 289 289 288 287 286 285 284 283 282 281 280 278 276 276 275 273 272 271 270 269
296 297 302 288 293 296 294 291 290 290 291 285 288 288 287 286 287 288 286 285 285 287 288 289 289 287 286 285 285 284 282 281 280 278 276 275 274 273 272 271 270 269 268 267
289 294 300 294 297 290 288 288 290 289 291 283 285 287 286 286 288 287 285 285 287 288 288 288 287 287 286 284 283 281 280 279 278 276 274 273 272 271 271 270 269 268 267 265
291 291 290 288 290 292 289 289 291 290 287 287 286 287 287 287 287 286 285 285 286 286 287 287 286 285 284 282 281 279 278 276 275 273 272 272 271 270 270 268 268 267 266 264
291 291 289 291 291 290 288 290 289 288 288 288 288 288 287 287 286 286 285 284 285 287 288 287 286 283 281 280 279 277 275 273 272 271 271 270 269 269 269 268 267 266 265 263
288 286 289 289 288 288 288 288 288 288 288 288 288 288 286 287 286 286 285 284 284 286 286 286 283 280 279 277 276 274 272 271 270 269 268 268 267 268 267 266 266 264 264 263
288 287 286 287 288 288 287 287 288 288 287 286 286 286 286 286 286 284 285 283 284 285 284 283 281 279 277 275 273 272 270 269 268 268 267 267 266 266 265 265 265 265 264 264
287 289 289 287 289 289 289 288 287 287 287 286 286 285 284 284 286 285 284 285 284 283 282 279 278 277 275 273 272 270 269 268 268 267 266 265 265 265 264 264 264 267 265 267

GFSCGP_925_thetae_030.txt.gz
Theta_e
308 308 309 308 307 308 308 308 310 309 309 311 310 309 308 304 301 299 298 297 295 294 293 293 293 295 296 298 300 302 306 306 309 310 308 306 303 303 304 304 305 308 309 312
307 308 308 307 307 308 309 309 308 308 308 309 309 309 309 304 303 301 298 297 295 294 292 292 292 293 294 294 296 298 300 304 306 306 304 302 300 298 299 299 301 302 303 304
308 311 306 307 307 308 307 308 309 310 310 309 309 309 307 303 301 300 298 296 295 293 292 291 290 290 291 293 294 295 296 298 299 299 300 299 297 295 294 293 294 294 296 297
308 308 311 309 309 307 309 308 309 311 312 315 308 313 309 305 303 300 297 295 294 293 292 290 289 289 289 290 291 293 294 295 295 296 296 294 289 286 286 286 287 287 288 288
313 310 310 311 311 309 312 309 309 310 310 309 309 310 308 305 305 302 298 295 294 292 291 290 289 288 288 288 288 289 289 290 290 290 290 288 286 285 285 285 286 286 286 286
310 307 308 310 308 309 306 308 307 306 307 311 310 310 310 307 307 302 298 296 294 292 291 290 289 288 288 287 287 287 287 286 287 287 287 286 286 285 286 285 285 285 285 285
312 310 308 307 308 307 307 309 314 314 313 316 309 308 309 306 304 303 300 296 294 292 290 289 288 287 287 287 287 286 286 286 286 286 286 286 286 286 285 285 284 284 284 284
314 316 309 307 308 309 307 310 315 317 314 312 309 313 312 301 299 298 299 296 294 292 291 290 289 287 287 287 287 286 286 285 285 286 285 285 285 285 284 284 284 283 283 283
312 315 308 306 307 308 308 310 309 310 296 309 312 310 304 300 300 298 296 295 294 292 291 290 290 288 287 286 286 286 286 285 285 285 285 285 285 285 284 284 284 283 283 283
312 317 309 307 308 308 309 308 313 309 311 312 313 310 312 305 302 298 297 296 294 293 292 290 290 289 288 287 286 285 285 286 285 285 285 285 285 285 285 285 284 284 283 283
309 314 312 309 309 310 311 312 310 310 309 311 308 311 303 305 301 299 298 297 295 294 293 290 290 290 289 287 286 286 286 286 285 285 285 286 286 285 285 285 284 283 282 282
310 311 310 311 307 306 308 310 309 314 311 306 308 314 301 302 300 300 299 297 295 293 291 291 291 290 289 288 287 286 286 286 286 286 286 286 286 285 285 284 284 283 282 281
311 311 306 310 309 307 309 307 307 306 304 305 315 312 302 299 299 298 297 295 294 293 291 289 290 288 288 288 287 287 286 286 286 286 286 286 285 285 284 284 283 282 281 280
312 309 311 316 311 309 309 308 306 309 313 313 312 311 306 303 301 298 297 296 294 293 292 289 287 287 288 288 287 287 287 287 286 286 286 285 285 285 284 284 283 282 280 280
311 312 309 309 306 306 308 308 305 307 309 313 311 307 304 304 302 299 297 296 295 294 292 288 288 287 287 288 287 287 287 287 286 286 285 285 284 284 284 283 283 281 280 279
305 312 308 307 304 306 307 305 304 306 304 304 303 303 299 299 299 296 295 295 293 292 293 290 288 288 287 288 288 288 287 287 286 286 285 285 284 283 284 283 281 280 279 278
306 304 305 314 299 301 308 305 305 304 303 305 305 306 294 296 295 293 292 290 290 292 293 292 288 288 289 289 289 287 288 287 286 285 285 284 283 283 282 280 279 278 277 276
302 302 303 302 300 307 300 291 297 305 303 301 296 291 292 293 291 291 290 290 289 288 288 289 290 289 289 290 289 288 287 286 285 284 283 282 282 282 280 278 277 277 276 275
299 303 299 302 301 300 300 292 291 294 295 291 295 294 291 290 288 288 287 287 287 285 286 287 288 288 289 289 288 287 285 285 284 283 282 282 282 281 279 278 277 275 274 273
298 302 309 295 302 305 296 291 290 291 292 287 289 290 287 287 287 287 286 285 285 286 287 288 289 289 289 288 287 286 285 284 283 282 281 281 280 278 277 276 274 273 271 271
298 297 306 299 302 297 291 289 289 292 296 283 285 287 286 287 288 287 287 285 286 287 288 288 288 288 288 287 286 284 284 282 281 280 279 278 277 276 275 274 272 271 271 270
297 299 297 296 298 300 289 289 293 292 287 288 287 287 288 287 287 286 286 285 285 286 287 288 288 287 288 287 285 283 282 281 280 278 277 276 275 274 273 272 271 270 269 268
294 295 294 297 297 290 290 292 290 289 288 288 287 287 287 287 286 286 285 284 284 286 287 288 287 287 286 285 284 282 281 279 278 276 275 274 273 273 271 271 270 269 268 266
288 287 291 291 289 289 289 289 289 288 288 288 287 287 286 287 286 286 285 284 284 286 286 288 285 285 285 283 282 281 279 277 276 275 273 272 272 271 270 269 268 268 267 265
290 288 287 288 288 288 288 288 289 288 287 287 286 286 286 285 285 284 284 283 284 285 286 285 285 284 284 282 280 278 276 275 274 273 271 270 269 269 268 268 268 267 267 265
288 288 289 288 289 289 290 288 288 287 287 286 286 285 284 284 285 284 283 284 285 285 285 284 283 283 282 280 278 276 275 274 272 270 269 269 268 267 267 266 266 267 266 267

GFSCGP_925_thetae_033.txt.gz
Theta_e
307 309 310 309 307 309 308 308 309 308 308 311 310 309 309 303 300 299 298 297 295 294 292 292 293 295 296 300 303 305 306 306 308 309 309 307 303 302 303 302 304 305 306 306
307 309 308 307 307 308 307 308 308 307 307 309 309 309 307 304 302 301 298 296 295 294 292 291 291 293 294 295 297 300 302 304 305 305 301 299 297 295 295 296 297 297 299 300
307 310 305 307 306 308 307 308 307 310 309 308 309 310 307 303 301 299 297 295 294 293 292 290 290 290 292 293 294 296 298 300 300 299 298 296 294 293 292 291 291 291 292 292
307 307 309 307 308 306 308 306 307 309 311 314 308 315 309 305 303 300 297 295 294 293 291 289 288 288 289 290 293 295 296 296 296 296 296 294 290 286 285 286 286 286 286 286
315 308 309 311 310 307 311 306 307 309 310 310 309 311 309 305 306 302 298 295 294 292 290 289 288 287 287 288 289 290 291 291 291 292 292 290 286 285 285 286 286 285 285 285
310 307 307 309 307 307 305 307 307 306 307 311 311 312 311 308 307 302 299 296 294 292 290 289 288 287 287 287 287 288 288 287 288 287 287 286 286 286 286 285 285 284 284 284
311 309 307 306 307 306 306 309 314 315 314 316 307 308 310 307 304 303 301 297 294 292 290 289 287 287 287 286 286 286 286 285 286 286 286 286 286 285 285 285 284 284 284 284
315 316 308 305 308 309 307 310 315 316 315 313 308 312 313 303 299 299 299 297 294 292 291 289 288 287 287 287 286 286 286 285 286 286 286 285 285 285 284 284 284 283 283 283
314 314 307 306 305 307 308 311 309 308 295 309 312 310 307 301 300 298 297 296 295 293 291 290 289 287 287 287 286 286 285 285 285 285 285 285 285 285 285 284 284 283 283 282
311 316 309 306 307 308 308 307 312 309 313 313 312 312 314 306 303 298 297 297 295 293 291 290 290 288 287 286 286 286 285 285 285 285 285 285 285 285 285 285 284 283 283 282
309 314 311 308 308 310 311 311 309 310 311 314 311 312 304 306 303 300 298 297 296 294 293 291 290 290 288 286 286 285 285 285 285 285 285 285 285 285 285 285 284 284 283 282
309 312 311 310 307 305 308 309 310 314 311 306 309 314 302 302 301 300 299 297 295 295 293 292 291 291 289 287 286 285 285 285 285 285 285 285 285 285 285 285 284 284 283 282
310 312 311 313 310 306 308 307 307 306 305 307 312 313 301 299 299 298 298 297 296 294 293 292 290 289 289 288 287 286 285 285 285 285 285 285 285 285 285 285 284 284 282 281
311 311 314 321 315 310 309 307 306 310 307 311 313 312 304 302 301 298 297 296 294 294 293 291 290 289 289 289 288 287 286 286 286 285 285 286 285 285 284 284 284 283 282 281
312 315 308 310 308 308 309 308 307 310 311 313 313 310 308 304 302 300 298 295 294 294 293 291 290 289 288 288 288 287 287 286 286 286 286 286 285 284 284 283 283 283 281 280
308 317 309 309 305 306 307 306 307 308 309 309 308 307 303 302 298 298 297 296 295 294 293 292 290 289 288 288 288 288 287 286 286 286 286 285 285 284 283 282 282 280 279 279
310 309 312 320 303 307 313 308 306 305 303 308 308 309 297 299 298 297 296 295 295 292 291 291 290 290 290 289 290 289 288 287 286 286 285 285 284 283 282 281 279 279 279 278
307 309 310 300 303 313 302 291 301 306 304 299 297 292 297 299 296 294 292 292 290 290 290 291 292 292 292 291 290 290 288 287 286 285 285 284 283 282 280 279 279 279 278 277
303 307 302 306 306 305 300 292 298 303 302 297 301 298 292 290 290 291 289 289 290 288 289 290 292 293 292 291 290 289 288 287 286 285 285 284 282 280 279 278 278 278 277 276
300 303 312 300 306 310 302 292 290 293 298 288 296 294 288 288 290 289 287 287 287 288 289 289 289 288 288 289 288 288 287 286 285 285 284 282 280 279 278 277 277 277 276 275
300 300 309 303 305 303 296 289 290 300 302 288 287 288 288 289 290 288 286 285 286 287 288 288 287 288 289 288 288 287 286 285 286 284 282 280 279 278 277 276 276 275 274 273
301 303 303 301 302 306 290 290 296 296 289 289 288 288 288 288 287 287 286 286 285 285 286 287 287 287 288 288 287 286 285 287 284 282 281 279 278 277 276 275 274 274 273 272
299 300 301 301 301 291 290 292 290 290 290 288 289 288 288 287 286 287 286 285 285 286 286 287 287 287 288 287 287 286 287 285 283 281 279 277 276 275 274 274 273 272 272 271
290 288 292 294 290 289 290 290 289 288 289 288 288 287 286 287 286 286 285 284 284 286 286 286 286 286 287 287 286 286 284 282 281 279 277 276 275 274 273 272 271 271 271 270
292 289 289 289 288 289 289 288 289 289 288 287 287 286 286 285 285 284 284 283 284 285 287 286 285 285 286 286 285 283 282 280 278 277 275 274 272 272 271 271 270 270 270 269
288 288 290 291 289 290 290 290 288 288 288 286 286 285 284 284 285 283 283 284 285 285 285 284 285 285 285 283 282 280 278 277 277 275 273 272 271 270 270 269 269 269 267 268

GFSCGP_925_thetae_036.txt.gz
Theta_e
312 316 317 317 316 316 316 316 318 315 312 314 316 316 314 310 308 308 306 304 302 300 297 296 295 296 298 299 301 302 303 303 306 306 305 302 299 296 296 298 299 301 302 302
313 316 317 312 312 313 313 316 317 314 311 313 315 315 315 310 310 309 306 304 302 300 298 296 295 295 296 296 298 300 302 301 301 301 299 296 294 291 291 292 294 295 298 298
317 315 311 312 311 313 313 315 316 316 312 311 313 316 316 311 307 305 304 303 301 301 299 297 295 294 294 294 295 297 299 301 301 301 298 294 292 291 290 289 289 289 290 290
313 311 310 311 313 313 316 312 312 313 314 319 313 323 317 314 310 305 303 302 301 299 297 295 294 293 292 291 291 293 294 295 295 294 294 294 292 290 288 287 286 287 287 286
316 311 312 314 314 311 317 310 312 312 315 315 315 318 320 310 312 308 304 302 301 299 297 295 293 291 289 290 290 290 291 293 293 293 292 291 289 288 287 287 286 285 285 285
315 308 311 314 309 311 309 312 311 312 314 320 319 318 321 315 314 311 305 302 300 298 296 293 291 289 289 288 288 289 289 289 290 290 289 289 288 287 287 286 286 285 285 284
314 313 309 308 312 308 312 316 322 321 320 323 311 316 320 315 309 310 306 302 300 297 295 293 291 290 289 288 288 287 287 287 287 288 287 287 287 287 286 286 286 286 285 284
322 323 313 310 316 316 313 318 324 328 323 321 310 317 317 308 305 304 306 303 300 298 295 294 292 290 289 288 288 287 287 286 286 286 286 286 286 286 285 285 285 285 284 283
320 320 309 307 308 314 312 314 315 314 306 319 318 314 313 305 305 303 304 302 300 298 296 295 292 290 289 288 288 287 287 286 286 285 285 285 285 285 285 285 284 284 283 283
316 319 310 308 309 309 312 312 316 316 325 325 319 318 320 311 309 304 303 302 301 299 297 295 292 290 289 289 287 287 286 286 286 285 285 285 285 285 285 285 284 284 283 283
313 316 313 309 311 314 312 313 313 315 318 326 325 320 314 315 311 307 305 303 302 299 298 296 294 291 289 288 287 286 286 286 285 285 285 285 285 285 285 285 284 284 283 282
314 315 318 313 308 306 312 314 314 319 318 314 316 321 306 308 309 307 306 303 302 300 298 297 295 292 289 288 287 287 286 286 286 285 285 285 285 285 285 284 284 283 283 282
313 318 323 319 311 308 311 311 312 314 317 322 325 322 305 304 305 304 306 303 302 300 299 298 296 294 291 289 287 287 286 286 286 285 285 285 285 285 284 284 284 283 282 282
313 317 320 325 321 316 314 312 311 314 319 319 319 318 308 307 306 305 303 303 302 300 299 298 297 295 294 291 289 287 286 286 285 285 285 285 285 284 284 284 283 282 282 282
313 319 317 316 315 313 315 314 312 314 315 319 319 317 313 310 308 307 306 303 301 300 299 298 298 296 295 292 290 288 287 286 285 285 285 285 285 284 284 283 282 282 281 281
310 319 317 317 316 312 314 314 312 313 314 315 316 315 312 309 306 305 303 301 301 301 300 298 297 296 295 293 291 289 288 286 285 285 285 285 284 284 284 283 282 281 281 280
313 317 315 322 318 310 313 313 313 312 312 313 315 314 307 305 305 306 304 302 302 301 300 298 297 295 294 293 291 290 288 287 286 285 285 285 285 284 283 282 281 280 280 279
314 315 316 319 311 317 311 299 310 310 310 309 307 306 306 305 302 302 301 302 301 299 298 297 296 295 293 292 291 289 288 287 286 286 285 285 285 284 283 282 281 279 279 277
307 310 306 311 312 314 300 297 306 309 313 306 308 303 299 294 296 298 294 295 298 296 295 294 295 294 292 292 291 289 288 287 286 286 286 285 284 284 282 281 280 279 278 276
302 307 314 306 316 320 308 296 296 301 308 299 305 302 296 295 304 305 293 292 292 292 291 291 290 291 292 292 291 290 288 287 287 287 286 285 284 283 282 280 279 278 276 275
304 304 313 308 313 310 305 294 292 308 312 296 301 299 294 298 300 294 291 290 290 290 290 289 289 290 291 289 289 289 288 288 289 287 286 285 284 283 281 279 278 276 275 273
307 308 308 307 311 313 293 292 301 302 293 294 293 293 293 292 290 290 289 289 288 288 287 289 288 288 289 288 288 287 287 289 287 286 285 284 282 280 279 277 276 275 274 273
305 306 308 307 308 293 293 295 293 293 295 292 293 291 292 290 289 289 288 288 287 287 287 287 287 287 287 287 287 287 288 288 286 285 283 282 280 278 276 275 274 273 272 271
295 291 300 300 295 292 292 291 291 290 292 291 291 291 291 291 289 288 288 288 287 287 287 287 286 285 285 286 286 287 287 286 284 283 281 279 277 275 274 273 273 272 271 270
295 293 294 292 290 290 291 291 292 290 290 289 288 289 289 289 288 288 287 287 287 287 287 286 285 285 286 286 286 286 285 283 282 280 278 276 275 274 273 273 272 272 272 272
291 291 294 296 292 293 293 292 290 290 290 289 289 287 286 287 288 287 287 286 286 286 287 285 285 284 285 285 284 283 282 281 280 277 275 274 273 273 272 271 271 271 270 270

GFSCGP_925_thetae_039.txt.gz
Theta_e
316 317 319 320 319 320 319 320 321 321 316 316 318 318 319 313 312 313 313 310 308 306 302 301 301 303 305 307 307 307 307 308 308 306 305 303 300 298 297 297 297 299 299 300
316 318 319 319 319 319 318 319 320 320 315 314 317 319 318 316 314 314 313 311 309 304 302 301 301 302 304 305 305 306 306 307 307 305 302 299 297 295 294 292 292 293 295 294
319 319 316 316 316 317 318 319 320 320 316 314 316 318 319 318 315 313 312 311 308 305 303 301 301 302 301 302 302 302 302 301 300 299 297 295 294 293 292 291 290 289 290 290
318 318 315 316 317 317 319 318 317 317 317 322 317 323 322 321 316 312 310 309 307 305 303 301 300 299 299 297 297 298 298 298 298 298 297 297 295 292 291 289 288 288 288 288
318 314 314 316 317 316 318 315 317 317 319 320 321 320 322 321 319 315 311 308 306 304 302 300 299 297 295 294 295 294 294 294 294 295 295 293 292 290 290 289 288 287 286 286
316 312 314 316 313 314 314 316 315 316 319 324 322 323 324 321 318 318 311 307 305 303 301 299 296 293 293 292 293 292 292 292 292 292 292 292 291 290 289 289 288 287 287 286
317 316 314 313 315 312 315 319 326 326 324 326 318 323 323 321 314 315 311 307 305 302 300 298 295 294 293 292 292 291 291 290 291 291 291 291 290 290 289 289 288 288 287 286
324 326 318 313 319 320 316 321 327 332 330 326 312 320 320 315 312 310 310 306 304 302 300 297 295 294 292 291 291 290 290 289 289 289 289 289 289 289 288 288 288 287 286 285
324 325 315 315 315 319 317 319 320 322 314 321 320 317 317 309 308 307 309 306 304 302 300 298 296 294 292 291 290 290 289 289 288 288 288 288 288 287 287 287 286 286 285 284
321 324 314 312 310 312 315 315 318 318 329 329 324 323 322 313 311 308 308 306 304 302 300 298 296 294 292 291 290 290 289 288 288 287 287 287 287 287 286 286 286 285 284 284
319 320 316 311 313 316 314 315 316 318 321 328 327 323 319 319 314 310 308 306 304 302 300 298 296 294 292 291 290 289 289 288 287 287 287 286 286 286 286 286 285 285 284 284
318 319 326 319 313 312 315 316 316 321 322 318 321 324 311 317 316 312 308 306 305 303 301 299 297 294 292 291 290 289 288 288 287 287 287 287 286 286 286 285 285 285 284 284
316 320 326 325 314 310 312 313 315 316 321 323 325 324 309 308 310 310 309 307 306 303 302 300 298 295 293 291 290 289 288 288 287 287 287 287 286 286 286 285 285 284 284 283
315 320 324 328 324 318 315 314 313 315 319 320 322 321 311 309 309 308 309 308 306 304 302 300 299 297 294 292 290 289 289 288 287 287 286 286 286 286 285 285 284 284 283 282
316 322 322 322 322 321 317 316 314 314 316 320 320 320 319 311 310 310 308 307 306 304 302 301 300 299 296 294 292 290 289 288 288 287 286 287 286 286 285 284 284 283 282 281
313 320 318 320 320 320 319 317 316 314 314 316 317 318 317 312 310 310 309 307 305 304 302 301 300 299 298 296 294 292 290 288 287 287 286 286 286 286 285 284 284 283 282 281
313 315 317 322 319 319 317 318 317 316 314 315 317 316 314 312 309 308 308 306 305 304 303 301 300 299 298 297 295 293 291 289 287 287 286 286 286 285 285 284 283 282 282 280
313 312 316 321 316 323 319 315 314 317 316 315 314 312 310 309 306 306 307 306 304 303 302 301 300 299 298 297 294 294 292 290 288 287 286 286 286 285 285 284 283 282 280 280
312 313 317 320 320 320 318 303 310 314 317 315 313 308 303 302 302 305 302 302 302 302 301 300 299 299 297 295 294 292 291 290 288 287 286 286 285 285 284 284 283 281 280 279
304 312 315 312 321 324 314 304 304 308 316 311 310 306 301 300 310 309 297 296 298 298 296 296 296 295 293 292 292 291 289 288 287 287 287 286 286 285 284 284 283 281 280 278
307 308 314 317 318 319 307 297 300 315 319 303 307 303 300 303 304 298 296 295 294 293 291 291 292 292 292 292 291 290 288 288 291 289 288 287 286 285 284 283 281 280 278 277
311 312 312 314 316 318 297 295 307 305 297 299 304 302 300 296 294 294 294 292 290 289 289 289 289 290 290 291 290 289 289 291 289 288 287 286 285 284 283 281 280 278 277 275
309 311 314 312 312 295 295 296 295 294 298 294 297 297 297 293 292 292 290 289 289 289 288 289 289 289 288 288 288 288 289 288 288 287 286 285 283 281 280 280 278 276 275 274
299 297 307 307 299 297 294 294 292 292 294 294 294 294 294 292 290 289 289 289 288 288 287 288 287 287 287 287 287 287 287 287 286 285 283 282 281 279 278 277 276 275 274 274
298 297 300 295 292 292 295 293 293 292 291 291 292 292 292 291 290 289 289 289 288 288 287 287 287 287 288 287 287 286 286 285 284 283 281 280 279 277 276 276 276 275 275 274
293 295 298 301 293 299 295 295 294 292 292 291 290 289 288 290 289 288 288 288 288 288 287 287 287 287 287 286 285 285 285 284 283 281 280 278 277 275 275 274 274 273 273 272

GFSCGP_925_thetae_042.txt.gz
Theta_e
315 316 317 317 316 317 318 318 318 320 314 316 315 315 316 311 310 310 309 308 306 304 302 302 303 306 308 309 308 310 310 309 309 306 304 303 300 301 300 300 300 302 302 302
315 317 317 318 318 318 318 318 318 318 313 314 315 315 316 312 311 310 311 308 306 302 300 301 303 305 307 307 307 308 309 308 307 306 301 299 297 295 294 294 295 296 296 295
318 318 317 317 318 318 318 318 317 318 315 314 313 314 315 315 313 311 310 309 306 302 300 300 302 304 305 305 305 306 306 306 305 303 300 297 294 292 291 291 290 289 290 290
317 317 316 317 317 316 318 317 317 317 317 318 314 319 319 318 316 312 311 308 305 302 301 300 302 302 302 302 302 302 302 302 301 300 298 295 294 291 290 289 288 288 288 288
318 315 315 317 317 316 317 315 317 317 317 319 319 319 319 317 318 315 311 307 304 302 300 299 300 300 298 298 298 298 298 298 298 298 297 296 292 290 289 288 287 287 287 287
315 312 314 315 312 314 314 316 316 316 318 321 320 321 320 320 318 317 311 308 304 302 300 298 298 296 295 295 295 295 295 295 296 297 295 294 291 289 289 288 287 287 287 287
314 314 314 313 314 313 315 318 323 322 320 322 317 320 321 318 315 315 312 308 305 301 299 296 294 294 293 293 293 293 293 293 293 293 293 291 291 290 289 288 288 287 286 286
318 321 315 312 316 317 314 318 323 326 326 323 312 317 319 313 309 310 310 308 305 301 299 295 293 293 293 293 292 291 291 291 291 291 291 290 290 290 289 289 288 287 286 285
320 322 315 313 314 317 316 317 318 319 309 315 319 315 314 309 308 308 307 305 304 301 298 295 294 293 292 292 291 291 290 290 290 290 290 290 289 289 289 288 287 286 285 285
321 324 316 309 311 312 315 315 318 316 318 322 322 321 320 312 310 306 307 305 303 301 298 296 294 293 292 292 291 290 290 290 289 289 289 289 288 288 288 287 286 286 285 284
318 320 314 311 312 315 313 314 315 317 318 322 322 321 315 315 311 307 307 305 303 301 298 296 295 293 292 291 290 290 289 289 289 288 288 288 287 287 287 286 286 285 285 284
317 319 317 313 311 311 314 315 315 318 319 317 317 322 311 311 311 308 307 305 302 301 298 297 295 293 292 291 290 290 289 289 288 288 287 287 287 287 286 286 285 285 285 285
317 319 321 320 314 310 312 312 315 316 315 320 319 321 307 307 309 307 306 304 303 301 299 297 295 293 292 291 290 289 289 288 288 287 287 287 286 286 286 286 285 285 285 285
316 319 320 325 321 316 313 312 313 315 317 317 319 319 311 309 308 307 305 304 303 301 299 297 295 294 292 291 290 289 289 288 288 287 287 287 286 286 286 286 285 285 285 285
317 321 320 320 320 318 314 313 313 314 315 318 318 317 316 312 307 307 306 305 304 302 300 298 296 295 293 291 290 289 289 288 288 287 287 287 287 286 286 285 285 285 285 284
312 318 318 320 318 320 321 319 313 312 313 315 315 316 315 312 308 306 306 305 304 302 301 299 297 296 294 292 290 289 289 288 288 287 287 287 287 286 286 286 285 285 284 284
313 315 317 323 318 319 321 320 320 318 313 314 315 315 312 311 307 306 305 305 304 303 301 299 298 297 296 293 291 290 289 289 288 288 287 287 287 286 286 285 285 284 284 283
313 314 316 321 319 323 318 316 317 318 318 314 313 309 309 310 307 305 304 304 303 302 300 299 298 298 297 296 293 291 290 289 288 288 287 287 287 286 286 285 285 284 283 283
314 313 319 321 323 320 317 305 310 315 318 316 315 311 305 303 305 306 303 303 301 301 300 300 299 299 298 297 295 293 291 290 288 287 287 287 286 286 286 285 285 284 283 282
306 313 317 315 323 325 309 300 304 309 316 309 312 312 302 305 310 308 299 300 300 300 300 299 299 299 298 297 295 294 292 291 289 288 288 287 287 286 286 285 285 284 283 283
309 312 314 318 319 316 301 296 302 314 311 298 302 302 302 309 305 303 296 295 295 295 296 297 297 296 296 295 294 293 292 291 292 290 289 288 287 287 286 285 284 284 283 281
310 311 312 314 317 319 296 298 308 302 295 298 301 299 299 295 294 293 292 291 290 289 292 293 293 293 292 292 292 291 290 292 291 290 289 288 287 286 285 284 283 282 281 280
311 310 312 312 312 296 294 295 295 294 296 298 300 298 294 291 292 290 289 288 287 288 289 290 290 289 290 291 291 291 291 290 290 289 288 287 286 285 284 283 282 280 279 278
299 298 306 306 301 296 295 296 294 292 293 293 294 295 292 290 289 288 287 286 286 287 287 289 288 287 287 288 288 289 289 288 288 287 286 285 284 283 282 281 280 280 279 277
298 299 301 295 294 296 296 295 296 297 291 291 292 292 291 288 288 287 287 286 286 287 287 288 289 289 289 288 288 288 287 287 286 285 284 283 282 281 280 279 279 278 278 277
294 298 301 303 295 299 299 297 296 296 293 290 289 289 289 288 287 287 287 287 287 287 287 288 288 288 287 287 286 286 285 284 285 283 282 282 281 280 278 277 276 275 275 274

GFSCGP_925_thetae_045.txt.gz
Theta_e
313 312 313 312 311 313 315 316 317 315 313 313 312 312 311 309 307 306 305 304 303 302 300 302 304 308 310 310 312 313 313 312 313 311 309 308 304 305 305 305 305 305 305 305
313 314 313 313 313 314 314 315 315 314 312 312 312 312 312 310 309 308 308 306 305 300 298 301 304 307 308 310 311 312 311 310 308 308 306 303 300 298 300 299 300 299 299 298
314 316 315 315 316 316 315 316 315 316 314 312 312 312 312 311 309 308 308 308 305 301 299 299 302 306 307 308 310 310 308 306 305 305 303 299 296 294 294 293 292 292 292 291
314 314 316 315 315 315 316 314 315 316 315 316 312 318 315 313 312 309 309 306 305 300 299 299 301 304 306 307 308 307 307 306 305 304 303 301 295 292 290 290 289 289 289 289
315 314 314 316 315 314 315 315 315 315 315 316 315 316 315 314 316 316 311 308 304 300 299 300 301 302 305 304 305 306 306 305 303 303 302 298 293 291 289 289 288 288 288 288
313 311 312 314 311 313 312 314 314 314 315 318 316 317 317 318 317 317 312 306 302 300 299 299 300 302 301 301 302 302 302 299 299 298 296 296 293 289 288 288 287 287 287 287
313 313 312 311 312 312 314 314 318 320 317 321 316 317 319 315 314 314 311 305 301 300 298 297 296 296 297 297 298 298 298 296 297 297 295 294 292 290 289 288 287 287 286 286
317 317 313 311 313 314 313 315 319 322 321 319 312 317 317 314 313 307 309 307 301 299 298 296 295 294 294 295 296 295 295 295 295 295 294 292 291 290 289 289 288 288 287 287
316 316 312 311 314 314 313 316 316 319 302 312 317 315 313 310 308 308 307 305 302 299 297 295 293 293 293 294 294 294 294 293 293 293 292 291 290 290 289 288 288 287 286 285
317 322 312 309 312 312 314 312 317 314 316 318 318 318 320 314 311 307 306 305 301 299 295 294 293 292 292 293 292 293 292 292 292 292 291 290 290 290 289 289 288 287 286 285
315 320 313 310 312 315 314 314 315 316 315 319 320 319 313 315 312 308 306 304 302 299 296 294 293 292 292 292 291 291 291 291 291 290 290 290 289 289 289 289 287 286 285 285
315 318 312 313 309 309 313 315 313 319 316 313 315 322 309 311 310 307 305 304 302 300 297 294 293 291 291 291 290 290 290 290 290 290 289 289 289 288 288 287 287 286 285 285
316 319 320 317 313 310 312 312 315 314 308 318 317 321 307 308 310 306 304 303 301 299 296 294 293 292 291 290 289 289 289 289 289 289 288 288 288 288 287 287 286 285 285 285
316 318 321 324 322 314 313 312 312 316 317 317 319 319 312 310 310 307 304 302 301 300 297 295 293 292 292 290 289 289 289 289 289 288 288 288 287 287 287 286 286 285 285 285
317 320 318 319 317 314 313 312 313 315 316 318 319 317 316 314 308 306 304 302 300 300 298 296 295 293 292 290 289 289 288 289 288 288 288 287 287 287 286 286 285 285 285 285
314 319 318 320 318 317 318 313 313 314 315 315 316 317 313 312 310 305 305 304 302 301 299 298 296 294 292 290 290 288 288 288 288 288 287 287 287 286 286 286 285 285 284 284
315 317 317 323 317 317 321 320 318 315 313 313 315 315 311 312 311 306 304 304 304 302 300 298 296 294 293 291 290 289 288 288 288 288 287 287 287 286 286 286 285 285 284 284
312 317 317 322 318 323 319 315 318 319 318 314 312 314 308 311 310 306 303 304 303 302 300 298 297 295 293 291 290 290 289 289 289 287 287 287 287 287 286 286 286 285 284 284
315 315 317 321 323 320 317 307 313 317 319 317 317 315 314 305 305 304 301 302 303 301 300 299 297 296 295 292 291 291 289 289 288 288 287 287 287 286 286 286 286 285 284 284
314 318 318 316 323 325 313 304 303 311 320 311 314 315 315 305 311 312 301 299 299 300 299 299 298 298 296 294 293 290 289 288 287 288 288 288 287 287 287 286 286 285 285 285
315 317 318 320 322 317 304 297 302 318 314 294 300 308 303 308 310 304 298 299 297 297 298 299 298 297 296 295 294 290 289 288 290 289 288 288 288 287 287 287 286 286 285 284
314 316 316 316 319 322 301 301 311 303 295 296 301 300 301 298 296 296 295 293 292 293 294 295 294 295 296 295 294 291 291 292 291 290 289 288 288 287 287 286 286 285 284 283
312 309 311 313 313 301 295 300 296 295 295 300 301 298 295 294 294 292 290 290 290 290 290 293 293 292 293 295 295 293 294 292 292 291 290 289 288 287 287 286 285 284 283 282
301 299 307 307 302 296 294 296 294 292 293 293 296 295 292 292 290 289 288 287 287 287 287 290 291 289 290 292 293 294 292 291 290 290 289 288 287 287 286 285 284 284 282 281
301 300 302 301 295 296 297 295 296 297 291 291 291 293 292 289 289 288 287 286 285 286 287 289 289 289 290 290 290 290 289 289 289 288 287 286 285 284 283 282 282 282 281 280
295 300 304 305 299 302 301 297 295 296 295 290 290 290 288 289 288 287 286 286 286 286 287 287 287 287 287 287 286 286 286 286 287 286 284 284 283 282 281 280 279 277 276 276

GFSCGP_925_thetae_048.txt.gz
Theta_e
311 311 312 312 309 312 313 313 315 314 313 312 311 311 310 307 306 305 304 303 302 302 300 302 304 307 310 311 312 313 314 314 316 314 312 309 309 308 309 310 311 310 310 309
312 312 311 311 311 311 312 313 312 312 312 311 312 311 310 308 308 308 307 305 304 300 298 300 303 307 309 310 311 312 313 312 311 313 310 308 306 303 304 305 305 305 305 303
313 315 313 313 314 314 313 313 313 315 313 311 311 311 311 310 308 307 307 308 305 303 300 299 301 306 308 309 310 311 311 309 307 309 307 304 300 299 298 299 300 299 296 295
313 313 314 314 314 314 315 312 314 315 315 316 312 316 313 311 310 309 309 307 306 302 300 299 301 304 307 309 310 310 309 307 307 307 306 306 302 296 294 294 294 292 291 291
314 313 314 315 314 313 315 313 313 314 313 315 314 314 313 312 313 312 313 308 305 301 300 300 301 304 306 309 308 309 307 306 305 305 305 303 299 297 292 290 289 289 289 289
312 311 312 314 312 312 311 313 312 312 313 316 315 314 314 314 316 314 313 311 304 301 300 300 301 303 306 307 307 307 307 305 303 303 303 303 301 293 289 288 288 288 287 287
312 312 311 310 313 312 313 313 316 318 316 319 314 314 317 314 313 313 315 311 303 301 299 299 298 301 301 303 305 305 305 303 302 301 300 299 298 293 290 288 288 287 287 287
316 316 312 310 313 314 313 313 316 318 318 317 312 317 317 312 312 309 307 306 301 298 298 298 299 300 299 299 301 302 303 304 300 299 298 296 294 291 289 289 288 288 287 287
315 316 311 310 312 314 313 315 315 317 299 311 316 314 313 310 309 308 307 305 299 298 298 297 298 298 296 297 299 300 301 300 297 296 295 293 291 290 289 288 288 288 287 286
314 317 311 310 312 311 312 311 316 313 316 317 317 317 320 314 312 311 309 305 300 297 296 296 295 295 295 296 297 298 298 297 296 296 294 292 290 289 289 288 288 287 287 286
314 317 313 311 312 313 313 314 314 315 314 317 316 318 311 315 312 311 309 305 301 297 295 294 294 294 294 294 295 295 295 295 295 294 293 291 290 289 289 288 288 287 286 286
312 317 312 312 310 308 312 314 313 316 315 313 314 321 310 311 311 309 308 304 301 298 295 294 293 292 291 292 292 292 292 293 293 293 292 290 290 289 288 288 287 287 286 286
314 316 314 315 313 309 312 312 315 313 310 314 318 321 306 306 310 308 307 304 301 298 295 293 291 290 291 291 290 290 291 291 291 291 291 290 289 289 289 289 287 286 286 285
314 317 317 320 319 313 312 311 312 316 319 319 318 319 312 312 310 309 305 303 299 298 295 293 292 291 291 291 290 290 289 290 290 290 289 289 289 289 289 288 287 286 285 285
315 320 316 317 316 314 313 312 314 315 317 319 320 317 317 314 309 308 306 302 299 298 296 294 293 292 291 290 290 289 289 289 290 289 289 288 288 288 288 287 286 286 285 285
314 320 318 319 317 314 315 312 313 315 315 316 317 318 313 311 310 306 305 303 301 300 299 296 294 293 291 291 290 289 288 288 289 288 288 288 288 288 287 286 286 285 285 284
318 319 320 323 318 316 319 318 314 313 314 314 317 316 312 313 311 308 305 304 303 302 300 298 295 294 293 291 290 289 288 288 288 287 287 287 287 287 286 286 286 285 284 284
314 318 319 323 319 324 320 316 318 317 314 312 312 313 309 311 311 310 306 304 303 303 301 298 296 295 293 292 290 289 288 287 287 287 287 287 287 287 286 286 286 285 285 284
316 317 318 321 323 321 317 311 314 316 319 317 316 314 314 312 306 308 303 304 305 302 301 299 298 296 293 291 290 289 288 288 288 287 287 287 287 287 286 285 285 285 285 284
317 316 317 316 322 324 316 307 308 311 321 314 314 316 315 309 313 316 310 299 300 299 298 297 297 295 292 290 291 289 288 288 287 287 287 288 289 288 286 286 286 286 286 285
316 318 318 319 322 319 304 297 306 320 316 294 300 303 304 309 312 303 301 299 297 296 296 297 295 294 292 291 291 289 288 288 289 288 289 289 289 287 287 286 286 286 285 285
315 319 320 319 321 322 302 302 315 307 296 297 301 302 303 301 299 298 297 295 294 294 294 295 295 294 293 291 290 289 288 289 291 292 290 288 287 287 287 286 286 286 285 285
312 313 314 314 315 305 300 303 298 296 298 300 302 299 298 297 297 295 293 293 292 292 292 294 294 293 293 292 291 290 291 291 290 288 288 288 287 287 287 287 286 285 284 284
303 301 309 309 305 300 296 295 294 293 295 294 297 296 294 295 292 292 290 290 289 287 288 291 292 289 289 292 293 295 291 290 290 289 288 288 287 287 286 286 285 285 284 283
302 303 305 304 300 297 298 295 296 294 291 292 292 293 292 291 290 289 287 286 286 286 288 290 290 289 289 290 291 292 292 292 291 290 289 288 287 287 286 285 285 284 283 283
297 302 307 308 302 304 303 298 294 296 293 291 292 292 289 290 289 287 286 286 286 285 287 287 288 289 288 289 289 289 289 290 290 289 288 287 287 286 285 284 282 281 281 280

GFSCGP_925_thetae_051.txt.gz
Theta_e
310 310 311 311 308 311 310 312 313 313 312 312 310 310 310 307 305 304 304 303 302 302 303 303 303 304 307 310 311 312 313 314 316 317 317 315 315 315 315 315 316 318 316 314
311 311 310 310 310 311 312 313 312 310 310 310 311 310 309 307 307 307 307 306 304 303 298 300 302 304 307 309 311 311 312 313 314 315 315 313 312 309 310 311 312 314 312 310
312 313 311 311 311 312 311 311 312 313 312 310 310 310 310 310 307 306 306 307 306 305 302 300 299 303 306 309 310 311 311 312 311 312 312 310 306 304 304 303 306 306 304 303
312 312 313 312 313 312 313 310 312 313 314 315 311 316 312 310 310 308 309 306 307 305 302 300 300 302 305 307 310 311 311 310 310 311 310 311 307 300 300 302 301 298 295 295
313 312 313 314 313 312 314 311 311 313 312 313 312 313 314 312 312 312 311 309 308 304 302 300 300 302 304 306 310 310 310 308 308 309 309 307 304 304 301 298 295 292 290 291
311 310 311 313 311 311 310 312 311 311 311 315 315 314 313 313 313 313 312 311 307 302 300 300 300 301 303 306 309 309 308 307 307 307 306 305 305 301 295 293 290 289 289 289
312 312 311 310 313 311 312 313 316 315 314 318 312 312 316 312 311 311 313 310 307 302 298 297 298 301 302 304 306 307 306 304 304 304 304 303 302 303 298 293 290 288 288 288
313 312 311 309 313 314 312 313 315 316 315 313 312 316 316 310 310 308 308 307 306 300 297 297 298 301 301 303 304 305 303 302 301 301 302 302 301 300 295 292 290 288 288 288
313 313 311 310 311 313 312 314 313 315 298 310 314 312 312 310 309 308 308 306 303 300 297 296 298 300 301 301 303 303 302 301 301 302 300 299 298 297 293 290 289 289 288 288
313 314 310 310 311 311 312 311 316 312 313 313 314 315 316 315 312 312 310 309 303 299 296 295 297 299 300 300 301 301 301 301 302 302 302 300 297 294 292 290 289 288 287 287
312 314 312 310 311 312 312 313 312 313 312 315 314 317 311 315 312 312 310 308 304 300 296 295 295 297 298 298 298 299 300 300 300 302 300 297 294 292 290 289 288 287 287 287
311 315 312 312 309 308 310 313 312 313 313 311 312 318 310 311 310 308 309 308 304 299 295 294 294 294 294 295 296 296 297 298 299 299 297 294 293 290 289 288 287 287 287 286
312 314 310 313 313 308 310 311 312 311 307 314 315 319 306 307 308 307 308 308 302 298 294 293 291 292 292 292 293 294 294 295 297 296 294 291 290 289 288 288 287 287 286 286
313 315 313 318 316 312 312 311 311 314 316 317 317 318 314 310 308 308 307 305 302 298 295 293 291 291 292 292 292 292 292 293 294 293 292 291 290 289 288 288 287 286 286 285
316 318 316 316 314 312 312 311 312 314 315 317 317 317 317 314 309 309 308 305 302 299 295 294 293 291 291 291 291 291 291 291 292 291 291 290 290 288 288 287 287 286 285 285
314 317 317 318 316 313 314 312 312 313 315 315 316 316 315 313 310 309 307 305 303 300 298 296 294 292 291 291 291 290 290 290 290 289 289 288 288 288 288 287 287 286 285 284
315 317 318 321 317 316 318 317 316 312 313 314 316 316 314 314 312 312 309 304 304 303 301 298 295 293 293 292 291 290 289 289 289 288 288 288 288 288 288 287 287 286 285 284
315 317 317 322 317 323 319 315 316 317 316 313 313 315 314 313 312 308 306 307 305 304 301 298 296 295 294 292 291 290 289 288 288 287 287 287 287 287 287 287 286 285 284 284
317 318 320 322 323 320 318 313 315 315 318 316 315 313 312 311 307 310 304 305 306 303 302 302 300 297 294 292 291 290 288 287 287 286 287 287 287 287 287 286 286 285 284 284
316 317 318 316 323 324 318 313 309 313 321 316 314 315 314 312 314 316 310 304 301 301 300 299 299 296 293 291 290 288 287 287 287 287 286 287 288 287 286 286 285 285 286 287
316 318 320 320 322 318 307 298 308 320 317 299 307 312 310 312 313 303 299 301 298 297 297 297 295 292 291 290 289 288 287 287 287 288 287 287 286 287 286 286 286 287 287 285
316 318 320 319 321 321 300 304 314 308 295 295 302 303 304 302 301 298 297 296 296 295 294 293 292 290 290 289 289 288 287 288 288 288 287 286 286 286 286 288 289 288 285 284
313 312 315 316 318 307 301 298 297 296 296 300 301 300 299 300 298 297 295 294 293 292 292 292 291 289 289 289 289 288 288 288 288 288 288 288 288 288 289 288 285 284 283 283
303 303 307 311 307 306 303 297 295 294 295 295 297 297 295 298 295 294 292 291 290 286 288 291 290 288 287 289 290 291 290 291 291 291 290 289 288 287 286 285 285 285 284 283
301 302 307 307 303 303 302 298 296 294 292 293 293 294 294 294 292 292 288 286 285 285 288 291 290 288 287 290 290 291 291 290 289 288 287 286 286 285 285 284 285 285 284 284
298 302 308 310 303 304 305 299 296 293 292 292 292 292 290 291 290 288 286 285 285 285 287 288 288 287 287 290 291 290 290 290 289 287 286 286 285 285 284 283 282 281 281 281

GFSCGP_925_thetae_054.txt.gz
Theta_e
308 309 311 310 308 310 308 311 312 310 311 311 310 309 308 308 305 304 304 303 303 303 305 304 305 305 305 306 308 310 311 311 313 316 318 318 320 321 322 323 324 324 324 323
309 310 309 309 308 311 311 312 311 310 310 311 310 310 309 308 306 306 307 306 305 304 300 301 303 304 304 306 308 310 311 312 313 316 317 316 318 316 318 318 318 318 319 319
310 312 309 310 310 311 310 310 310 312 311 308 309 310 309 308 306 306 305 306 305 306 305 300 299 301 303 305 307 310 311 311 313 314 315 314 313 311 310 310 312 312 314 314
310 310 312 311 311 311 312 309 310 312 313 313 310 313 310 310 309 308 308 306 306 306 303 301 299 299 302 304 306 309 311 311 312 313 313 314 313 304 306 310 310 310 310 309
312 311 312 312 312 310 312 310 310 312 311 313 311 313 311 310 311 311 311 309 306 305 302 301 300 301 302 303 305 308 310 310 311 311 311 311 310 309 309 306 305 304 303 303
310 309 310 312 310 310 309 311 310 309 310 315 312 312 313 311 312 311 310 310 307 304 301 300 300 301 301 303 305 307 309 308 308 309 310 309 311 307 302 298 298 296 297 296
311 311 310 310 312 310 311 313 315 313 313 316 310 312 314 310 310 309 311 309 306 305 301 298 297 298 301 302 304 306 307 306 307 306 306 305 308 308 307 301 298 294 291 289
312 311 310 309 312 313 311 313 314 313 312 311 310 314 313 309 308 307 306 306 306 303 300 297 296 298 301 302 303 304 305 304 305 305 304 304 305 305 302 302 298 297 292 290
310 311 310 309 310 312 312 314 312 313 297 309 310 309 309 309 309 308 307 306 306 302 301 297 296 299 300 301 302 303 304 303 304 303 302 302 302 301 299 298 296 292 291 289
311 312 310 310 310 310 311 310 314 311 313 311 311 312 313 315 311 310 309 309 307 303 301 296 295 298 300 301 302 303 304 302 303 302 301 300 300 299 298 298 296 292 289 288
311 313 311 310 310 311 312 313 312 312 311 312 311 313 308 311 311 311 310 309 307 304 300 296 295 297 299 301 301 302 303 302 300 300 300 298 298 298 299 297 294 290 288 288
310 312 314 312 308 307 309 311 311 312 311 309 311 316 309 309 308 308 309 309 307 303 300 296 294 296 297 299 299 300 300 300 301 301 298 297 300 297 296 294 291 289 288 287
312 316 314 315 312 308 310 309 310 309 306 311 313 316 306 307 306 308 308 307 304 302 298 294 292 292 294 295 296 297 298 298 300 299 297 295 297 297 293 292 290 288 287 286
314 316 316 319 315 311 310 309 310 313 315 316 314 315 313 311 310 307 306 304 303 302 298 294 292 291 293 294 294 295 295 297 298 298 296 295 295 296 293 291 289 287 286 286
316 316 315 315 312 311 311 311 311 313 314 314 315 314 314 312 310 309 307 306 305 302 299 295 294 292 292 292 293 293 294 294 296 295 294 294 295 294 291 289 287 287 286 285
315 318 315 317 315 313 314 311 311 312 313 313 314 314 314 311 309 308 307 308 306 302 301 298 295 292 292 292 292 292 292 292 293 293 292 292 291 289 288 287 286 286 285 285
316 315 316 321 316 314 318 316 317 314 313 313 315 314 313 314 312 311 311 306 307 304 303 302 297 295 294 292 293 292 291 290 291 290 290 290 289 288 287 286 286 285 285 284
314 313 315 320 316 322 316 312 314 316 315 313 313 314 314 313 312 309 308 308 306 306 305 301 299 297 296 294 293 292 291 289 289 289 288 288 288 287 286 285 285 284 284 284
316 314 318 321 321 319 315 312 312 313 316 314 313 312 312 312 307 311 306 305 307 305 303 302 304 301 298 294 293 291 290 288 288 288 287 287 287 286 286 285 284 284 284 283
312 317 316 317 322 322 315 311 309 311 319 314 313 314 314 312 314 315 308 305 303 301 300 300 301 300 297 294 292 290 288 287 287 287 287 287 287 287 286 285 285 285 285 285
315 316 319 319 321 317 307 299 307 319 314 298 304 311 311 311 312 303 300 301 297 296 296 297 296 294 293 292 291 288 287 286 287 287 287 286 286 286 286 286 286 288 285 284
315 316 319 318 320 321 301 306 313 306 296 295 301 301 303 302 300 299 297 296 294 294 294 292 290 289 289 290 289 286 286 287 287 287 287 286 286 286 286 286 286 285 283 284
313 312 314 316 315 309 300 306 303 297 299 298 300 300 299 298 298 296 295 293 291 291 291 290 289 287 288 288 289 286 287 287 287 287 286 286 286 286 286 285 284 284 285 286
302 303 309 310 307 309 303 301 298 296 298 297 296 297 296 297 296 295 293 292 291 285 287 288 287 285 286 288 289 289 287 288 287 287 286 286 286 286 286 286 286 287 287 285
301 301 305 307 305 301 301 299 299 297 293 293 293 295 295 294 294 293 290 286 285 284 287 288 287 285 286 288 289 289 289 289 289 288 287 287 287 287 287 287 287 287 287 286
299 302 307 307 304 303 303 297 298 295 293 292 293 293 291 292 292 289 287 286 285 285 287 287 286 286 286 287 287 287 289 290 290 288 287 287 287 286 286 284 282 282 283 282

GFSCGP_925_thetae_057.txt.gz
Theta_e
307 309 311 309 308 308 308 310 311 309 309 311 310 309 309 308 305 305 306 305 305 304 306 306 307 307 307 307 307 308 309 311 312 314 315 318 320 323 324 327 328 328 328 328
308 310 309 307 307 310 310 311 311 309 309 310 310 311 310 308 310 309 309 309 307 307 303 303 304 305 306 306 306 307 309 311 312 312 315 315 319 321 322 323 323 322 325 323
309 310 307 309 308 309 309 310 310 311 310 308 308 310 309 308 306 307 306 308 307 308 308 304 300 303 303 304 305 307 308 310 311 312 314 315 316 316 315 316 320 321 322 321
309 308 310 309 310 309 311 307 309 311 312 313 309 312 310 309 309 308 308 307 307 307 305 303 300 300 302 304 305 306 307 309 311 312 313 315 314 310 311 317 318 318 318 318
310 310 310 311 310 308 311 307 308 310 311 312 311 313 312 309 310 310 310 309 308 306 304 304 301 302 303 302 303 305 306 308 310 311 313 313 313 314 315 314 313 312 312 311
309 308 309 310 309 309 307 309 309 308 310 314 311 312 310 309 311 310 309 309 308 305 303 301 302 302 301 302 303 304 305 307 309 310 311 313 312 311 309 308 307 307 307 306
311 310 310 309 310 309 310 311 313 312 314 317 309 311 313 309 308 308 310 310 307 305 304 302 299 298 299 301 302 303 304 306 308 309 309 310 310 311 311 311 308 306 303 302
311 311 310 308 310 312 310 311 312 311 310 309 309 313 312 308 307 306 305 305 305 305 303 302 299 298 299 300 302 302 302 304 305 307 308 309 309 309 308 309 308 307 307 305
308 309 308 308 309 310 311 313 310 311 296 308 309 307 306 307 308 308 308 306 305 304 303 302 299 298 299 300 301 302 302 303 304 305 305 306 306 306 304 304 305 303 303 303
309 311 310 309 310 310 310 309 313 310 311 309 309 309 311 311 312 309 308 307 306 304 303 301 297 297 299 300 301 302 302 303 303 303 304 304 304 303 303 303 303 303 301 296
310 311 310 309 310 310 311 312 311 310 310 311 309 311 306 309 308 309 308 308 308 306 303 301 297 297 299 300 301 301 302 302 301 301 303 304 303 301 301 302 301 300 297 293
309 312 313 310 308 306 308 310 311 312 310 308 309 314 309 308 309 308 308 308 307 305 303 299 297 297 297 299 300 300 301 301 302 301 301 304 303 300 299 298 298 298 295 291
310 315 310 315 311 308 309 308 309 308 306 309 313 315 306 306 307 308 307 307 304 304 302 298 295 294 296 297 298 299 300 300 300 300 300 300 300 298 297 297 297 296 293 289
313 315 315 319 314 310 310 309 310 312 314 315 312 313 312 311 310 308 307 305 304 303 301 298 295 294 295 296 297 298 298 299 299 299 298 297 297 297 297 297 297 296 293 289
316 318 316 315 314 311 311 310 311 313 313 315 315 314 313 312 311 310 309 305 305 305 301 299 298 296 293 294 295 296 297 297 297 297 296 295 295 295 293 294 294 292 289 288
314 315 316 317 314 315 313 310 310 312 312 313 314 314 313 312 307 307 307 309 309 306 304 302 300 296 294 294 294 294 295 295 294 294 294 293 293 293 292 291 291 290 287 286
315 314 316 320 316 316 316 315 314 312 311 312 313 313 312 312 311 309 308 306 308 307 306 307 302 299 297 296 296 294 294 293 293 293 293 293 292 291 290 290 288 286 285 284
311 310 314 319 315 320 317 313 314 315 314 312 312 313 313 313 311 309 309 308 308 306 306 304 304 301 301 300 297 295 294 293 291 291 291 291 291 289 289 288 287 285 284 283
309 310 314 318 320 316 313 311 311 314 316 314 314 313 313 312 308 309 309 304 308 307 305 303 304 303 303 301 298 295 293 291 289 289 289 289 289 287 286 285 284 283 283 282
307 311 312 313 316 318 314 309 307 310 317 311 311 313 312 309 312 313 305 302 303 300 299 298 299 300 300 298 296 293 290 289 288 288 288 288 288 287 286 285 284 283 283 282
310 312 315 317 318 317 309 302 308 319 314 298 301 309 307 309 311 305 300 301 298 295 296 296 296 295 295 294 292 290 289 287 288 288 288 288 287 287 287 285 283 283 282 282
307 309 313 314 317 318 304 306 313 311 298 296 301 302 303 303 302 300 297 296 295 294 294 293 291 290 290 290 290 288 287 288 288 288 287 287 286 286 285 285 283 283 283 282
308 309 314 313 314 308 305 306 306 303 305 300 300 301 300 301 300 299 297 295 293 291 291 289 289 287 287 288 289 287 286 287 287 287 286 286 285 285 285 284 283 283 284 286
303 303 308 307 301 304 305 303 298 298 298 298 298 299 298 300 298 296 294 292 291 286 286 287 286 285 286 287 288 289 287 287 287 286 285 285 285 285 285 285 285 285 286 285
298 300 303 302 302 301 303 300 301 301 297 295 295 296 296 295 295 294 291 287 285 285 286 286 285 285 285 287 287 286 286 286 286 286 285 285 285 285 285 285 286 287 287 286
298 301 303 303 301 303 303 297 294 296 297 295 292 292 291 292 293 289 287 285 285 286 286 285 285 284 284 285 286 287 288 288 287 286 285 286 286 286 285 285 284 285 285 286

GFSCGP_925_thetae_060.txt.gz
Theta_e
311 316 317 316 316 313 314 315 315 314 312 315 316 317 316 316 316 315 315 316 316 316 315 312 311 309 309 310 310 311 311 312 314 314 315 315 317 323 324 325 326 326 327 331
314 315 316 312 312 313 314 316 316 315 312 313 316 316 316 316 316 316 317 317 317 317 316 313 310 309 308 309 309 310 311 312 313 313 314 314 313 320 322 324 325 324 327 329
314 314 312 312 312 314 314 316 315 315 313 312 314 316 317 316 314 314 315 315 316 316 316 316 311 309 308 308 309 309 310 311 312 313 313 309 313 316 318 319 322 324 324 326
314 312 312 312 313 314 315 313 314 314 315 316 313 314 315 315 315 314 315 316 316 315 315 314 313 309 308 308 308 308 309 310 311 312 310 310 313 313 313 318 321 321 321 323
314 313 313 314 314 313 315 311 313 313 316 316 316 316 314 313 314 315 316 316 317 316 315 314 312 310 309 307 307 308 308 309 310 311 310 311 313 314 314 317 319 317 318 320
312 309 312 314 310 311 311 314 314 315 317 317 315 316 314 314 315 315 315 315 316 315 314 312 310 308 307 306 306 307 308 308 309 309 310 310 312 313 309 313 313 313 314 314
313 313 311 311 313 311 313 316 316 319 321 318 314 316 315 314 313 313 315 315 314 312 312 312 311 307 305 304 305 306 307 307 308 308 309 310 311 310 309 309 309 310 309 309
314 313 313 312 314 315 314 316 316 320 318 314 311 316 316 315 313 312 312 313 313 310 312 312 312 309 306 304 305 306 306 307 307 306 308 308 310 308 308 308 307 307 310 314
312 313 310 310 311 313 314 315 314 315 308 314 313 314 314 313 312 312 313 314 315 313 312 312 311 308 305 304 305 305 305 305 306 305 307 307 307 306 306 306 306 306 309 310
312 312 310 310 311 311 313 313 316 315 322 319 313 314 315 315 315 316 313 313 314 313 313 312 310 307 304 304 304 304 305 305 305 304 305 305 303 304 306 306 304 305 306 306
313 313 313 311 313 314 313 314 314 314 316 318 317 314 314 315 315 314 314 313 314 313 312 311 309 305 303 303 303 304 304 304 304 303 304 303 302 304 305 304 303 302 303 305
313 314 316 314 311 310 312 314 314 316 318 315 316 317 311 313 314 313 314 312 312 311 310 308 307 304 303 302 303 303 304 304 304 302 303 302 301 300 302 302 302 300 302 302
313 316 321 319 314 310 312 313 312 314 314 321 321 317 312 312 312 313 313 313 312 310 310 308 305 305 304 303 303 303 303 303 302 302 301 300 300 299 299 299 300 299 298 298
313 316 319 322 319 315 314 313 313 314 317 317 317 316 315 315 314 313 313 313 312 312 311 310 308 307 305 303 302 302 302 302 301 300 300 300 299 298 300 299 298 297 296 295
315 317 317 318 318 314 315 315 314 314 315 317 317 317 316 315 315 314 314 313 314 312 311 309 309 308 306 302 301 300 301 301 300 299 298 299 298 297 298 297 296 295 294 294
312 315 316 318 318 318 318 316 314 314 315 315 315 316 316 315 315 315 313 313 313 313 313 313 309 307 305 304 301 300 300 300 299 298 297 298 297 294 295 295 294 293 292 290
313 314 314 317 317 318 319 318 318 317 315 316 317 316 316 316 315 315 314 313 312 313 313 313 311 310 308 306 304 301 300 299 297 296 296 296 294 293 293 292 292 290 289 288
309 311 312 318 317 319 318 316 316 317 317 316 314 315 316 316 315 314 314 313 313 313 311 311 311 310 309 305 304 300 299 297 295 294 294 294 292 291 291 290 289 288 287 286
308 309 312 314 316 314 314 316 316 317 318 316 316 316 315 315 314 314 313 313 312 312 312 310 308 306 304 303 301 298 296 295 293 293 293 292 291 290 289 288 287 286 285 284
307 309 310 312 313 312 310 311 310 313 318 315 316 316 316 315 317 317 312 307 308 306 303 302 301 300 300 301 299 296 293 292 291 291 292 291 290 290 288 288 287 286 285 284
308 307 310 310 312 312 310 309 309 316 316 306 311 314 314 314 314 314 305 305 302 300 298 297 297 297 296 294 294 292 291 290 291 290 290 289 289 289 288 287 286 285 283 282
304 307 309 312 313 314 306 308 315 309 307 305 305 306 308 308 306 305 302 301 300 298 296 294 293 292 290 290 291 290 289 289 289 289 288 288 287 287 286 285 284 284 282 282
304 305 307 308 308 310 308 309 308 306 304 306 307 305 302 303 303 302 301 299 297 295 293 290 289 288 288 288 289 289 288 287 287 287 286 286 285 285 285 284 283 283 282 282
305 304 306 305 306 306 306 306 307 303 304 305 303 300 300 301 301 300 298 296 294 290 289 287 287 286 286 286 287 287 286 286 286 285 285 284 285 284 284 284 284 284 283 283
299 301 303 304 303 303 303 303 303 301 301 300 298 297 298 298 299 298 295 292 290 288 287 286 286 285 285 285 286 286 286 286 285 285 285 285 285 285 285 284 284 284 284 285
300 301 300 301 300 301 303 301 297 297 298 298 297 297 294 293 294 292 291 289 288 288 286 285 284 284 283 285 286 286 286 286 286 285 285 285 285 285 285 284 284 285 285 287

GFSCGP_925_thetae_063.txt.gz
Theta_e
316 316 316 316 316 316 316 316 316 316 315 316 316 316 316 317 317 317 317 317 317 318 318 317 316 314 317 318 319 320 320 319 320 319 319 320 320 319 325 327 327 329 332 330
315 316 316 316 316 316 316 316 316 316 316 315 316 316 316 317 317 317 317 317 317 318 318 318 317 315 314 315 317 316 315 315 315 316 317 318 318 317 317 321 324 328 330 330
314 314 314 315 315 315 316 316 315 316 316 315 316 317 316 317 317 317 317 317 317 318 318 318 319 315 314 313 314 314 314 314 315 316 316 316 316 315 312 316 321 323 325 326
314 314 314 314 314 314 314 315 315 315 315 315 316 316 315 316 316 317 317 318 317 318 318 317 318 317 314 313 313 313 313 313 314 315 315 316 313 312 312 314 319 321 322 322
314 315 315 315 314 314 316 314 315 316 317 318 317 317 315 315 315 316 317 318 318 319 319 318 318 316 315 313 313 312 312 313 313 314 314 315 312 313 314 314 317 317 319 321
315 312 314 315 313 314 314 316 317 317 317 316 316 316 315 316 315 316 316 317 318 317 317 317 315 315 314 313 312 312 312 312 312 313 314 314 312 314 316 313 313 311 315 318
315 314 313 313 314 313 315 316 315 317 321 318 316 316 316 315 315 316 316 316 317 316 316 316 315 312 311 311 310 311 311 311 311 312 312 313 313 314 315 312 310 309 312 315
318 317 314 313 315 315 316 316 317 319 319 318 314 317 316 316 316 316 315 315 316 316 315 315 316 315 312 310 309 309 310 310 310 311 311 311 312 313 314 314 309 310 313 317
316 315 313 313 313 314 315 317 316 318 318 316 315 315 315 316 315 315 315 315 316 316 317 315 315 314 313 310 309 309 309 309 310 310 310 310 311 312 313 311 312 309 313 314
314 314 312 312 312 313 314 314 316 315 323 320 315 315 316 316 316 316 316 316 316 316 316 316 315 314 311 309 309 309 309 309 308 309 309 309 310 310 312 310 310 309 308 308
314 314 314 312 314 314 314 314 314 315 316 318 319 316 316 316 316 316 317 317 316 316 316 314 314 311 309 308 308 308 308 308 308 308 308 307 309 309 309 308 307 305 305 307
314 314 317 315 313 313 314 314 314 316 317 316 317 318 316 315 315 316 315 316 316 315 314 313 312 310 308 307 307 307 307 307 307 307 306 306 307 306 306 305 303 302 304 305
314 317 321 321 317 313 313 314 314 315 316 321 322 318 315 316 315 315 315 316 316 315 315 314 312 310 309 309 307 307 307 307 307 306 305 305 305 305 304 303 301 302 303 302
313 317 320 322 319 318 316 315 315 315 318 318 318 317 316 316 316 316 316 315 315 316 315 314 314 313 311 309 308 307 307 306 306 305 305 304 305 304 303 302 300 301 303 302
312 317 318 319 318 318 319 320 317 316 316 317 317 317 317 316 316 316 317 316 315 315 314 314 313 314 313 312 308 306 306 306 305 305 304 303 303 302 302 301 299 298 300 301
310 314 314 313 312 313 316 316 319 318 317 316 316 317 316 316 316 316 316 316 316 315 315 314 314 313 311 311 310 307 306 305 304 304 303 302 302 301 300 299 296 296 298 297
312 314 313 313 312 314 318 317 317 318 318 318 318 317 316 316 316 316 317 317 316 315 315 314 313 313 313 311 309 308 306 305 303 303 302 301 300 300 298 296 295 294 294 293
309 309 310 312 310 314 312 310 315 317 317 318 318 317 317 317 316 316 315 316 316 315 314 314 314 314 313 311 308 307 305 304 302 301 300 299 298 298 296 294 293 293 292 292
306 307 308 308 308 308 309 311 312 314 313 314 317 316 316 316 316 316 316 315 315 315 314 312 308 307 306 305 304 302 300 299 299 298 297 296 296 295 293 292 291 290 290 288
305 306 308 308 309 308 305 307 308 309 314 311 309 310 310 313 317 317 314 311 310 309 306 304 302 302 302 302 298 297 297 296 295 295 295 295 294 293 292 291 290 289 288 287
309 308 308 308 309 309 307 307 308 312 313 307 306 307 308 308 309 309 308 308 306 303 300 299 299 299 297 294 293 293 294 293 293 292 292 293 292 292 291 290 289 288 286 285
301 305 308 309 310 311 309 310 312 308 305 304 304 305 307 307 306 305 305 304 302 301 298 296 294 295 292 291 291 291 291 290 290 290 290 290 290 289 289 288 287 286 284 283
300 300 302 305 306 309 308 310 310 306 304 303 303 304 304 305 305 304 304 302 300 298 295 292 290 289 289 288 289 289 288 288 288 288 287 287 287 287 287 286 285 284 283 283
301 301 303 303 302 303 303 304 303 304 306 305 304 305 305 305 304 302 301 301 299 295 292 290 288 288 287 287 287 287 287 287 287 286 286 286 286 285 285 285 285 284 284 284
298 298 300 301 300 301 303 304 302 302 302 301 301 301 301 299 300 301 299 296 294 292 290 288 288 287 286 286 286 285 286 286 286 285 285 286 285 285 285 285 285 285 285 284
297 297 298 299 299 300 300 299 299 300 300 300 299 298 297 295 296 295 294 292 290 290 288 286 286 285 285 285 285 286 286 286 286 285 285 285 286 286 285 285 285 285 285 285

GFSCGP_925_thetae_066.txt.gz
Theta_e
315 314 314 314 314 314 315 315 314 315 314 315 315 314 313 313 312 312 311 312 311 312 313 317 316 316 318 323 326 331 332 331 328 328 328 328 329 330 331 330 330 331 330 329
314 315 315 316 316 316 316 315 314 314 314 314 314 313 312 312 312 312 312 312 311 312 311 313 316 316 316 318 323 328 329 329 326 325 325 325 326 326 328 329 328 328 328 328
315 314 314 315 315 316 315 314 313 314 315 313 313 313 313 313 313 312 312 312 312 312 311 312 313 315 315 316 319 322 325 325 324 323 322 321 321 321 319 320 324 325 325 326
314 313 314 315 315 314 314 314 314 315 314 313 315 314 312 312 311 313 313 312 311 311 312 312 312 314 315 315 315 318 318 318 319 319 318 318 317 317 316 316 315 318 321 322
314 314 314 315 314 313 315 314 314 315 316 316 315 314 312 310 311 311 312 312 311 312 313 312 311 315 315 315 314 314 316 315 315 315 316 317 316 316 315 314 313 313 314 319
314 312 314 314 312 314 314 316 316 317 316 313 314 313 310 310 313 314 314 315 316 315 314 313 315 316 316 315 314 313 313 314 314 314 315 316 316 315 313 313 313 313 312 316
315 313 313 313 313 313 315 314 313 317 318 315 314 312 312 312 312 313 314 312 311 314 313 313 313 311 313 314 314 313 313 313 313 314 314 315 315 315 313 314 314 312 312 315
319 318 313 312 314 314 314 314 314 316 318 315 311 313 313 313 314 313 314 312 311 311 310 310 311 312 311 312 312 312 312 312 312 312 313 314 314 314 313 314 314 313 313 310
317 317 312 312 313 314 315 315 314 314 306 313 313 312 312 312 312 311 311 311 310 310 311 312 310 313 313 311 310 310 310 311 311 311 312 313 313 314 313 313 315 313 312 310
315 315 312 311 312 312 313 313 315 314 314 314 312 311 312 312 312 311 313 314 312 312 312 311 310 312 312 311 310 309 309 309 310 310 311 311 311 312 312 312 313 313 311 310
314 315 313 312 312 312 312 312 313 313 313 316 313 311 312 313 313 314 314 314 312 312 311 310 309 310 310 309 309 309 309 309 309 309 309 310 310 310 310 311 312 312 311 310
313 315 314 313 312 311 311 311 312 313 314 312 313 314 312 312 311 312 314 313 315 313 311 310 309 309 308 308 308 308 308 308 308 308 308 309 309 308 309 310 311 310 310 309
315 315 314 317 316 312 312 312 312 312 310 314 313 314 310 312 311 311 313 311 311 313 312 311 308 306 308 308 308 308 308 308 308 308 307 308 307 307 308 309 309 308 307 307
315 317 317 318 319 318 318 317 316 314 316 314 314 314 313 313 312 312 311 310 310 310 310 309 308 308 310 310 310 309 309 308 308 308 307 307 307 306 306 307 306 306 305 304
314 315 315 316 316 317 317 318 318 320 319 317 316 315 314 314 313 312 311 311 311 311 311 309 309 308 310 311 311 310 309 308 308 307 307 307 307 305 305 305 305 304 302 301
311 313 311 308 312 310 310 309 310 313 315 317 317 316 313 313 313 313 313 312 312 312 312 310 309 308 309 310 311 311 310 308 307 306 306 306 305 305 304 304 303 303 300 299
312 311 311 307 309 309 313 309 309 310 311 313 316 315 314 314 314 314 313 313 314 313 313 311 309 309 310 311 311 310 309 308 306 305 305 305 304 303 303 303 302 301 299 297
306 308 305 304 302 308 308 305 308 311 311 314 315 315 314 314 313 313 312 311 312 312 311 310 308 307 308 307 307 306 306 306 304 304 304 303 302 302 301 301 300 299 297 295
306 306 299 303 301 302 303 302 301 303 305 310 310 310 308 307 306 309 304 305 306 306 305 305 303 303 303 303 303 302 302 301 300 300 301 301 300 299 299 299 298 296 294 292
303 305 306 296 299 296 302 302 302 303 305 305 307 307 307 306 308 309 305 303 303 304 303 300 299 299 300 297 296 295 295 296 296 297 297 297 296 296 297 296 295 293 292 291
303 299 305 304 306 304 302 302 302 305 304 299 304 303 303 305 305 305 304 303 302 301 300 299 298 296 296 294 292 292 293 293 293 293 293 293 294 294 294 293 292 291 289 288
299 298 300 300 305 304 305 306 309 307 305 303 302 302 302 302 302 303 303 300 298 298 299 297 295 293 293 291 290 290 291 290 290 290 291 291 292 291 291 291 289 288 287 286
297 297 293 299 298 302 304 304 304 305 303 303 302 300 301 300 301 302 302 302 300 300 299 297 294 291 290 289 288 288 289 288 288 288 288 288 289 289 289 288 287 286 285 284
296 297 297 297 297 297 297 298 297 302 302 302 301 300 299 299 299 299 299 299 299 298 297 295 292 289 288 288 286 286 286 287 287 287 286 287 287 286 286 286 286 285 284 283
294 295 295 296 296 297 296 296 298 297 297 296 296 297 297 296 296 295 295 294 294 293 293 291 289 288 286 286 286 285 285 286 286 286 286 286 285 285 285 285 285 284 284 284
294 295 295 296 294 295 296 295 293 294 295 295 294 295 295 294 294 292 291 291 291 289 289 288 286 285 285 284 285 286 286 286 286 286 286 285 285 285 285 285 285 285 285 285

GFSCGP_925_thetae_069.txt.gz
Theta_e
313 310 310 310 310 311 313 314 313 312 313 313 312 311 310 310 308 307 307 307 307 308 310 313 314 316 318 323 326 330 333 333 334 334 334 334 333 333 333 334 334 333 334 333
310 310 310 311 313 313 314 314 312 311 313 313 311 311 309 309 310 309 309 306 306 307 308 310 312 314 315 318 325 328 331 333 333 333 332 331 331 331 331 332 332 330 331 330
312 313 311 314 314 314 314 313 312 312 312 311 310 309 310 310 309 309 308 307 308 308 308 307 309 312 314 316 320 325 329 332 332 331 330 329 328 328 329 330 330 330 329 329
313 312 312 313 313 312 313 312 312 312 311 310 311 310 310 311 309 308 308 307 307 307 307 307 308 310 312 314 316 320 324 328 331 331 328 327 326 324 325 326 328 329 329 327
311 311 312 313 312 311 312 313 313 313 313 314 312 311 309 308 309 308 307 306 307 307 307 308 308 311 313 314 315 316 320 325 328 329 328 325 323 322 322 321 322 324 326 326
311 311 312 311 311 311 312 313 313 313 311 310 311 309 307 308 309 311 311 310 309 312 312 312 313 314 313 313 313 314 317 320 323 324 324 322 320 318 318 318 316 317 316 317
313 312 311 311 311 311 313 310 310 313 313 310 309 309 309 309 309 311 313 311 309 310 310 308 309 310 312 313 313 313 314 316 317 317 318 318 318 317 316 316 315 314 313 312
316 317 311 310 311 312 312 309 310 312 316 313 309 312 312 308 310 311 312 308 307 307 306 307 306 309 311 310 312 313 312 312 314 314 314 314 315 315 315 315 315 314 313 312
315 316 311 311 311 311 312 313 311 312 300 309 310 309 308 309 308 309 307 309 309 309 309 309 308 309 310 311 310 311 312 312 312 312 313 313 314 314 315 314 314 314 313 313
313 315 310 310 311 311 311 311 313 311 310 311 309 309 311 309 309 311 312 313 309 309 309 307 306 309 311 311 311 310 310 310 311 311 311 312 312 313 313 314 314 313 313 313
312 312 312 311 311 311 311 311 312 311 311 312 311 310 306 309 311 311 312 310 310 311 310 308 307 309 310 310 310 309 309 309 309 309 310 311 311 311 312 312 313 313 312 313
312 312 310 311 309 309 309 310 310 312 311 309 311 313 309 307 308 309 309 309 308 310 309 307 307 308 308 309 309 309 309 309 309 309 309 309 310 310 310 311 311 311 311 312
314 312 307 312 313 311 312 310 310 310 307 310 310 313 309 308 308 309 309 307 306 307 306 307 306 305 307 308 309 309 310 310 310 309 309 309 309 309 309 309 309 309 310 311
313 314 310 312 316 316 316 316 316 317 309 312 312 312 311 311 311 311 308 307 307 307 307 306 305 305 307 309 310 310 311 310 310 309 308 308 309 309 308 308 308 308 309 309
314 316 315 315 314 315 318 317 316 317 317 319 316 317 316 315 313 311 309 309 309 308 308 309 307 306 309 309 310 310 310 310 309 308 308 308 308 308 307 307 306 306 307 307
311 311 311 311 311 313 311 312 312 312 314 315 315 316 313 312 311 311 310 310 310 310 309 308 308 307 307 308 308 308 309 308 307 307 307 308 307 307 306 306 306 305 305 305
309 309 309 301 307 307 305 308 308 308 308 309 311 310 309 310 311 310 309 307 306 306 306 306 304 304 303 304 304 305 305 305 305 305 305 305 305 305 305 304 304 304 304 303
309 308 307 296 296 297 302 302 303 306 307 308 309 310 309 307 305 305 305 304 304 304 304 303 302 300 300 300 301 301 302 302 301 302 302 302 302 303 303 302 303 303 302 301
304 304 304 301 291 297 300 299 300 300 299 299 300 304 304 303 302 304 304 303 303 302 302 302 301 300 299 299 297 296 297 298 298 298 298 299 299 299 300 300 300 300 300 298
305 304 301 284 291 294 296 298 298 299 301 303 303 303 302 301 304 303 301 301 302 302 302 301 301 299 298 298 297 295 294 293 295 296 296 296 295 296 296 297 297 297 297 296
301 303 305 303 303 298 298 297 301 301 300 300 302 303 301 302 302 301 300 301 301 301 301 302 300 298 298 294 292 293 292 292 292 292 292 293 293 293 294 294 294 294 293 292
298 301 297 303 303 303 299 302 304 302 301 301 301 301 301 301 299 299 300 299 298 298 299 300 298 297 296 293 291 290 289 291 291 290 290 291 291 292 292 292 291 291 290 288
293 296 295 298 297 299 297 298 300 303 299 300 302 300 299 298 298 297 297 297 297 296 297 296 296 293 293 291 289 288 290 288 288 288 288 289 289 289 290 290 289 288 287 286
294 295 294 294 295 295 296 296 295 298 299 298 298 297 296 297 295 294 293 295 295 294 293 292 291 289 289 289 288 286 286 287 286 287 287 287 287 287 287 287 287 287 285 284
292 294 292 293 294 295 295 295 295 294 293 292 292 293 294 293 293 292 292 291 292 291 290 289 289 288 287 286 286 286 286 285 286 286 286 286 286 286 286 286 285 285 285 285
291 292 293 292 293 293 293 293 293 292 292 291 291 291 291 291 291 291 289 290 289 288 287 287 287 286 285 285 285 285 285 285 286 285 285 285 285 285 285 285 285 285 284 284

GFSCGP_925_thetae_072.txt.gz
Theta_e
311 308 310 309 308 309 310 312 312 311 312 312 311 310 309 308 307 306 305 305 305 305 308 309 311 312 316 322 324 326 329 331 333 334 334 334 335 335 335 335 335 334 333 332
309 308 308 309 309 310 311 312 311 310 312 312 310 309 308 307 308 307 307 305 304 305 305 308 311 311 311 315 320 324 327 329 332 333 333 333 334 334 335 335 335 334 333 333
309 310 309 312 312 312 312 311 311 311 310 309 309 306 307 308 308 308 306 305 304 304 304 304 306 309 311 311 314 320 324 328 330 332 332 332 332 331 332 332 333 333 333 333
312 311 310 311 312 310 312 311 311 311 310 309 308 307 307 308 308 306 305 303 303 304 304 305 305 307 309 312 313 315 321 326 329 331 331 331 330 329 329 330 331 331 331 332
311 311 311 312 311 310 310 311 312 312 311 312 310 309 306 307 308 306 305 305 308 308 307 309 309 311 312 310 311 312 317 323 327 329 331 331 329 328 328 327 327 328 329 329
310 310 310 310 310 310 310 311 309 310 307 308 308 306 305 306 308 310 309 308 305 306 305 305 308 310 311 313 312 311 313 319 325 328 329 329 328 326 325 325 325 325 326 327
312 312 311 310 311 311 309 307 308 309 310 308 307 307 306 307 307 309 308 306 305 304 305 305 305 307 309 310 311 311 311 314 318 323 325 326 327 326 326 324 323 322 322 321
313 315 311 310 310 311 309 307 308 308 311 309 308 310 310 308 307 307 305 306 307 307 306 307 306 307 309 311 311 311 312 312 313 316 320 323 324 324 323 322 320 319 318 318
314 314 310 310 309 310 312 311 307 309 298 308 308 307 307 307 307 307 308 307 308 308 307 307 307 310 310 312 312 312 311 311 312 312 312 314 315 316 317 317 316 315 315 314
313 314 310 310 310 309 310 309 312 309 307 308 308 308 309 309 310 308 308 308 308 307 307 306 306 309 310 310 311 311 310 310 310 310 311 311 312 312 313 313 314 314 314 314
310 312 312 310 310 310 311 311 310 310 309 310 309 309 305 308 308 308 309 307 306 306 306 306 307 309 309 309 309 309 309 310 310 310 309 310 310 311 311 312 312 313 313 313
312 310 310 310 308 307 308 310 310 311 310 308 310 311 307 306 306 308 308 307 305 305 305 304 305 307 307 308 309 309 309 309 311 311 310 310 310 310 310 310 311 311 311 312
312 312 309 312 312 311 310 311 309 308 306 309 309 312 306 306 310 309 309 307 305 305 305 304 305 307 307 308 308 308 309 309 310 309 309 310 310 309 309 309 309 309 310 310
313 312 311 313 314 314 314 315 316 312 308 311 310 311 309 311 313 312 310 307 305 306 305 305 304 305 305 305 305 306 307 307 307 307 307 308 309 309 309 309 308 308 308 308
313 310 313 314 313 315 315 315 315 316 315 315 314 315 314 312 311 310 307 307 307 306 305 304 303 303 304 304 304 304 305 306 306 306 305 306 307 307 307 307 307 306 306 306
310 312 310 310 311 313 313 311 311 313 313 314 314 314 310 308 307 307 306 306 305 305 304 304 303 302 301 301 301 301 301 302 302 303 304 304 304 304 305 305 305 305 304 305
310 309 306 304 305 305 302 306 310 309 308 309 310 309 307 307 307 306 305 304 304 303 303 303 301 301 300 300 300 300 301 301 300 299 300 300 301 302 303 302 302 303 303 303
304 302 298 297 296 305 303 301 303 306 306 306 306 306 305 304 302 302 303 304 303 302 302 301 301 301 301 300 300 299 299 299 299 299 298 298 297 297 298 299 300 301 301 301
304 304 302 299 292 298 302 299 299 300 301 301 301 303 302 300 299 302 301 301 302 300 301 301 301 300 300 300 299 297 298 298 296 296 297 296 295 294 295 295 296 297 298 298
304 304 304 290 301 297 297 298 296 298 297 301 302 302 302 300 301 299 300 299 299 300 300 300 300 299 298 298 296 295 295 293 294 294 293 292 293 294 293 294 294 294 295 295
306 306 308 298 302 296 296 298 299 297 298 297 301 302 301 301 299 299 297 298 298 297 297 298 297 296 295 294 293 292 291 291 292 291 291 292 291 291 293 293 293 293 293 292
300 301 297 302 303 302 297 297 300 297 299 299 299 299 300 299 298 297 296 295 294 294 295 296 294 293 293 291 291 290 288 290 289 289 289 289 289 290 290 291 291 291 291 290
296 296 295 297 299 298 296 298 298 298 297 298 301 300 298 297 296 295 294 294 293 293 294 294 292 290 292 291 289 288 289 288 287 287 287 287 288 288 289 289 289 289 289 288
293 293 294 294 294 294 295 295 296 296 299 297 297 295 294 294 293 292 291 291 292 293 292 291 289 288 288 289 288 287 286 286 286 286 286 287 286 287 287 287 287 287 286 285
294 294 292 292 294 295 294 294 294 294 293 293 291 291 290 291 291 290 289 288 291 292 291 289 287 287 287 288 287 286 285 284 284 286 286 286 286 286 286 286 286 285 285 285
291 293 294 292 293 293 292 292 292 291 290 289 289 289 290 290 289 289 288 289 289 289 288 286 286 285 286 285 285 284 284 283 281 282 284 284 285 285 285 285 285 285 285 284

GFSCGP_925_thetae_075.txt.gz
Theta_e
309 308 308 308 307 306 307 310 311 310 311 312 311 309 309 307 306 305 305 304 303 303 306 308 310 310 313 320 323 327 330 332 333 333 333 332 332 332 332 335 334 334 332 330
308 309 307 307 308 310 310 311 311 310 311 312 310 309 307 306 307 306 306 304 303 302 302 304 307 308 309 310 315 321 324 328 329 332 333 332 332 332 332 334 335 335 335 331
307 308 307 310 309 310 310 309 310 310 309 307 307 305 304 305 305 306 305 304 302 302 302 302 304 306 308 309 310 313 318 322 326 329 331 332 332 332 332 332 334 334 333 334
310 310 308 311 311 309 312 309 309 310 308 307 306 305 306 306 305 305 303 301 303 303 303 303 305 308 308 308 308 309 313 319 323 326 330 331 331 330 330 331 332 332 334 334
309 310 310 311 310 309 310 310 310 310 308 310 309 307 306 304 306 307 305 304 303 303 303 303 304 307 309 311 310 308 309 314 320 325 328 330 330 330 330 330 330 331 332 332
309 309 309 309 309 309 308 308 306 308 305 306 306 304 304 304 307 307 305 305 305 304 305 305 309 310 310 311 311 312 311 311 317 323 326 329 329 329 329 328 328 328 329 329
312 311 310 309 310 310 307 305 306 307 308 306 306 306 305 305 306 307 307 307 306 305 305 304 304 307 310 312 312 311 311 311 313 320 324 326 328 328 329 328 327 327 326 326
311 313 310 309 309 310 307 306 307 306 307 307 307 310 308 307 304 304 306 306 304 304 304 304 305 306 309 310 311 311 310 311 311 312 315 320 324 325 326 326 325 324 324 324
310 310 309 309 308 309 311 308 305 306 295 306 306 306 306 305 306 307 307 306 305 305 305 305 306 307 308 309 310 310 310 310 310 310 311 311 313 317 320 321 321 321 320 319
311 314 309 310 309 309 309 308 310 307 306 306 306 307 307 309 309 308 307 306 305 305 305 305 306 307 309 309 309 309 309 309 309 309 309 310 310 311 311 312 313 313 314 314
309 313 311 309 310 310 310 310 308 309 308 310 307 308 304 308 308 308 308 307 306 304 304 303 305 308 307 308 308 308 308 307 307 308 308 308 309 309 310 310 311 311 311 312
309 310 311 310 308 307 308 309 308 311 309 307 309 310 306 307 306 307 308 308 305 304 303 303 304 305 305 305 305 306 307 307 306 306 306 307 308 308 308 309 309 309 309 310
311 311 311 314 311 310 309 310 308 307 306 307 310 309 305 306 308 309 308 306 303 304 304 303 303 303 303 303 303 303 304 304 305 307 307 307 307 306 307 307 307 308 308 308
312 312 313 316 314 311 314 315 313 309 309 309 309 309 306 306 309 308 305 305 304 304 303 302 302 302 302 302 302 301 302 302 302 303 304 304 305 305 305 305 305 306 306 306
312 315 314 314 313 314 314 314 315 313 310 310 312 313 312 311 309 307 306 305 304 303 303 302 301 301 301 302 302 303 303 302 301 301 301 301 301 302 302 303 303 303 304 304
311 313 312 313 310 313 313 311 310 312 313 313 313 313 309 307 305 304 305 303 303 302 302 301 301 301 301 301 301 301 302 302 302 301 299 299 299 299 300 300 301 301 302 301
310 308 309 311 306 308 310 308 309 309 309 310 310 309 306 306 306 304 304 303 303 302 301 300 299 300 300 300 300 300 300 300 301 300 300 298 297 296 296 296 298 299 299 300
305 304 304 304 300 309 305 300 302 308 306 306 306 305 304 303 302 300 301 302 301 300 299 298 299 299 299 299 299 298 297 297 297 298 298 297 295 294 295 295 295 295 296 297
303 304 301 305 294 300 302 299 299 302 301 301 303 302 301 300 298 300 299 300 300 298 298 297 297 298 297 297 295 294 295 294 294 294 294 293 293 292 291 292 293 293 293 294
304 303 304 292 296 298 297 297 296 296 296 296 298 300 302 300 301 299 299 298 298 297 295 295 296 296 295 295 293 293 293 292 292 291 290 290 290 290 290 290 291 291 292 292
307 305 308 296 299 296 296 296 297 295 296 294 299 300 299 299 298 296 297 297 297 295 294 294 295 295 294 293 292 291 291 291 291 291 290 290 289 288 289 289 290 290 290 290
305 304 303 303 304 304 295 295 298 296 298 298 299 299 299 297 295 295 294 294 293 292 292 294 293 293 293 292 290 290 289 290 289 289 289 289 289 288 288 288 288 289 288 288
299 299 297 299 301 297 295 297 296 295 296 297 298 298 295 294 293 292 292 292 292 291 292 293 292 291 291 291 289 287 289 288 289 288 288 288 288 287 287 287 287 286 286 287
293 293 296 296 296 296 295 295 296 297 297 296 295 294 293 292 290 290 290 290 290 290 291 291 289 288 287 289 287 287 286 285 283 283 285 287 287 287 286 286 286 286 286 286
292 293 292 292 294 294 293 294 294 294 293 292 290 290 290 289 289 289 288 287 288 288 288 287 286 285 284 286 286 286 284 283 282 280 281 283 284 285 285 285 285 285 285 284
292 293 295 293 294 294 293 292 291 291 290 289 289 288 288 288 288 287 286 285 284 283 282 281 281 281 282 283 283 283 282 280 279 278 279 282 283 283 284 285 285 285 285 285

GFSCGP_925_thetae_078.txt.gz
Theta_e
308 307 308 309 305 304 305 308 309 309 310 311 310 308 308 307 306 305 304 303 302 302 304 306 308 308 309 315 323 325 327 330 332 332 331 332 331 332 331 330 329 328 329 328
308 307 306 306 307 308 308 309 310 309 310 311 308 308 307 306 306 306 305 303 302 302 301 302 304 306 307 308 311 318 322 326 329 331 332 331 331 331 332 330 329 329 329 329
307 308 306 307 308 309 309 308 309 309 307 306 305 304 303 305 304 302 301 301 301 300 300 301 303 305 305 306 307 309 314 320 324 328 330 331 331 331 331 330 329 329 329 330
307 308 307 308 308 307 310 307 308 308 307 308 305 304 305 305 303 304 302 301 302 301 302 302 304 306 308 309 308 307 307 311 317 323 328 330 330 330 330 330 330 329 329 329
309 309 308 310 310 308 310 308 308 307 307 308 308 306 305 302 306 304 304 304 303 303 303 303 304 306 306 309 310 310 309 309 312 318 323 327 329 329 329 330 329 329 328 329
308 308 308 308 308 308 306 306 305 305 304 305 305 303 302 303 306 307 306 304 304 303 303 303 306 308 308 309 310 310 311 312 313 317 322 325 326 328 328 329 329 329 329 329
311 310 309 308 309 308 306 305 306 306 306 304 305 305 303 305 305 307 307 305 303 303 303 303 303 305 308 308 309 309 309 309 310 314 320 324 326 327 327 328 328 328 328 328
310 311 310 309 309 309 306 306 306 306 306 306 306 308 306 305 303 305 304 305 303 303 303 302 303 305 306 307 308 308 308 309 309 309 309 312 318 322 324 325 325 325 325 325
308 309 309 308 308 309 309 307 304 305 294 306 305 305 306 306 307 305 305 305 304 304 303 302 304 305 306 306 306 306 306 307 307 308 309 309 309 309 310 314 317 319 320 320
309 311 309 309 308 308 308 305 309 305 303 305 305 306 305 310 309 308 307 306 304 303 302 302 303 304 305 306 306 307 307 306 306 307 307 307 307 308 308 308 309 310 311 311
308 312 310 309 309 309 309 309 307 307 307 307 306 307 302 309 307 307 307 306 303 303 302 301 303 303 304 305 305 305 305 305 305 306 307 307 307 306 306 306 307 307 308 308
309 310 311 310 307 306 307 308 307 309 308 306 308 309 306 307 306 306 308 306 303 303 302 301 302 303 303 303 303 303 303 303 303 304 305 305 305 306 306 306 305 305 306 306
309 311 307 312 310 308 308 307 306 306 306 307 310 309 304 305 306 307 305 304 304 303 302 301 301 301 302 301 301 301 301 301 302 303 303 303 303 304 304 304 304 304 304 304
311 309 313 314 314 309 311 311 307 309 310 310 309 307 306 306 307 306 305 304 303 302 302 301 300 300 300 300 299 299 300 300 301 301 301 301 300 300 301 301 301 302 302 303
312 311 313 312 311 312 311 312 310 308 310 311 310 307 310 306 307 305 304 303 302 301 300 300 299 299 299 299 299 300 300 299 298 299 299 298 298 299 300 300 300 300 300 300
311 314 312 313 312 312 313 312 311 312 312 313 312 313 309 307 305 304 303 301 301 300 299 298 298 298 298 298 298 299 298 298 298 298 298 297 297 297 297 297 298 298 298 298
311 311 314 315 309 312 316 310 309 309 309 310 312 309 306 307 306 304 302 300 300 299 298 297 296 297 298 297 296 296 296 296 296 296 296 296 295 296 296 295 295 296 296 296
309 309 309 304 308 315 305 299 304 309 308 308 306 305 304 304 303 301 300 299 298 296 295 295 296 297 297 296 296 296 296 295 295 295 295 294 293 293 293 293 292 292 292 293
305 306 301 307 306 302 302 301 301 306 305 305 305 302 300 299 298 300 297 298 297 296 295 295 295 295 295 295 295 295 295 295 294 294 294 293 292 291 290 290 290 290 290 290
304 303 309 298 303 304 301 297 296 297 300 296 301 300 299 296 299 296 297 297 297 295 294 293 294 294 294 294 292 292 292 292 292 291 291 291 291 290 289 288 288 288 288 289
306 304 305 295 295 295 296 295 294 297 298 293 298 299 297 298 297 295 295 296 296 295 293 293 293 293 293 293 291 290 290 291 289 289 289 290 290 289 288 288 288 287 287 287
308 308 308 300 303 304 295 296 297 296 297 297 298 298 297 296 295 296 295 292 293 293 292 292 292 292 291 290 289 288 288 288 287 287 288 289 289 288 287 287 287 287 286 285
302 301 302 303 304 297 293 297 295 296 297 298 296 295 293 293 292 291 290 290 291 291 290 290 290 289 288 287 286 286 286 285 285 284 284 284 285 286 286 286 286 286 285 285
293 294 296 298 296 295 294 294 295 295 296 294 293 292 292 292 290 289 289 289 288 289 288 286 286 284 283 283 282 282 282 282 282 282 282 281 280 282 283 284 286 285 285 285
293 294 293 293 293 293 294 294 294 293 291 290 290 290 290 290 289 289 287 286 286 284 283 281 280 280 280 279 279 278 279 279 279 278 278 279 279 281 282 283 283 285 285 284
291 293 295 294 294 294 294 293 292 291 291 290 289 288 288 287 286 285 283 281 279 278 277 276 276 277 276 276 276 276 276 275 275 275 275 275 276 278 281 282 282 285 285 285

GFSCGP_925_thetae_081.txt.gz
Theta_e
307 307 308 307 304 303 304 304 306 308 309 310 309 308 308 306 306 305 304 303 303 302 302 304 304 305 307 312 322 326 328 330 331 332 331 331 331 329 329 329 328 329 329 327
307 307 306 305 305 306 306 307 309 308 308 310 308 308 306 304 305 304 302 302 302 301 299 302 304 304 304 306 309 317 323 326 328 330 331 331 330 330 330 329 329 329 328 328
307 307 305 306 307 308 308 307 308 308 306 304 304 304 303 304 303 302 301 300 302 301 302 302 304 306 306 305 305 307 311 318 323 327 329 330 330 330 329 329 329 329 329 329
306 306 305 305 307 306 309 306 306 307 307 307 304 304 304 303 305 304 304 303 303 303 303 303 303 305 307 308 307 306 306 309 316 322 327 329 329 329 329 329 329 328 328 328
307 307 307 307 307 306 307 306 306 306 307 307 307 305 304 301 306 306 305 305 304 303 302 303 304 305 306 308 309 310 310 309 311 316 322 326 328 328 329 329 329 329 328 328
308 307 307 307 306 307 305 305 304 304 303 305 305 303 303 303 306 308 306 304 304 303 303 303 304 305 305 307 308 309 309 312 315 317 319 323 325 326 327 328 328 329 329 328
310 309 309 307 308 307 305 305 306 308 307 306 303 304 303 304 304 307 306 305 304 302 302 302 302 303 304 305 306 307 308 307 308 310 315 320 323 323 322 323 323 324 324 325
310 310 309 308 308 309 305 305 307 306 306 305 305 308 305 303 303 305 304 304 303 302 301 301 302 302 303 304 306 306 306 306 306 307 307 308 308 310 312 315 317 319 319 320
307 307 308 308 307 308 307 306 303 305 293 304 306 304 305 306 306 305 305 304 304 302 302 301 302 302 302 303 303 304 305 305 306 306 306 306 306 307 307 308 308 309 310 311
307 310 308 308 308 307 306 304 308 304 304 305 303 305 306 309 308 306 306 304 303 302 302 301 301 302 303 303 303 304 304 303 303 304 305 305 305 306 306 306 306 306 307 307
307 311 310 309 309 308 307 307 306 306 306 305 305 306 300 309 306 305 305 303 302 303 302 301 301 302 302 303 303 303 304 304 304 304 304 304 304 304 304 303 303 304 304 305
309 310 313 310 307 306 307 307 306 307 307 304 306 308 306 306 304 305 305 303 303 302 301 300 301 301 301 302 302 302 302 302 302 302 303 304 304 304 304 303 302 301 301 301
309 310 308 311 310 307 307 306 305 305 305 305 307 306 304 304 305 305 304 304 303 302 301 300 300 300 300 300 300 300 299 299 299 299 300 300 300 301 301 302 303 302 302 302
310 308 309 310 310 308 310 308 305 308 310 307 309 307 305 305 306 305 304 303 302 301 300 299 299 299 299 299 299 298 298 297 297 297 297 298 298 298 299 299 300 300 301 301
310 310 311 311 311 309 309 309 306 308 308 309 309 308 309 307 306 306 304 302 301 300 299 298 298 298 298 298 297 296 296 295 295 295 295 295 295 296 296 297 297 298 298 298
310 313 311 312 311 310 313 310 308 308 307 311 305 308 306 306 303 304 303 301 300 299 298 297 297 297 297 296 296 295 295 295 294 294 294 294 294 294 294 294 294 294 294 295
312 312 311 309 310 311 315 311 310 309 308 309 311 309 305 305 305 304 301 300 299 297 296 295 295 295 295 295 294 294 294 294 294 294 294 294 294 294 294 294 294 293 293 293
310 310 311 307 310 319 309 299 306 309 308 307 306 306 307 307 304 302 300 299 297 294 294 294 294 294 294 293 293 293 293 293 293 293 294 293 293 293 293 293 293 292 291 290
308 306 303 309 309 307 304 300 306 310 309 306 305 304 302 300 299 300 298 296 294 293 294 294 294 293 293 293 293 292 292 292 292 292 292 292 291 291 291 291 291 291 289 290
305 306 308 301 311 311 305 298 297 300 303 300 304 303 300 298 301 298 297 295 295 294 293 292 293 293 292 292 291 291 291 291 290 290 289 289 289 289 288 288 288 288 288 288
307 306 308 305 308 300 298 295 296 305 303 294 300 300 298 298 297 295 294 294 295 294 292 292 292 292 291 290 288 288 288 287 286 286 286 287 287 287 286 286 286 287 287 287
308 307 308 299 305 307 294 295 300 298 296 296 297 297 297 295 295 295 293 291 292 292 291 290 290 289 288 286 284 284 284 283 283 283 284 284 284 283 283 283 284 285 285 285
303 303 304 304 305 297 293 296 295 297 298 297 296 295 295 293 292 290 290 290 290 290 289 288 285 284 283 282 281 280 281 280 280 280 281 282 282 282 281 281 281 281 281 282
295 294 300 300 297 297 294 294 294 295 296 294 293 291 291 291 289 289 288 288 288 288 285 282 280 279 279 279 278 277 277 276 276 276 277 277 278 279 279 280 282 282 280 280
295 295 294 293 293 294 294 294 295 294 292 290 290 290 290 289 289 288 287 285 283 281 279 277 276 276 276 275 275 275 274 273 273 273 273 274 274 275 276 277 279 281 282 281
291 294 297 298 294 296 296 293 292 291 291 289 289 288 288 289 287 285 283 280 278 276 275 274 274 273 273 273 273 274 272 271 271 271 271 271 271 272 273 275 276 279 282 283

GFSCGP_925_thetae_084.txt.gz
Theta_e
310 313 314 314 312 308 312 310 311 309 311 313 313 313 313 313 311 313 312 311 310 310 307 305 304 305 307 317 327 330 332 333 333 330 330 330 330 330 330 329 330 329 328 328
312 312 312 310 307 309 310 310 311 311 310 312 312 314 314 308 309 308 308 308 308 309 309 308 308 306 305 307 314 323 327 330 332 331 329 330 330 330 329 329 329 329 329 329
311 310 309 309 309 310 310 311 311 312 309 308 309 312 309 308 309 309 309 309 309 309 310 310 309 309 309 306 305 311 318 324 327 330 329 329 329 329 329 329 329 329 329 329
310 306 309 310 310 311 311 309 311 311 312 312 308 310 310 308 311 312 312 312 311 310 310 310 310 309 309 310 308 304 307 315 321 325 328 328 327 328 328 328 328 328 328 328
310 308 309 310 311 309 311 309 311 311 313 312 312 311 310 308 313 313 311 311 310 310 310 309 308 307 307 308 310 313 313 312 314 320 324 325 327 327 328 328 328 329 328 327
310 307 309 309 307 309 308 310 310 310 312 312 312 311 310 309 313 312 311 310 310 309 309 308 307 307 307 307 308 308 309 311 317 319 321 323 324 325 325 325 326 327 328 327
311 310 309 309 310 308 309 312 312 312 313 312 306 309 310 307 311 313 312 310 309 309 310 309 308 307 306 306 306 306 306 306 307 309 311 315 318 319 320 320 320 321 321 321
312 312 311 310 311 312 311 311 313 315 312 311 307 311 311 306 307 310 310 309 309 309 309 308 307 306 305 305 305 305 305 305 305 306 306 307 307 308 309 309 310 313 314 316
311 309 309 308 308 311 310 310 308 310 303 314 310 310 308 307 309 310 310 310 310 309 308 307 305 305 304 304 303 303 303 302 303 303 303 304 304 305 305 305 305 306 306 306
309 311 309 309 308 308 309 308 311 310 318 316 309 310 312 310 311 311 310 311 310 308 307 306 305 304 303 303 303 302 302 302 302 302 303 303 302 302 302 302 302 302 302 303
309 313 311 309 311 312 308 309 308 310 311 319 313 310 309 311 312 312 311 310 310 308 307 306 304 303 303 302 302 301 301 300 301 301 301 302 302 302 303 302 302 302 302 302
310 312 315 312 308 307 308 309 310 312 311 308 311 313 308 311 313 311 310 308 309 307 306 305 303 303 302 301 301 300 299 299 299 299 300 300 300 300 300 300 300 301 301 301
311 314 317 314 311 308 309 308 309 309 312 316 318 312 308 310 310 310 309 309 307 306 305 304 303 303 302 301 300 299 297 297 297 298 298 297 297 297 297 297 297 297 298 299
310 311 314 312 311 312 312 309 308 310 314 313 311 311 311 310 310 309 309 309 308 306 304 304 303 301 300 299 299 298 296 295 295 295 295 295 295 294 294 295 295 295 295 296
311 315 312 313 312 310 312 311 309 310 311 311 311 310 312 311 311 310 309 308 306 304 303 302 302 300 299 298 297 296 295 294 293 293 293 293 293 293 293 293 294 294 294 294
311 315 312 313 312 312 313 311 311 311 311 310 310 310 310 311 310 309 308 306 306 304 302 300 299 299 298 296 295 294 293 293 293 292 292 292 292 291 291 292 292 292 292 292
314 313 315 317 312 313 317 314 311 311 311 311 311 311 309 311 309 309 309 306 304 302 300 299 298 297 296 295 293 293 292 292 292 292 291 291 291 290 290 290 290 291 291 291
312 313 315 314 315 320 314 302 310 311 311 310 310 310 310 309 309 309 307 305 302 300 297 296 296 295 294 292 292 291 291 291 291 291 291 290 290 289 289 289 289 289 289 289
311 313 311 316 318 316 310 302 309 312 313 310 310 309 308 306 306 304 303 303 301 297 296 295 294 293 292 291 291 291 291 290 290 290 289 289 288 288 288 288 288 288 288 288
307 307 316 308 319 320 311 302 303 307 316 309 308 308 305 304 309 308 301 297 295 294 294 293 293 292 291 290 290 289 289 288 288 287 286 287 286 286 286 285 285 286 285 286
310 310 313 312 315 313 305 298 299 314 315 304 307 306 304 307 306 302 298 296 294 293 292 292 291 291 289 288 287 287 286 285 284 284 284 284 284 283 283 282 282 282 282 282
310 310 312 309 314 315 298 297 305 305 297 300 304 303 302 298 299 299 297 295 294 292 291 290 290 288 286 284 284 283 282 281 281 281 281 281 281 281 281 280 281 281 282 282
310 310 311 310 312 300 297 299 297 299 300 299 301 300 299 299 298 296 294 293 292 291 289 287 286 284 282 281 281 280 279 279 278 278 278 278 278 278 278 278 278 280 282 283
300 297 306 306 302 299 296 296 297 299 300 298 298 298 298 298 295 292 292 291 290 287 285 283 281 281 280 279 278 277 276 276 275 275 276 275 274 275 275 277 277 278 280 281
301 298 300 301 295 296 296 297 297 297 296 294 295 295 294 294 293 292 291 289 287 284 281 280 279 278 277 276 276 275 274 274 273 273 273 272 273 273 273 274 275 276 277 279
295 298 302 306 298 300 299 295 296 296 295 294 293 291 290 291 291 289 288 285 282 280 278 277 276 274 274 275 275 275 273 272 271 270 270 271 270 272 272 273 274 275 277 279

GFSCGP_925_thetae_087.txt.gz
Theta_e
314 314 314 313 314 315 315 314 313 313 313 314 315 314 314 314 314 315 315 315 314 313 311 308 308 309 310 320 330 332 333 335 333 331 332 331 332 331 331 331 330 330 329 329
313 314 314 314 311 312 313 313 313 313 312 314 315 314 314 313 313 312 313 313 312 312 312 311 311 309 308 309 317 326 330 332 334 332 331 331 331 331 331 330 330 330 330 329
312 313 312 312 311 312 312 312 313 313 312 312 313 313 314 310 311 312 312 311 312 313 313 313 313 313 312 309 310 316 324 329 331 332 330 330 330 330 330 329 329 329 329 329
312 309 311 312 312 312 312 312 313 314 313 312 312 312 314 312 313 314 314 314 313 313 313 313 312 312 313 313 309 308 315 321 325 329 330 328 327 328 327 328 327 328 327 327
311 310 311 312 312 312 312 312 314 314 315 313 313 312 314 311 314 314 314 314 313 313 312 311 311 311 311 313 316 313 312 315 319 323 326 327 326 326 326 326 327 328 327 327
311 308 311 311 310 311 311 313 313 314 315 312 313 312 313 311 313 315 314 313 312 312 311 310 310 310 310 310 311 312 315 319 320 320 323 324 324 324 323 322 322 323 323 324
312 310 310 310 311 311 312 312 313 312 314 312 309 312 312 310 314 315 314 313 312 312 312 312 311 310 310 309 309 309 309 310 310 311 313 315 318 318 318 317 318 318 319 319
311 312 311 311 312 312 313 313 315 316 315 313 308 312 312 311 313 314 313 312 312 312 311 311 310 309 308 308 308 307 307 307 307 307 307 308 308 309 309 309 309 310 310 310
311 313 311 310 310 312 312 312 312 312 309 315 312 311 310 309 312 313 312 312 313 312 311 310 309 308 307 306 306 306 305 305 305 305 304 304 304 304 304 304 304 304 304 303
311 313 311 309 310 310 311 311 310 312 321 320 311 312 312 310 313 312 312 313 313 311 310 309 308 307 306 306 305 304 304 303 303 303 303 302 302 302 302 302 302 302 302 302
310 314 312 310 311 312 310 310 310 311 314 320 315 312 311 312 313 313 313 314 312 311 310 309 307 306 306 305 304 303 302 301 301 301 301 300 300 299 299 299 299 299 299 299
312 313 314 312 310 309 311 311 311 313 314 311 315 315 311 312 312 314 313 313 312 311 309 308 307 306 305 303 302 301 299 299 298 298 298 297 297 297 296 296 296 296 296 296
312 317 319 313 312 310 311 310 311 311 317 320 319 312 310 310 312 314 313 312 311 310 308 307 306 305 304 302 301 299 297 296 296 296 296 295 295 295 294 294 294 294 294 294
311 315 314 313 312 312 312 312 311 311 313 313 313 312 311 313 314 313 312 312 311 309 308 307 306 304 303 301 300 298 296 295 295 295 294 294 293 293 293 292 292 292 292 292
312 317 312 311 313 313 313 312 311 311 311 311 312 310 312 312 313 313 312 312 310 309 307 306 304 303 301 299 298 297 295 294 294 294 293 292 292 291 291 291 290 290 290 290
312 319 314 316 314 313 313 313 311 311 311 311 311 311 311 312 312 312 312 311 310 308 306 304 303 301 299 297 296 295 294 293 292 292 291 291 291 290 290 289 289 289 289 289
314 315 318 318 315 316 317 314 313 311 311 312 311 311 311 312 312 312 311 311 310 307 305 303 301 299 297 295 295 294 293 292 291 291 290 290 289 289 289 288 288 288 288 288
316 313 314 318 317 317 314 309 312 312 311 311 311 312 312 312 312 311 311 310 308 305 302 301 299 297 295 294 293 292 291 291 290 290 289 288 288 287 287 287 287 287 286 286
313 316 316 319 319 318 317 306 311 313 313 312 311 311 311 311 311 311 310 308 306 302 299 298 296 295 294 293 291 291 290 289 289 288 288 287 286 286 286 286 286 286 285 285
310 313 317 316 322 321 315 306 309 311 316 313 311 311 310 310 312 312 308 305 301 298 297 295 294 293 292 291 290 288 288 287 287 286 286 285 285 284 284 284 284 283 283 283
311 313 318 317 320 319 306 302 308 317 317 310 311 311 308 310 310 308 302 298 296 295 295 294 293 292 290 289 287 287 286 286 285 285 285 284 283 282 282 281 281 281 281 282
312 314 316 316 319 320 302 302 313 309 299 304 308 308 307 302 302 300 299 296 294 294 293 292 291 289 286 286 286 285 284 284 283 283 282 282 282 281 280 280 280 280 280 281
313 312 314 314 316 303 301 302 302 301 302 302 305 305 302 301 300 299 296 294 293 293 291 291 289 285 284 284 284 283 282 281 280 280 280 280 280 279 279 278 278 278 279 280
305 300 307 308 305 302 300 298 298 300 301 301 302 301 300 300 298 297 295 294 292 289 287 287 285 283 283 283 282 281 280 279 278 278 278 278 277 277 277 276 276 277 278 279
304 302 305 306 297 298 299 298 299 299 298 299 300 300 300 298 296 294 293 291 289 287 285 285 283 283 282 281 279 278 277 277 276 276 276 275 275 274 274 274 275 275 276 277
299 303 306 310 302 303 302 299 298 299 298 297 295 294 296 295 294 292 291 289 287 284 283 282 281 281 279 278 277 275 275 275 275 274 273 273 272 272 273 274 274 275 276 277

GFSCGP_925_thetae_090.txt.gz
Theta_e
312 312 313 312 312 313 314 314 314 312 312 313 313 313 312 311 312 313 313 312 311 310 309 309 309 311 318 329 331 333 334 335 333 331 330 331 331 330 330 330 331 331 330 329
313 313 313 313 312 312 311 313 313 312 312 313 313 312 312 311 312 312 312 312 310 309 309 310 310 309 308 311 321 330 332 334 335 333 330 330 330 330 330 329 329 330 330 329
313 313 313 313 312 311 312 313 312 313 312 312 312 312 312 310 310 311 311 311 310 311 310 310 313 313 311 309 309 318 327 331 334 334 331 329 330 330 329 329 328 327 327 327
313 310 312 311 311 311 312 312 313 312 311 310 310 306 311 309 310 311 311 309 309 310 310 311 311 313 314 313 309 311 317 325 330 332 331 328 327 327 327 326 326 326 325 326
312 309 311 313 313 311 313 312 313 313 313 313 311 308 311 308 311 312 312 312 311 310 309 309 310 312 312 316 312 308 314 319 323 327 329 328 325 324 325 324 325 326 327 328
310 308 311 311 310 311 312 313 313 314 314 310 312 307 308 308 310 312 312 311 310 309 308 309 310 310 310 311 315 319 318 318 320 323 324 324 324 323 323 321 320 320 320 320
310 310 310 310 310 311 311 310 312 311 312 312 307 310 309 310 311 312 311 309 309 308 308 308 309 309 309 308 309 310 311 312 317 319 319 318 317 316 314 313 313 313 313 312
311 312 310 310 311 311 311 309 313 313 315 310 307 308 309 310 312 311 310 309 309 309 309 307 308 308 308 307 307 307 307 307 307 307 308 309 309 308 307 307 306 305 305 303
310 313 310 309 310 310 311 311 311 308 304 312 308 309 308 309 312 311 310 310 309 309 308 307 308 307 306 306 305 305 304 304 304 304 304 304 304 304 303 303 303 302 302 301
310 312 311 309 310 310 310 308 308 311 308 314 309 310 308 308 312 311 311 310 309 308 307 306 307 306 305 305 304 303 303 303 302 302 302 301 301 300 299 299 298 298 297 297
310 314 311 309 310 310 309 308 309 310 313 315 312 308 308 308 311 311 310 311 310 308 306 305 306 306 305 303 302 301 301 301 300 299 299 298 298 297 296 296 295 295 295 295
311 312 312 311 310 309 309 309 309 311 311 308 313 311 310 309 310 310 310 311 309 307 306 305 305 305 304 302 300 299 299 298 298 297 296 296 295 295 294 294 293 293 293 292
311 314 313 312 311 310 310 309 310 309 311 308 308 308 308 308 309 310 310 310 309 307 305 304 304 304 302 301 299 297 296 296 296 295 295 294 293 293 292 292 291 291 291 291
310 315 312 311 311 311 311 309 308 309 311 310 310 310 309 309 309 311 310 310 309 307 306 304 303 302 301 300 297 296 295 295 295 294 293 292 292 291 291 291 291 291 290 290
311 311 311 310 312 311 310 310 309 309 309 309 309 308 308 308 309 311 310 310 309 308 307 305 303 301 300 299 297 295 294 294 293 292 292 291 291 291 291 290 290 289 289 289
312 312 311 312 313 313 312 311 310 309 309 308 307 307 307 309 309 310 310 310 309 308 307 304 302 300 299 297 296 294 293 293 292 292 291 291 290 290 289 288 288 288 288 288
312 312 313 314 312 312 311 311 310 310 309 309 309 308 309 309 311 310 310 310 309 308 306 303 301 299 297 296 295 294 292 292 292 291 290 289 289 288 288 287 287 286 286 286
311 311 313 313 311 312 310 307 310 310 309 309 309 308 307 308 309 310 309 309 308 307 304 301 299 296 295 295 293 292 291 291 290 289 289 288 287 287 286 285 285 285 285 285
311 310 313 312 312 311 310 307 308 309 310 308 308 308 308 308 307 308 307 308 308 305 302 300 297 295 294 293 292 291 290 290 289 288 287 287 286 285 284 285 284 284 284 284
310 311 310 313 307 311 309 307 307 309 311 307 308 307 308 308 311 310 306 307 304 301 299 296 295 294 292 291 291 290 289 288 288 287 286 285 284 283 284 283 283 283 283 282
313 313 315 314 315 313 307 304 308 312 312 304 308 308 307 310 309 306 304 301 300 297 295 294 293 292 291 290 289 289 287 287 286 286 285 284 283 283 283 282 282 282 282 282
315 316 317 317 318 317 301 305 311 308 299 305 308 308 306 303 304 303 301 296 294 294 294 293 291 289 289 289 289 287 286 285 285 284 284 284 284 283 282 282 282 281 280 279
312 311 314 314 313 302 301 302 300 300 300 300 306 305 301 300 299 298 296 294 293 293 292 291 288 287 286 287 287 286 285 283 283 284 284 283 282 282 281 279 278 277 278 277
304 301 308 307 303 302 299 298 297 299 300 300 302 300 299 298 297 295 293 292 292 290 288 288 287 285 283 284 285 284 283 283 283 283 282 281 280 280 278 277 277 276 276 276
304 302 304 303 300 298 297 297 298 298 298 299 298 297 296 296 294 293 292 290 289 287 287 288 286 285 283 283 282 281 282 283 282 281 279 278 278 277 278 277 276 276 276 276
298 301 305 306 302 302 301 298 297 297 297 297 296 296 295 294 293 292 290 289 287 285 286 286 285 284 282 281 280 281 282 281 279 278 277 276 276 276 275 274 275 276 275 276

GFSCGP_925_thetae_093.txt.gz
Theta_e
310 310 312 310 308 311 311 311 312 310 310 312 309 310 309 309 310 307 305 306 307 306 307 308 313 322 329 331 332 333 334 334 334 332 330 330 329 330 329 329 329 329 329 329
311 311 310 311 310 310 310 310 311 311 311 311 310 311 310 309 309 308 308 306 306 305 307 309 309 309 312 321 328 331 335 335 334 333 330 329 329 329 329 329 329 329 330 330
313 312 311 311 311 311 309 309 309 310 310 310 310 308 311 309 309 309 308 307 307 305 307 308 311 312 310 308 312 322 330 334 334 334 331 329 330 330 329 329 328 327 327 326
311 311 311 310 311 309 310 310 310 310 308 307 306 305 306 307 308 309 308 306 307 307 308 309 311 313 314 311 308 311 321 328 333 331 331 328 327 328 327 327 326 326 325 326
311 310 310 310 310 309 310 310 310 310 310 308 309 305 303 306 309 308 308 307 306 307 307 307 310 312 314 313 308 310 317 325 331 329 329 328 326 325 324 324 323 324 323 323
309 308 310 311 309 309 310 311 310 310 309 309 308 304 304 306 309 308 309 308 307 306 306 308 310 310 312 316 314 315 318 321 324 328 327 327 323 322 321 321 320 319 319 318
309 309 309 309 310 310 310 307 309 310 310 308 306 305 305 305 307 308 310 308 306 305 305 306 306 307 308 310 312 316 318 319 322 323 323 323 322 320 317 315 312 312 309 306
310 310 308 308 310 310 309 307 309 310 312 309 305 309 309 308 309 309 308 307 306 305 305 305 306 306 306 307 308 311 312 311 315 315 314 314 312 309 307 306 304 303 303 302
310 311 309 308 310 309 309 310 308 307 298 307 305 305 307 309 310 308 308 307 307 306 305 304 305 305 305 305 305 305 305 306 307 307 306 305 304 304 303 301 300 298 298 297
308 311 310 309 309 309 308 307 309 306 307 308 306 307 305 308 311 309 309 308 307 305 304 303 304 304 304 304 304 304 304 303 303 303 302 301 300 298 297 297 296 295 295 295
310 311 311 308 309 310 308 307 307 309 307 309 307 306 303 307 310 310 309 309 307 306 304 303 303 304 303 302 302 302 301 301 300 299 298 297 296 295 295 294 293 293 292 292
310 310 311 309 309 308 308 308 307 308 308 308 309 307 309 305 308 310 309 309 307 306 304 303 303 302 301 301 300 300 299 298 297 296 296 295 294 293 292 292 291 291 291 291
311 311 311 312 309 309 309 308 307 308 306 307 307 306 307 306 307 309 309 308 307 305 304 303 302 300 300 299 298 298 297 296 295 294 294 293 292 292 291 291 291 290 290 290
310 312 311 311 310 309 310 308 307 308 309 307 306 306 308 306 308 307 308 308 307 306 305 303 301 300 299 298 297 296 296 295 294 293 292 292 291 291 290 290 289 289 290 290
309 310 310 310 310 310 309 309 307 308 309 308 308 306 306 305 308 309 308 308 307 306 305 304 302 300 298 296 295 295 295 294 293 292 292 291 290 290 289 289 289 289 289 288
310 308 309 311 313 311 311 308 308 309 308 306 306 306 305 305 305 307 309 309 308 307 305 304 302 300 297 295 294 294 294 293 292 291 290 289 289 289 289 289 288 288 288 287
311 311 310 309 309 309 310 310 308 309 307 308 308 308 304 307 307 309 309 309 309 308 306 304 301 299 297 295 294 293 293 292 291 290 289 289 289 289 288 287 287 287 286 286
311 313 311 316 310 314 310 306 308 309 308 308 307 306 306 307 308 309 309 309 309 307 306 303 301 299 296 295 294 293 292 291 290 289 288 288 288 288 287 286 286 286 285 285
309 309 310 312 307 310 308 307 307 307 310 306 307 307 305 306 307 307 308 309 308 307 306 303 300 297 295 294 293 292 291 290 289 288 288 287 287 286 286 287 286 285 285 284
309 309 309 310 309 309 307 308 305 307 310 306 307 306 304 305 308 308 306 306 306 306 304 300 295 295 294 293 293 291 290 289 288 287 287 286 286 286 286 285 285 285 284 283
312 311 311 304 303 306 305 304 306 310 309 304 306 307 305 308 309 305 303 303 304 302 298 295 294 293 293 292 291 290 289 288 287 286 286 285 285 285 285 284 283 283 283 282
312 314 313 307 305 311 302 306 310 308 302 305 308 306 305 305 304 303 302 299 297 294 294 294 293 291 292 291 290 289 287 287 286 285 285 285 284 284 283 283 283 282 282 282
311 309 311 312 311 302 301 302 300 299 300 300 305 305 303 301 301 296 295 294 293 293 293 292 291 288 289 289 289 288 287 286 284 284 284 283 283 282 282 282 282 282 281 279
303 301 305 307 304 303 300 298 297 298 299 299 301 301 299 300 296 294 293 292 292 291 290 288 287 286 286 288 288 288 286 284 284 283 283 282 282 281 281 280 280 280 279 278
303 303 304 304 303 298 298 297 298 298 298 298 299 299 298 296 294 293 292 292 291 290 288 287 287 285 285 285 285 285 284 284 283 282 282 281 281 280 279 279 278 277 278 276
299 305 307 308 302 304 302 297 297 298 298 297 297 297 295 294 293 291 290 290 289 287 286 286 286 285 284 284 283 282 282 282 282 281 280 280 280 279 278 277 278 277 278 278

GFSCGP_925_thetae_096.txt.gz
Theta_e
309 310 312 312 309 309 310 311 311 310 310 310 308 310 308 307 306 304 303 303 307 312 308 315 324 327 329 331 333 334 334 334 334 332 330 330 329 329 330 329 328 328 328 329
309 311 310 310 310 311 310 311 310 310 310 310 309 309 309 307 307 306 303 303 306 305 305 306 309 316 327 330 331 332 333 334 334 333 331 330 328 329 329 328 328 328 328 328
312 311 310 311 310 310 309 309 308 311 310 309 309 309 310 309 308 308 306 305 304 303 305 307 309 310 312 317 324 330 332 333 333 333 332 329 328 328 328 329 328 328 328 327
312 311 310 311 311 309 309 307 308 309 307 309 307 309 303 307 307 308 306 304 304 304 306 308 310 311 311 309 311 315 330 333 333 333 331 329 327 328 328 328 327 327 326 325
314 311 311 311 311 309 310 309 309 308 307 308 308 305 303 305 307 308 305 305 306 305 307 307 310 312 313 313 310 309 318 331 333 332 330 329 327 326 326 325 325 324 324 324
314 308 310 312 309 308 309 310 308 309 308 308 307 306 304 305 307 309 306 305 304 306 305 307 310 311 313 312 308 313 321 327 332 332 328 329 326 324 323 321 320 318 315 315
309 309 308 309 311 309 310 309 310 312 312 309 305 304 306 304 305 306 307 306 305 305 305 305 306 307 311 312 314 317 321 327 331 330 328 326 323 321 319 317 317 313 312 307
311 312 308 308 310 310 308 309 309 309 311 307 304 308 308 305 306 305 306 306 305 304 305 304 305 306 308 310 312 316 321 321 323 324 323 322 320 318 315 314 308 304 302 300
311 310 308 308 309 309 309 308 306 307 298 308 304 303 305 309 310 307 306 306 306 304 304 303 304 305 306 308 309 312 314 315 318 319 318 316 313 310 305 302 300 298 297 296
308 310 309 308 308 308 309 307 310 306 310 309 305 305 305 308 310 308 307 307 305 304 303 302 302 303 304 305 305 307 308 309 309 310 308 306 304 302 299 297 296 295 294 294
309 310 310 309 310 310 308 307 306 307 308 310 306 305 301 306 309 309 308 307 306 305 304 302 301 302 303 303 303 303 304 303 303 303 301 299 297 296 295 294 293 293 292 292
309 310 311 310 308 308 307 307 307 309 307 306 307 305 306 303 304 308 307 307 305 305 303 301 301 301 301 301 301 301 301 301 300 298 297 295 294 294 293 292 292 291 291 290
310 310 311 311 309 309 308 307 307 306 306 308 310 307 305 305 305 307 308 307 306 304 302 301 300 299 299 300 300 299 299 298 297 296 294 293 292 292 292 291 290 290 290 290
310 310 311 311 309 309 310 308 306 308 308 306 306 306 306 306 307 307 308 307 305 304 303 301 299 298 298 298 298 297 296 296 295 294 293 292 292 291 290 290 289 290 289 288
309 310 309 309 308 308 308 309 308 308 308 308 308 304 304 304 306 308 308 307 306 305 304 302 301 299 297 296 296 296 295 294 293 292 292 291 290 289 289 289 288 288 288 288
308 306 308 310 311 309 309 308 308 308 307 305 305 304 303 303 305 306 307 308 307 306 305 303 302 299 297 296 295 295 294 293 292 292 291 290 289 289 288 287 287 287 287 287
310 308 306 304 308 309 311 309 308 308 308 308 307 308 303 304 305 307 307 308 308 307 306 304 303 300 297 295 294 294 294 292 291 291 290 289 288 288 287 287 286 287 287 287
313 312 310 310 308 312 309 306 306 307 306 307 306 306 304 305 304 306 307 308 308 307 306 304 303 301 298 295 294 294 293 292 291 290 289 288 288 287 286 286 287 287 287 287
308 313 313 318 316 314 314 308 307 307 307 305 306 306 303 305 306 305 306 307 308 307 306 305 304 301 297 294 293 293 292 291 290 288 288 287 287 286 286 286 287 286 286 286
307 309 313 305 315 314 309 310 304 306 312 309 307 307 303 304 307 307 304 306 307 307 307 305 303 299 295 293 293 293 291 290 289 288 287 287 286 286 286 286 286 286 286 284
310 307 313 305 304 305 304 304 305 311 310 303 305 306 302 306 307 306 303 303 305 305 304 303 299 295 294 293 292 290 289 289 289 288 286 285 285 285 285 285 285 285 283 283
311 311 308 302 305 310 302 304 309 306 302 305 306 305 303 303 305 304 302 301 299 298 297 298 295 295 293 293 291 289 288 289 288 286 285 284 284 284 284 284 284 283 283 282
312 310 309 309 308 303 301 301 299 299 299 299 304 303 303 302 302 300 299 296 295 296 296 295 295 292 291 291 291 288 289 288 286 285 283 283 283 282 282 283 283 283 282 283
302 301 306 308 304 303 300 298 297 298 298 298 299 300 301 302 299 297 294 292 292 292 292 293 291 289 288 289 290 290 289 287 285 283 282 282 281 282 282 282 282 282 282 281
302 303 300 302 304 300 298 298 298 298 298 298 298 298 299 299 297 295 292 290 290 290 290 289 289 289 287 287 289 289 288 286 283 282 281 281 281 281 281 281 281 280 281 280
301 304 308 305 304 304 303 300 297 297 298 297 297 297 296 296 295 292 289 290 289 288 288 288 289 288 285 287 287 287 286 284 283 281 280 280 280 280 280 279 280 280 280 279

GFSCGP_925_thetae_099.txt.gz
Theta_e
318 317 317 317 313 310 320 311 312 310 309 310 308 309 308 306 305 306 306 307 310 315 321 324 328 329 329 330 333 334 334 334 333 333 333 331 329 328 329 329 328 328 327 327
315 319 315 311 310 310 310 311 311 310 309 310 308 308 308 305 305 304 303 302 304 307 306 309 315 324 328 328 329 333 334 334 334 333 333 332 330 328 328 329 328 328 327 327
316 312 310 310 311 311 309 312 309 311 309 308 308 309 309 308 306 306 304 302 302 306 306 304 307 312 322 326 328 331 333 334 334 333 332 331 330 327 327 328 328 328 329 329
315 311 310 310 311 311 312 307 309 309 309 310 307 309 305 307 307 306 305 302 303 302 304 305 307 310 313 318 325 329 331 333 333 333 332 331 329 327 326 327 329 328 327 326
316 312 310 311 311 309 311 307 308 309 308 308 307 306 305 305 306 305 305 304 302 301 303 305 308 310 312 312 313 318 327 330 332 332 332 331 329 326 327 328 327 326 324 324
314 311 310 310 309 309 308 309 308 308 307 308 308 307 306 304 306 307 305 304 303 303 304 307 309 311 312 312 311 309 313 328 331 331 331 332 329 326 326 325 323 320 318 316
314 313 309 310 314 311 309 310 312 312 311 312 304 305 310 304 303 305 307 306 303 304 305 306 306 308 311 312 311 309 310 319 330 331 331 330 328 326 324 322 319 315 312 312
315 318 310 309 313 313 310 311 312 313 313 308 304 307 307 305 304 303 303 304 303 305 305 305 305 307 310 311 310 312 317 321 327 330 330 329 326 322 321 318 315 315 312 305
311 312 307 307 308 312 311 311 308 308 300 309 305 304 303 304 308 308 305 305 305 306 305 305 304 306 308 310 311 314 317 320 324 327 327 324 322 320 317 314 310 306 300 298
307 310 308 308 309 308 309 309 311 308 311 308 305 304 305 305 307 307 307 306 305 305 304 303 303 304 306 308 309 311 313 318 319 320 318 320 319 315 311 305 301 298 296 294
306 310 310 308 310 314 311 307 306 309 309 311 307 305 302 304 306 307 308 306 305 305 304 303 302 303 304 305 306 308 309 310 311 312 312 315 311 304 301 298 296 294 293 292
308 308 310 310 308 307 310 307 307 311 308 305 307 306 304 301 301 306 306 305 304 304 303 301 301 301 301 302 303 304 305 306 307 307 307 304 300 297 295 294 293 292 292 291
309 310 310 311 309 308 308 308 306 305 306 310 310 309 303 304 304 304 306 305 305 303 301 299 299 299 300 300 301 302 302 302 302 301 300 297 295 294 293 292 292 291 290 290
309 310 310 311 309 309 310 307 306 309 308 308 307 307 306 305 305 306 306 306 305 303 303 301 298 297 298 300 300 299 299 299 297 296 295 294 293 292 291 291 290 290 290 289
308 309 308 309 308 309 309 310 307 307 309 309 309 305 305 304 304 305 306 305 304 303 303 302 299 298 298 298 298 298 297 296 295 294 293 292 291 291 290 290 290 289 288 287
306 303 308 308 310 308 308 308 309 309 309 307 305 304 302 303 304 306 306 306 306 305 304 302 300 299 297 297 296 296 296 295 294 293 292 291 290 290 289 289 288 287 287 287
309 305 302 301 307 308 311 309 307 308 308 309 307 307 303 303 304 305 305 306 307 306 305 303 302 300 299 297 296 295 295 294 293 292 291 290 289 289 288 287 287 286 286 287
310 310 306 304 302 310 310 306 307 307 307 307 307 305 303 304 303 304 305 306 307 306 306 304 303 301 300 298 296 295 294 293 292 291 290 289 289 288 287 287 286 286 286 286
307 311 316 316 299 307 310 310 306 306 307 305 305 306 303 304 305 304 303 305 307 306 306 305 304 303 300 297 296 295 293 292 291 290 290 289 288 287 286 286 286 286 286 286
306 311 314 313 316 311 309 307 304 307 312 307 304 304 303 304 306 307 303 304 305 306 306 306 305 303 299 296 295 293 292 290 289 290 289 289 288 287 286 286 286 286 286 286
304 306 315 315 313 305 304 304 306 313 311 302 305 305 302 305 308 304 304 302 304 305 305 305 304 301 299 295 293 292 291 289 291 290 289 288 287 286 285 285 285 285 285 284
308 307 311 305 314 314 301 303 310 307 301 305 305 304 303 302 300 302 301 301 300 299 302 304 301 300 297 293 293 292 290 290 290 290 288 286 285 284 284 284 284 283 283 283
309 307 307 310 310 302 300 302 299 299 299 299 303 302 302 303 302 301 300 298 297 298 299 300 299 295 293 292 293 292 290 290 290 288 287 285 283 283 283 283 283 282 282 282
302 301 304 305 304 303 300 298 297 298 298 298 299 299 300 301 299 299 296 295 294 293 294 296 295 291 290 291 292 292 289 290 289 287 285 283 282 282 282 282 282 282 282 281
302 302 301 301 302 298 298 298 298 298 297 297 297 297 297 298 299 297 294 289 290 291 292 294 292 290 289 290 290 290 289 290 287 285 283 281 281 282 282 282 282 281 281 281
302 304 304 303 302 301 302 300 297 298 298 297 297 297 296 296 295 294 288 290 290 290 290 290 290 290 289 289 288 288 288 288 286 283 281 281 282 282 281 281 279 279 279 280

GFSCGP_925_thetae_102.txt.gz
Theta_e
317 317 321 321 324 318 326 319 314 310 310 311 310 310 310 306 306 317 320 320 321 323 325 327 328 329 332 333 333 332 332 332 331 331 330 330 329 328 328 328 329 328 326 326
316 319 317 318 318 323 314 325 320 310 308 309 310 310 307 305 305 307 314 313 317 314 312 319 325 327 328 331 332 333 333 332 332 332 332 332 329 329 327 327 328 327 327 327
323 319 315 314 316 313 318 315 312 312 309 308 309 310 308 306 304 305 302 304 306 311 312 308 311 319 325 327 328 330 332 333 333 333 332 332 331 330 328 327 328 329 328 328
316 316 317 315 315 315 315 310 310 309 311 313 307 312 307 306 306 304 304 301 300 300 304 306 308 312 317 324 327 327 329 330 333 333 333 332 331 330 328 327 327 328 328 328
318 312 315 313 314 315 317 308 309 310 309 309 307 308 309 304 306 305 303 302 302 301 302 305 306 311 313 315 321 325 327 329 331 332 333 333 331 330 327 326 327 327 327 325
314 311 309 310 309 314 308 310 309 308 307 310 311 307 308 306 305 306 305 303 304 301 300 303 307 309 311 312 314 317 324 328 330 332 332 332 330 329 326 326 326 324 322 320
316 315 310 308 311 308 311 311 314 315 310 313 303 305 311 306 302 305 308 306 304 301 300 303 305 308 310 311 312 311 312 319 328 330 330 331 330 330 326 325 324 321 317 314
319 320 314 310 311 310 311 313 313 314 313 311 303 308 309 304 302 301 301 302 302 302 302 303 305 307 309 310 311 311 309 310 320 327 328 330 329 329 326 324 322 317 314 313
316 318 311 308 311 311 311 317 309 307 299 307 305 304 303 303 303 305 304 302 302 302 303 304 305 307 309 310 311 310 310 310 314 324 328 329 329 327 325 321 317 314 312 309
308 310 308 309 310 309 312 310 314 311 308 308 305 303 308 305 306 305 306 305 304 302 303 303 304 305 307 309 310 310 311 314 315 319 324 327 326 324 321 317 315 311 305 300
305 308 309 307 310 313 312 314 311 311 309 311 310 308 301 305 305 306 305 306 305 303 304 304 302 304 306 308 308 308 310 313 315 318 321 321 319 317 316 314 310 303 297 294
305 307 309 309 307 310 312 314 314 316 313 304 308 309 303 301 301 302 302 305 304 304 303 302 302 302 303 305 305 307 309 311 313 315 315 313 313 311 314 306 299 295 294 292
307 308 307 310 308 307 311 308 309 313 308 312 312 311 302 302 304 303 304 305 304 304 302 301 300 300 301 302 303 304 305 307 308 307 309 307 305 307 304 297 294 292 292 291
309 309 308 311 310 307 308 311 309 310 314 315 313 310 306 305 304 304 305 305 304 303 302 301 300 299 298 300 301 302 303 304 304 303 304 302 300 300 296 293 292 291 291 290
308 310 307 308 307 308 308 309 311 311 311 312 312 307 304 304 304 304 305 305 304 303 303 301 299 297 298 299 300 300 300 300 301 300 300 298 295 293 292 291 291 290 290 289
304 303 306 305 308 307 307 308 308 310 311 311 311 312 309 303 303 305 305 305 305 305 304 303 300 298 298 298 297 297 298 297 297 297 295 293 292 291 291 290 290 289 288 288
306 304 303 305 304 307 305 307 307 307 307 309 310 310 303 304 302 303 304 305 306 306 305 303 301 300 299 298 298 296 297 297 295 294 293 291 290 290 289 289 288 288 287 287
309 305 304 304 303 310 308 306 305 307 307 308 308 307 305 305 303 303 303 305 305 305 304 303 303 301 300 299 298 297 296 295 294 292 291 290 290 289 289 288 287 287 287 286
306 309 310 308 301 307 309 307 305 306 307 305 305 306 304 302 304 303 302 304 305 305 305 305 304 303 301 299 298 297 295 294 292 291 291 290 289 289 288 287 287 286 286 286
307 307 311 306 315 309 307 307 303 305 309 305 303 304 304 302 304 306 303 302 303 304 305 305 305 303 301 298 297 295 293 292 291 291 291 290 289 289 288 287 286 286 286 286
305 308 313 314 314 306 305 305 304 311 308 300 303 304 301 304 305 302 300 302 302 302 304 305 304 303 301 298 296 294 293 291 292 291 291 290 289 288 287 286 285 285 285 284
309 311 309 305 314 314 301 302 309 307 302 305 305 303 301 301 300 300 300 301 299 298 301 303 303 302 301 298 296 294 293 293 291 291 290 290 288 287 286 285 285 284 284 283
309 306 307 312 311 304 299 301 298 299 299 299 303 301 302 303 301 299 298 297 295 295 297 300 301 300 298 296 295 294 293 292 291 290 288 289 287 286 285 284 284 283 282 283
300 301 303 305 303 303 300 298 297 297 297 297 298 298 298 301 298 297 295 294 293 292 293 296 299 296 293 294 294 294 293 292 290 288 287 286 286 284 283 283 283 283 282 282
299 301 298 299 301 300 299 298 297 297 297 296 296 297 297 297 296 295 293 290 290 290 292 294 295 294 293 292 292 293 292 291 287 285 284 284 284 283 282 282 283 283 283 284
300 301 304 301 300 300 301 298 296 297 296 294 295 295 294 293 293 292 288 288 290 290 290 291 292 292 292 292 291 291 291 289 287 284 282 281 281 281 282 282 281 282 283 285

GFSCGP_925_thetae_105.txt.gz
Theta_e
315 322 328 325 326 325 325 324 325 311 310 310 309 310 312 306 314 321 323 324 324 324 325 326 328 331 331 332 331 330 329 329 330 330 329 328 328 328 327 327 327 327 327 326
316 322 321 322 324 318 325 325 322 315 309 309 310 310 310 305 305 310 319 321 323 322 319 324 327 327 329 331 332 331 331 330 330 330 330 330 329 329 328 327 326 327 327 326
320 319 316 321 323 326 320 327 324 323 309 307 308 312 310 306 304 303 305 314 317 322 322 317 320 325 327 328 331 332 332 332 331 331 331 330 330 329 329 328 327 328 328 328
321 317 316 319 321 323 325 317 311 310 312 325 307 315 311 308 307 304 304 302 308 312 312 316 316 317 324 328 328 330 332 332 332 332 331 331 330 330 329 329 327 327 328 328
320 316 316 317 318 315 320 316 314 310 310 307 306 310 312 305 306 307 304 303 303 303 306 310 312 316 321 325 327 328 328 329 330 331 332 332 331 330 330 329 327 327 327 327
314 310 314 315 312 316 311 315 315 313 311 318 311 312 310 314 308 307 305 305 305 303 301 301 305 311 316 319 321 323 325 326 327 329 330 331 331 331 329 328 326 325 325 325
316 314 312 308 309 312 315 318 320 321 317 318 303 309 314 308 304 307 308 307 305 304 301 300 303 305 308 312 314 315 318 323 326 328 329 331 331 332 331 328 325 324 323 321
321 321 314 309 309 312 315 317 319 321 318 312 302 310 310 306 307 302 302 303 302 302 300 300 302 304 307 310 312 313 315 317 323 326 328 329 330 331 331 328 326 324 322 319
321 321 312 310 311 310 311 316 308 309 297 306 306 304 305 303 303 303 304 303 303 302 301 302 302 304 307 309 312 312 312 311 314 323 326 327 328 329 328 327 325 322 317 315
312 313 311 311 310 310 310 312 316 315 313 308 306 304 310 306 306 305 304 305 305 302 301 301 302 304 306 309 310 311 311 311 310 312 322 324 326 328 328 325 322 319 314 313
307 308 307 307 311 313 313 314 315 314 309 311 308 308 301 306 305 305 305 304 304 304 302 302 303 304 306 308 309 309 309 310 310 311 315 321 324 326 325 322 319 315 313 312
305 306 309 311 307 309 311 312 314 318 316 307 308 309 303 301 301 302 302 301 303 304 303 302 302 303 305 306 307 307 308 310 311 312 316 319 320 320 320 318 315 311 311 307
306 307 306 311 309 306 312 310 312 311 312 315 317 318 302 302 303 303 304 303 304 304 303 302 301 301 301 304 306 306 307 308 309 312 313 314 315 314 313 312 309 306 304 296
308 307 309 312 311 308 311 311 311 314 317 314 314 315 307 307 307 304 304 304 305 304 303 302 301 300 300 301 303 304 304 306 308 309 309 309 309 309 306 308 302 301 296 293
307 306 306 307 306 308 310 311 309 313 315 316 315 314 312 310 309 309 303 305 305 304 304 302 302 299 299 300 302 303 303 304 305 304 304 304 304 303 302 300 295 295 292 291
304 303 306 305 307 306 308 310 311 310 311 312 312 310 306 304 302 302 304 304 305 305 304 303 301 299 298 299 300 301 302 301 301 301 301 302 301 299 297 294 292 291 290 289
306 304 302 299 303 305 304 307 309 311 311 310 311 310 307 305 304 306 306 302 304 305 304 303 302 301 301 300 300 300 301 301 300 300 300 299 298 295 293 291 290 290 289 288
308 303 300 300 300 307 308 304 306 308 309 310 310 309 306 307 305 302 301 302 303 303 303 303 303 302 302 301 300 301 300 300 298 296 295 296 294 292 291 290 289 289 288 287
304 305 302 305 297 305 307 304 303 305 307 305 305 306 305 302 303 302 300 301 303 302 303 304 304 303 302 300 300 298 297 297 295 294 294 292 291 290 289 289 288 288 287 286
304 305 306 293 302 307 307 304 302 304 309 304 303 303 303 300 304 306 302 301 301 302 303 304 305 304 302 300 299 297 295 294 293 294 294 293 291 290 289 289 288 287 286 287
299 301 310 297 305 302 304 303 303 307 308 299 303 303 301 302 303 301 299 300 299 299 300 302 304 304 303 301 299 296 294 293 295 294 293 291 290 290 289 288 287 286 285 285
306 306 301 296 300 310 301 303 308 305 302 304 304 303 301 300 300 299 298 297 296 295 297 299 301 302 301 300 299 295 294 294 294 294 292 290 290 289 289 288 286 285 285 284
308 305 306 308 307 304 299 301 298 298 299 299 302 300 301 301 299 298 297 295 294 293 294 297 298 300 300 299 299 295 295 295 294 292 290 289 289 288 288 286 285 284 283 283
300 300 304 305 303 303 299 297 297 297 297 297 297 297 297 298 296 295 294 292 292 291 290 292 296 297 298 297 296 296 295 295 294 291 289 288 288 287 286 285 285 284 283 282
300 301 298 299 301 300 298 297 296 296 295 294 294 294 294 295 294 293 291 289 289 289 291 291 291 293 294 294 294 294 294 294 291 289 287 286 285 284 283 283 283 283 284 285
299 300 304 303 300 301 299 296 296 296 294 294 294 293 291 291 292 290 287 287 287 288 289 290 290 291 291 292 291 291 292 292 291 287 285 284 283 282 282 282 281 282 283 284

GFSCGP_925_thetae_108.txt.gz
Theta_e
320 327 330 328 327 329 326 329 330 322 312 314 319 318 317 316 313 320 323 327 329 330 329 331 332 332 332 333 331 327 324 325 326 327 328 328 329 328 327 326 326 326 326 325
321 328 327 327 327 326 327 329 332 328 317 315 319 317 316 316 313 314 318 323 327 328 328 329 329 331 332 332 332 332 329 327 327 329 330 330 329 330 328 326 326 326 326 326
326 325 323 326 327 328 326 329 330 330 313 312 317 326 325 320 312 312 311 317 323 327 328 328 328 329 330 332 332 332 332 331 330 330 330 330 330 329 329 328 327 326 327 327
323 319 324 326 329 328 327 321 324 324 323 331 320 333 329 326 324 313 312 312 315 323 326 327 327 328 329 329 331 332 332 332 331 330 330 330 330 330 330 328 328 327 327 327
322 319 323 327 326 326 323 316 318 314 320 314 320 317 326 317 318 317 314 313 312 314 321 325 325 326 327 328 328 329 331 332 332 331 331 331 331 331 331 329 328 327 327 328
317 313 319 321 318 322 316 316 315 315 319 325 323 318 326 324 320 320 316 313 313 312 311 316 321 323 323 323 326 327 329 330 331 331 331 332 332 332 330 327 327 327 327 327
317 316 312 313 317 314 316 321 323 323 324 330 312 318 322 321 315 317 318 316 313 312 311 310 310 313 317 318 319 323 326 327 329 330 331 331 332 332 330 328 327 327 325 325
321 321 314 311 319 317 318 322 323 329 325 324 305 317 319 313 310 313 310 311 311 312 311 310 308 308 309 312 315 316 318 323 326 328 328 329 330 331 329 327 328 328 326 324
322 321 313 309 310 315 317 320 317 316 306 313 315 313 312 311 311 309 310 309 309 310 308 307 307 306 307 308 311 313 313 315 321 325 326 327 328 329 328 325 326 327 325 323
319 318 314 312 312 311 317 315 319 317 324 323 319 314 316 313 312 312 311 311 312 310 308 307 305 305 306 307 309 311 312 313 314 321 324 325 327 327 327 325 325 324 324 321
314 314 312 310 312 315 315 317 317 317 316 321 321 319 313 313 312 310 309 309 308 309 309 309 307 306 306 306 308 310 311 311 311 312 320 322 324 326 326 326 326 323 322 317
310 312 317 316 309 309 314 315 317 320 320 316 312 318 309 308 307 306 308 308 308 308 308 308 307 306 306 307 308 308 309 309 310 310 313 315 320 323 322 323 324 320 318 314
309 313 316 314 311 310 314 314 316 316 316 321 323 323 317 309 308 307 308 308 309 309 309 308 307 306 305 306 305 306 307 308 309 309 310 311 313 316 318 319 317 316 316 307
310 311 316 319 315 313 314 315 315 316 319 320 320 321 316 310 311 311 310 308 308 309 309 308 308 306 305 305 305 305 304 305 307 308 309 309 312 313 315 314 314 310 311 304
311 314 310 310 311 313 314 314 315 317 317 319 318 317 317 316 315 314 314 311 308 309 309 309 308 307 305 304 303 303 304 305 306 307 308 309 310 310 310 309 306 304 305 299
307 314 310 310 309 311 313 314 315 315 315 316 316 316 314 313 313 313 314 312 308 308 308 309 308 306 304 303 303 302 302 303 304 304 306 307 307 306 305 305 304 304 297 294
309 310 314 316 308 310 313 313 314 315 315 315 317 316 312 311 311 311 311 310 310 311 309 307 308 307 305 304 302 302 301 301 301 301 303 303 303 301 300 299 299 294 292 291
311 310 315 311 308 314 312 309 312 313 313 314 313 313 311 312 311 311 311 310 309 308 307 307 307 306 305 304 302 301 301 300 300 300 300 300 299 298 298 295 293 292 290 289
310 312 310 316 315 312 310 306 309 312 312 311 312 312 311 311 307 309 308 307 307 307 305 305 306 305 305 303 301 300 299 299 298 298 298 298 297 296 295 293 291 290 289 288
307 310 316 306 315 315 310 308 305 307 311 309 309 309 309 306 308 309 304 303 303 302 302 303 304 304 304 302 301 299 297 296 297 297 298 298 295 295 294 292 290 289 288 288
310 311 313 312 316 316 307 305 306 313 313 303 305 306 305 305 307 304 302 302 300 299 299 300 302 303 303 302 300 297 296 295 296 296 296 296 294 293 293 291 289 288 287 287
311 312 313 313 314 313 306 304 311 309 303 305 305 304 303 303 301 301 300 299 298 297 297 296 299 301 302 301 299 297 296 296 296 295 294 293 293 291 289 289 287 286 286 285
312 311 314 312 313 306 304 307 302 302 304 302 305 302 303 303 301 299 298 297 296 294 293 294 295 298 298 299 299 298 298 297 296 294 293 291 290 288 288 287 286 285 284 283
305 303 312 311 307 305 304 299 299 299 300 299 299 299 300 300 298 297 296 294 293 291 290 291 294 294 294 295 295 295 296 295 294 293 291 290 288 287 286 286 285 285 283 283
307 304 305 305 302 301 300 300 299 298 298 297 296 296 296 297 296 295 293 291 290 289 289 289 290 291 291 292 293 293 293 294 293 291 290 289 287 286 285 285 284 284 284 284
302 306 310 312 305 307 304 299 297 298 297 296 296 294 291 294 293 291 289 287 287 287 287 288 288 288 288 290 290 290 291 291 291 290 288 286 286 285 284 283 283 283 283 283

GFSCGP_925_thetae_111.txt.gz
Theta_e
324 328 330 328 327 330 329 328 332 330 323 320 325 327 327 325 319 318 320 322 325 327 328 330 332 333 333 333 331 325 324 324 325 327 327 326 327 328 329 330 329 327 325 324
325 330 326 326 326 329 330 331 332 330 316 317 324 325 322 322 323 319 319 320 322 325 327 329 331 333 333 334 333 330 325 325 325 326 326 328 329 330 330 329 326 325 325 325
325 324 326 327 328 329 330 331 332 333 324 322 325 329 328 326 321 319 317 317 319 322 325 327 329 332 333 334 334 333 329 325 325 326 328 330 331 330 330 330 328 326 326 326
322 322 326 329 330 329 332 326 329 328 328 333 324 334 330 329 329 324 320 317 317 319 324 325 327 330 332 334 334 334 333 331 328 327 330 331 331 331 331 331 327 326 326 326
325 324 326 328 327 327 327 324 326 319 324 323 327 327 327 326 328 327 326 321 317 318 321 325 326 328 330 332 333 334 334 333 332 331 331 332 331 331 331 331 330 329 328 326
320 316 324 325 324 326 318 318 318 320 323 331 327 328 326 326 325 324 322 323 322 317 318 322 325 327 328 330 331 332 333 333 333 333 332 332 332 332 332 332 330 329 328 327
319 320 315 320 320 319 319 326 327 330 330 331 317 328 325 325 324 322 319 321 320 319 317 318 322 326 327 328 329 330 331 332 333 333 333 333 333 333 333 332 329 326 326 327
323 322 316 319 320 319 321 325 328 331 328 326 311 325 324 320 317 311 318 315 314 316 318 317 316 320 324 325 327 328 329 330 331 332 333 333 333 333 333 332 329 327 326 327
322 321 314 315 317 319 320 324 321 321 312 322 321 319 317 317 316 316 314 314 314 312 313 314 314 313 313 316 321 322 324 326 328 330 331 332 332 333 333 332 330 328 324 324
318 320 314 312 317 315 321 319 322 323 329 326 322 323 322 317 317 317 316 314 315 314 313 311 310 310 310 310 311 314 318 320 322 326 328 330 330 330 330 330 329 326 323 324
318 319 316 313 318 319 319 320 320 322 322 324 324 321 316 318 316 315 311 310 310 311 311 311 311 310 309 308 309 310 312 315 317 320 325 327 327 327 327 329 327 324 323 322
315 317 316 316 310 313 318 319 319 323 322 321 322 322 312 312 311 310 310 310 311 311 312 311 311 310 309 309 309 309 311 312 313 315 318 324 324 325 324 326 325 324 324 321
314 318 318 315 314 312 315 318 319 319 319 325 325 323 319 313 310 310 311 311 311 311 312 311 311 311 310 309 309 309 310 310 311 312 313 318 321 320 323 324 324 322 321 318
313 316 318 319 317 315 315 316 316 319 322 322 322 320 318 316 314 313 312 313 313 313 312 312 311 311 310 309 308 308 308 309 309 310 310 312 312 312 316 318 319 318 318 316
314 318 316 315 315 315 315 316 316 318 319 320 320 320 318 318 318 317 317 316 315 314 314 311 311 312 311 309 307 307 308 307 307 307 308 309 309 309 310 313 314 314 312 311
313 320 314 313 314 315 317 317 317 317 318 318 318 318 316 316 316 314 314 314 314 314 312 311 310 311 309 308 307 307 306 306 305 305 306 306 307 307 308 309 308 307 304 302
312 313 318 316 314 313 315 315 317 317 316 317 319 318 314 314 314 314 313 313 313 313 312 311 310 309 309 308 306 306 306 305 303 304 305 305 306 306 305 304 303 301 299 298
313 315 315 311 314 315 314 310 314 316 316 316 316 316 315 315 315 314 313 312 312 311 310 309 308 308 308 307 306 305 304 303 302 302 303 303 303 303 302 301 299 296 296 297
312 315 314 315 316 315 310 309 313 316 315 314 315 315 315 314 313 313 312 311 310 308 305 305 306 306 307 307 305 304 302 301 300 300 301 301 301 300 300 298 297 295 293 292
312 312 316 316 317 317 311 310 311 312 313 312 313 313 314 313 313 311 306 305 304 303 302 302 303 305 305 305 303 301 299 299 298 299 300 300 300 299 298 297 296 295 293 292
313 314 316 319 320 322 310 309 309 314 315 308 311 312 312 311 311 306 304 303 301 300 300 299 302 304 303 302 301 299 298 298 298 298 298 298 298 297 296 295 293 292 291 290
313 315 316 319 317 315 308 307 310 312 307 307 307 306 308 308 304 304 302 300 299 298 297 297 300 300 299 298 298 298 297 297 297 297 296 296 296 296 294 293 291 289 288 287
315 314 317 314 315 310 307 310 308 308 309 308 308 306 306 305 304 303 301 299 297 295 294 293 295 296 295 296 297 296 296 296 296 295 294 293 292 292 291 291 290 288 287 286
308 307 316 311 310 309 307 302 303 303 305 305 305 304 304 303 301 300 298 296 295 291 290 291 292 292 291 293 293 293 294 294 294 293 292 291 290 289 288 288 287 287 286 285
309 307 310 309 304 305 306 304 302 302 301 300 300 300 301 300 299 298 294 292 291 290 289 289 289 289 288 290 290 291 291 292 292 291 290 289 288 288 287 286 286 286 286 286
306 309 310 312 307 309 308 303 301 301 300 298 296 295 294 297 295 293 291 289 288 287 287 287 286 286 286 287 287 287 288 289 289 289 289 288 287 287 286 286 285 285 284 285

GFSCGP_925_thetae_114.txt.gz
Theta_e
324 326 327 326 328 330 330 330 331 328 322 322 322 324 324 322 315 315 316 316 321 328 328 331 332 333 333 329 325 325 328 328 329 330 328 328 327 326 326 327 328 327 326 324
325 328 324 324 326 328 330 330 331 329 316 317 321 323 322 322 323 321 315 315 316 321 324 329 330 331 333 333 330 324 324 326 327 328 328 328 327 326 326 328 329 328 327 324
324 322 323 325 325 328 330 331 329 331 321 321 322 324 325 325 321 318 317 315 315 317 322 325 329 331 333 333 333 331 324 324 324 327 327 327 327 327 328 329 330 329 326 325
322 320 323 323 325 325 330 328 328 328 328 332 322 328 327 326 326 323 318 313 312 313 318 321 328 330 332 333 333 333 331 324 324 325 326 327 328 329 330 329 329 328 326 325
324 321 325 326 326 326 328 326 327 322 325 325 328 327 325 324 325 324 323 317 314 312 314 319 323 328 330 333 333 334 333 329 325 325 326 328 330 330 330 330 331 330 327 326
320 317 322 325 325 324 319 320 320 320 325 330 327 327 326 325 323 323 323 320 318 315 312 316 322 326 329 331 333 334 334 333 330 326 326 328 330 330 330 330 331 330 329 327
321 323 316 320 324 318 321 325 326 330 329 330 319 325 326 322 320 321 320 317 315 316 313 312 317 323 326 329 332 333 333 333 333 332 329 328 331 331 331 331 331 330 329 329
324 323 319 321 323 322 324 324 323 326 327 324 312 322 323 322 319 314 313 314 314 310 313 312 313 320 325 327 329 330 332 333 333 333 333 331 331 332 331 331 332 331 330 329
321 321 316 320 318 320 322 326 320 318 308 318 318 317 317 317 314 311 310 311 312 310 309 312 313 315 322 326 327 328 330 330 331 332 333 333 332 332 332 332 332 332 331 330
317 320 315 311 318 316 321 319 324 322 321 323 321 321 320 316 316 314 312 312 311 310 309 308 308 310 311 315 320 325 327 329 329 330 331 332 333 332 332 332 332 332 330 329
316 318 317 315 320 320 320 322 322 322 322 322 322 318 312 316 314 313 307 307 308 308 308 307 307 309 309 309 309 311 319 323 324 326 328 329 330 332 332 332 331 330 329 328
316 316 316 317 312 316 318 322 320 324 322 319 319 318 310 308 308 308 308 308 309 309 308 308 309 309 309 309 309 308 309 311 314 318 320 324 327 329 330 330 329 328 328 327
315 316 318 316 312 311 319 319 320 317 316 318 318 317 311 307 308 308 307 308 308 310 310 308 307 308 309 309 309 309 309 310 311 312 314 317 321 326 326 327 326 325 326 325
314 315 316 318 318 314 317 318 318 319 318 318 319 317 309 308 309 307 308 309 309 311 310 308 307 307 310 310 309 308 309 309 310 311 312 313 316 321 320 321 321 322 323 322
315 314 315 314 315 315 316 318 319 320 319 319 317 318 315 314 313 313 311 313 314 312 311 309 307 306 309 309 309 308 308 308 308 309 310 311 312 315 316 317 317 319 318 316
313 314 312 308 314 315 315 316 317 318 318 318 316 316 314 314 314 313 313 312 311 310 310 309 308 308 307 308 308 307 307 307 307 307 308 308 309 309 309 309 310 312 312 312
314 312 315 311 310 311 311 314 315 316 316 317 317 316 311 311 313 313 311 311 311 310 309 307 305 305 307 308 308 307 306 306 306 306 306 306 307 307 306 306 306 307 307 307
313 312 312 311 312 313 311 312 313 314 314 314 315 314 314 312 312 312 312 310 309 309 308 304 304 305 306 307 307 306 306 305 305 304 303 304 304 304 303 303 303 304 303 302
311 313 311 314 314 312 310 308 314 314 315 314 314 313 312 312 312 311 310 305 304 304 303 303 303 304 305 306 306 305 304 303 302 302 302 302 302 302 302 303 302 300 299 297
313 312 313 315 310 312 311 308 310 310 311 312 312 313 312 311 313 309 303 303 302 301 300 300 302 304 304 303 303 302 301 300 299 299 300 300 300 300 301 302 301 299 297 295
313 313 314 311 307 309 308 306 309 309 308 306 310 311 309 310 309 303 301 300 299 298 298 299 301 300 299 299 300 299 298 298 298 298 298 298 298 298 298 298 297 296 293 291
313 314 314 307 305 309 305 307 310 307 306 304 307 307 308 304 302 300 299 298 296 295 295 297 297 294 295 297 298 297 295 296 296 295 295 295 295 295 295 294 293 291 290 289
310 311 312 311 308 307 306 305 307 305 304 305 304 304 303 301 301 299 297 295 293 292 292 293 293 291 291 292 294 293 292 294 294 294 293 292 292 291 291 291 291 290 289 288
307 307 306 306 306 304 303 303 303 304 304 304 303 302 301 300 298 297 295 293 290 289 289 290 290 288 287 288 289 290 291 292 292 292 291 291 290 290 289 288 289 288 288 287
304 305 304 303 303 303 304 302 300 301 300 299 298 300 299 298 296 294 291 289 288 288 287 288 287 286 285 286 287 288 289 290 290 289 289 288 288 287 287 287 286 287 287 287
304 305 307 305 303 305 305 300 299 298 298 295 295 295 294 294 292 290 288 288 287 286 286 285 284 284 283 284 284 285 287 288 289 288 288 287 287 286 286 286 285 286 285 285

GFSCGP_925_thetae_117.txt.gz
Theta_e
322 325 327 324 324 326 326 327 328 324 322 322 322 320 318 318 315 313 313 313 323 329 330 331 332 333 333 332 331 330 330 328 330 330 328 327 325 325 324 325 326 326 326 325
325 326 322 321 324 326 329 329 330 326 318 321 320 321 319 319 320 313 313 313 312 324 323 329 331 333 333 333 332 330 330 329 327 329 330 328 326 325 325 324 325 326 327 326
324 322 321 323 325 328 327 330 330 331 316 318 321 321 322 321 319 318 315 313 313 313 325 325 328 331 332 331 331 329 328 328 327 325 329 329 328 326 326 325 327 327 328 327
322 319 322 323 325 325 328 326 327 323 325 330 320 326 322 323 322 321 316 312 312 312 317 324 327 329 330 332 329 326 325 326 326 325 326 328 327 326 326 325 325 328 328 328
324 320 322 324 324 323 325 324 322 323 323 325 326 326 322 320 322 322 322 315 312 310 312 317 326 328 329 330 332 331 325 323 324 325 326 327 326 326 325 326 326 328 329 329
320 317 319 322 321 320 318 321 321 321 324 330 326 327 325 323 323 321 319 321 317 311 308 312 322 327 328 329 331 332 331 326 323 323 324 325 325 325 327 328 328 328 328 328
323 322 317 320 322 320 322 326 328 329 330 327 321 325 327 320 319 318 319 316 316 312 309 310 312 320 325 329 330 331 332 331 326 324 324 324 325 326 327 328 329 329 329 329
323 324 320 319 323 323 324 324 320 323 325 321 313 323 321 320 320 317 316 316 313 309 311 309 309 317 323 327 330 331 331 332 332 328 324 324 325 327 327 328 328 329 329 329
322 322 317 320 318 321 323 326 316 315 303 314 316 315 314 315 316 311 309 309 310 309 308 311 309 313 320 324 327 330 332 332 332 333 331 327 325 326 328 329 329 329 329 330
317 321 317 315 318 317 321 319 324 317 318 320 318 317 317 315 315 313 312 310 309 308 307 305 305 308 313 321 325 327 329 330 331 332 332 332 330 329 328 329 330 330 330 330
316 318 317 317 322 323 321 323 321 320 317 319 318 317 312 312 315 313 309 307 305 305 305 305 306 308 308 308 310 317 325 327 328 329 331 331 331 331 331 330 330 331 331 331
315 316 319 322 311 313 319 322 321 323 322 317 316 316 309 308 308 305 306 307 306 305 305 306 307 308 308 309 309 308 308 311 319 324 327 328 329 330 331 331 331 330 331 331
314 316 319 317 317 314 321 320 321 316 315 320 318 317 308 305 305 305 306 306 307 307 307 305 305 306 307 308 309 309 308 308 308 309 312 316 320 323 326 328 329 329 330 330
313 315 318 321 321 318 322 321 321 316 316 316 320 314 307 306 306 305 305 305 304 306 306 306 306 305 307 308 309 308 308 308 308 309 310 311 312 315 319 325 324 324 325 325
313 314 313 313 315 317 318 319 321 320 318 319 318 315 308 306 305 305 305 305 308 309 309 307 306 304 306 308 308 308 307 308 308 308 309 310 311 312 315 318 321 319 318 319
312 315 311 309 313 316 318 318 320 320 319 318 315 316 312 308 309 307 307 308 309 309 308 308 307 306 304 305 307 306 307 307 307 308 308 308 309 310 312 313 315 315 315 315
315 311 311 308 310 312 314 318 318 319 318 318 318 315 311 311 310 309 309 308 309 307 307 307 305 302 303 305 306 307 306 306 306 306 306 306 307 308 308 308 308 307 308 307
314 312 311 313 315 320 313 313 316 318 317 316 316 312 310 310 309 308 308 307 307 307 307 303 303 303 304 305 306 305 305 305 305 304 304 304 304 304 304 304 304 304 304 304
313 310 312 315 317 309 310 307 314 316 317 315 316 313 310 310 309 310 307 306 305 303 301 301 302 303 303 303 303 303 303 302 301 301 301 301 301 302 302 302 302 303 302 302
313 312 313 309 315 314 310 307 311 312 316 313 313 314 312 309 313 311 302 301 299 299 299 300 301 301 300 300 301 301 299 299 298 298 299 299 299 300 300 300 300 300 299 298
314 314 317 314 306 306 305 304 311 315 312 309 311 312 311 312 311 304 300 298 297 297 298 299 298 295 296 298 299 297 296 295 296 296 296 296 296 295 295 295 295 295 294 294
315 315 315 304 299 312 304 308 313 309 305 304 307 310 309 305 301 300 298 296 294 293 295 295 292 291 293 295 296 294 293 293 294 295 294 294 294 293 293 293 293 293 292 290
312 312 313 314 311 305 302 307 307 303 303 303 304 303 303 301 299 298 295 293 291 291 291 291 290 288 289 291 292 291 291 293 294 294 293 292 291 291 291 290 290 290 289 289
307 306 307 308 306 304 303 304 304 303 302 302 301 300 302 299 298 295 292 290 288 288 287 288 288 285 285 287 288 289 290 292 292 291 290 290 290 289 288 288 287 288 288 287
305 304 302 303 304 302 303 302 302 302 300 300 298 298 297 297 295 293 291 288 287 286 286 287 285 283 283 286 287 288 289 290 290 289 288 288 288 287 287 287 286 286 286 286
301 307 308 307 303 304 305 301 298 299 300 297 296 295 293 295 292 290 288 287 285 284 283 283 282 282 282 284 285 286 287 288 289 288 287 287 286 286 286 286 286 286 285 285